[[{"header":{"parameterUnit":"m.s-1","parameterCategory":1,"la1":31.0,"la2":29.5877,"lo1":-88.7671,"lo2":-86.6584,"dy":0.0162,"dx":0.0185,"nx":115,"ny":88,"refTime":"2023-07-12T06:00:00:Z","depth":0,"parameterNumber":2,"parameterNumberName":"U-component_of_WINDS"},"data":[0.0,0.0,0.0,0.0,0.0,0.0,0.0,0.0,0.0,0.0,0.0,0.0,0.0,0.0,0.0,0.0,0.0,0.0,0.0,0.0,0.0,0.0,0.0,0.0,0.0,0.0,0.0,0.0,0.0,0.0,0.0,0.0,0.0,0.0,0.0,0.0,0.0,0.0,0.0,0.0,0.0,0.0,0.0,0.0,0.0,0.0,0.0,0.0,0.0,0.0,0.0,0.0,0.0,0.0,0.0,0.0,0.0,0.0,0.0,0.0,0.0,0.0,0.0,0.0,0.0,0.0,0.0,0.0,0.0,0.0,0.0,0.0,0.0,0.0,0.0,0.0,0.0,0.0,0.0,0.0,0.0,0.0,0.0,0.0,0.0,0.0,0.0,0.0,0.0,0.0,0.0,0.0,0.0,0.0,0.0,0.0,0.0,0.0,0.0,0.0,0.0,0.0,0.0,0.0,0.0,0.0,0.0,0.0,0.0,0.0,0.0,0.0,0.0,0.0,0.0,0.0,0.0,0.0,0.0,0.0,0.0,0.0,0.0,0.0,0.0,0.0,0.0,0.0,0.0,0.0,0.0,0.0,0.0,0.0,0.0,0.0,0.0,0.0,0.0,0.0,0.0,0.0,0.0,0.0,0.0,0.0,0.0,0.0,0.0,0.0,0.0,0.0,0.0,0.0,0.0,0.0,0.0,0.0,0.0,0.0,0.0,0.0,0.0,0.0,0.0,0.0,0.0,0.0,0.0,0.0,0.0,0.0,0.0,0.0,0.0,0.0,0.0,0.0,0.0,0.0,0.0,0.0,0.0,0.0,0.0,0.0,0.0,0.0,0.0,0.0,0.0,0.0,0.0,0.0,0.0,0.0,0.0,0.0,0.0,0.0,0.0,0.0,0.0,0.0,0.0,0.0,0.0,0.0,0.0,0.0,0.0,0.0,0.0,0.0,0.0,0.0,0.0,0.0,0.0,0.0,0.0,0.0,0.0,0.0,0.0,0.0,0.0,0.0,0.0,0.0,0.0,0.0,0.0,0.0,0.0,0.0,0.0,0.0,0.0,0.0,0.0,0.0,0.0,0.0,0.0,0.0,0.0,0.0,0.0,0.0,0.0,0.0,0.0,0.0,0.0,0.0,0.0,0.0,0.0,0.0,0.0,0.0,0.0,0.0,0.0,0.0,0.0,0.0,0.0,0.0,0.0,0.0,0.0,0.0,0.0,0.0,0.0,0.0,0.0,0.0,0.0,0.0,0.0,0.0,0.0,0.0,0.0,0.0,0.0,0.0,0.0,0.0,0.0,0.0,0.0,0.0,0.0,0.0,0.0,0.0,0.0,0.0,0.0,0.0,0.0,0.0,0.0,0.0,0.0,0.0,0.0,0.0,0.0,0.0,0.0,0.0,0.0,0.0,0.0,0.0,0.0,0.0,0.0,0.0,0.0,0.0,0.0,0.0,0.0,0.0,0.0,0.0,0.0,0.0,0.0,0.0,0.0,0.0,0.0,0.0,0.0,0.0,0.0,0.0,0.0,0.0,0.0,0.0,0.0,0.0,0.0,0.0,0.0,0.0,0.0,0.0,0.0,0.0,0.0,0.0,0.0,0.0,0.0,0.0,0.0,0.0,0.0,0.0,0.0,0.0,0.0,0.0,0.0,0.0,0.0,0.0,0.0,0.0,0.0,0.0,0.0,0.0,0.0,0.0,0.0,0.0,0.0,0.0,0.0,0.0,0.0,0.0,0.0,0.0,0.0,0.0,0.0,0.0,0.0,0.0,0.0,0.0,0.0,0.0,0.0,0.0,0.0,0.0,0.0,0.0,0.0,0.0,0.0,0.0,0.0,0.0,0.0,0.0,0.0,0.0,0.0,0.0,0.0,0.0,0.0,0.0,0.0,0.0,0.0,0.0,0.0,0.0,0.0,0.0,0.0,0.0,0.0,0.0,0.0,0.0,0.0,0.0,0.0,0.0,0.0,0.0,0.0,0.0,0.0,0.0,0.0,0.0,0.0,0.0,0.0,0.0,0.0,0.0,0.0,0.0,0.0,0.0,0.0,0.0,0.0,0.0,0.0,0.0,0.0,0.0,0.0,0.0,0.0,0.0,0.0,0.0,0.0,0.0,0.0,0.0,0.0,0.0,0.0,0.0,0.0,0.0,0.0,0.0,0.0,0.0,0.0,0.0,0.0,0.0,0.0,0.0,0.0,0.0,0.0,0.0,0.0,0.0,0.0,0.0,0.0,0.0,0.0,0.0,0.0,0.0,0.0,0.0,0.0,0.0,0.0,0.0,0.0,0.0,0.0,0.0,0.0,0.0,0.0,0.0,0.0,0.0,0.0,0.0,0.0,0.0,0.0,0.0,0.0,0.0,0.0,0.0,0.0,0.0,0.0,0.0,0.0,0.0,0.0,0.0,0.0,0.0,0.0,0.0,0.0,0.0,0.0,0.0,0.0,0.0,0.0,0.0,0.0,0.0,0.0,0.0,0.0,0.0,0.0,0.0,0.0,0.0,0.0,0.0,0.0,0.0,0.0,0.0,0.0,0.0,0.0,0.0,0.0,0.0,0.0,0.0,0.0,0.0,0.0,0.0,0.0,0.0,0.0,0.0,0.0,0.0,0.0,0.0,0.0,0.0,0.0,0.0,0.0,0.0,0.0,0.0,0.0,0.0,0.0,0.0,0.0,0.0,0.0,0.0,0.0,0.0,0.0,0.0,0.0,0.0,0.0,0.0,0.0,0.0,0.0,0.0,0.0,0.0,0.0,0.0,0.0,0.0,0.0,0.0,0.0,0.0,0.0,0.0,0.0,0.0,0.0,0.0,0.0,0.0,0.0,0.0,0.0,0.0,0.0,0.0,0.0,0.0,0.0,0.0,0.0,0.0,0.0,0.0,0.0,0.0,0.0,0.0,0.0,0.0,0.0,0.0,0.0,0.0,0.0,0.0,0.0,0.0,0.0,0.0,0.0,0.0,0.0,0.0,0.0,0.0,0.0,0.0,0.0,0.0,0.0,0.0,0.0,0.0,0.0,0.0,0.0,0.0,0.0,0.0,0.0,0.0,0.0,0.0,0.0,0.0,0.0,0.0,0.0,0.0,0.0,0.0,0.0,0.0,0.0,0.0,0.0,0.0,0.0,0.0,0.0,0.0,0.0,0.0,0.0,0.0,0.0,0.0,0.0,0.0,0.0,0.0,0.0,0.0,0.0,0.0,0.0,0.0,0.0,0.0,0.0,0.0,0.0,0.0,0.0,0.0,0.0,0.0,0.0,0.0,0.0,0.0,0.0,0.0,0.0,0.0,0.0,0.0,0.0,0.0,0.0,0.0,0.0,0.0,0.0,0.0,0.0,0.0,0.0,0.0,0.0,0.0,0.0,0.0,0.0,0.0,0.0,0.0,0.0,0.0,0.0,0.0,0.0,0.0,0.0,0.0,0.0,0.0,0.0,0.0,0.0,0.0,0.0,0.0,0.0,0.0,0.0,0.0,0.0,0.0,0.0,0.0,0.0,0.0,0.0,0.0,0.0,0.0,0.0,0.0,0.0,0.0,0.0,0.0,0.0,0.0,0.0,0.0,0.0,0.0,0.0,0.0,0.0,0.0,0.0,0.0,0.0,0.0,0.0,0.0,0.0,0.0,0.0,0.0,0.0,0.0,0.0,0.0,0.0,0.0,0.0,0.0,0.0,0.0,0.0,0.0,0.0,0.0,0.0,0.0,0.0,0.0,0.0,0.0,0.0,0.0,0.0,0.0,0.0,0.0,0.0,0.0,0.0,0.0,0.0,0.0,0.0,0.0,0.0,0.0,0.0,0.0,0.0,0.0,0.0,0.0,0.0,0.0,0.0,0.0,0.0,0.0,0.0,0.0,0.0,0.0,0.0,0.0,0.0,0.0,0.0,0.0,0.0,0.0,0.0,0.0,0.0,0.0,0.0,0.0,0.0,0.0,0.0,0.0,0.0,0.0,0.0,0.0,0.0,0.0,0.0,0.0,0.0,0.0,0.0,0.0,0.0,0.0,0.0,0.0,0.0,0.0,0.0,0.0,0.0,0.0,0.0,0.0,0.0,0.0,0.0,0.0,0.0,0.0,0.0,0.0,0.0,0.0,0.0,0.0,0.0,0.0,0.0,0.0,0.0,0.0,0.0,0.0,0.0,0.0,0.0,0.0,0.0,0.0,0.0,0.0,0.0,0.0,0.0,0.0,0.0,0.0,0.0,0.0,0.0,0.0,0.0,0.0,0.0,0.0,0.0,0.0,0.0,0.0,0.0,0.0,0.0,0.0,-1.2482,0.0,0.0,0.0,0.0,0.0,0.0,0.0,0.0,0.0,0.0,0.0,0.0,0.0,0.0,0.0,0.0,0.0,0.0,0.0,0.0,0.0,0.0,0.0,0.0,0.0,0.0,0.0,0.0,0.0,0.0,0.0,0.0,0.0,0.0,0.0,0.0,0.0,0.0,0.0,0.0,0.0,0.0,0.0,0.0,0.0,0.0,0.0,0.0,0.0,0.0,0.0,0.0,0.0,0.0,0.0,0.0,0.0,0.0,0.0,0.0,0.0,0.0,0.0,0.0,0.0,0.0,0.0,0.0,0.0,0.0,0.0,0.0,0.0,0.0,0.0,0.0,0.0,0.0,0.0,0.0,0.0,0.0,0.0,0.0,0.0,0.0,0.0,0.0,0.0,0.0,0.0,0.0,0.0,0.0,0.0,0.0,0.0,0.0,0.0,0.0,0.0,0.0,0.0,0.0,0.0,0.0,0.0,0.0,0.0,0.0,-1.2413,-1.2536,-1.3523,-1.4031,-1.3899,0.0,0.0,0.0,0.0,0.0,0.0,0.0,0.0,0.0,0.0,0.0,0.0,0.0,0.0,0.0,0.0,0.0,0.0,0.0,0.0,0.0,0.0,0.0,0.0,0.0,0.0,0.0,0.0,0.0,0.0,0.0,0.0,0.0,0.0,0.0,0.0,0.0,0.0,0.0,0.0,0.0,0.0,0.0,0.0,0.0,0.0,0.0,0.0,0.0,0.0,0.0,0.0,0.0,0.0,0.0,0.0,0.0,0.0,0.0,0.0,0.0,0.0,0.0,0.0,0.0,0.0,0.0,0.0,0.0,0.0,0.0,0.0,0.0,0.0,0.0,0.0,0.0,0.0,0.0,0.0,0.0,0.0,0.0,0.0,0.0,0.0,0.0,0.0,0.0,0.0,0.0,0.0,0.0,0.0,0.0,0.0,0.0,0.0,0.0,0.0,0.0,0.0,0.0,0.0,0.0,0.0,0.0,0.0,0.0,0.0,0.0,0.0,-1.4787,-1.5237,-1.5223,0.0,0.0,0.0,0.0,0.0,0.0,0.0,0.0,0.0,0.0,0.0,0.0,0.0,0.0,0.0,0.0,0.0,0.0,0.0,0.0,0.0,0.0,0.0,0.0,0.0,0.0,0.0,0.0,0.0,0.0,0.0,0.0,0.0,0.0,0.0,0.0,0.0,0.0,0.0,0.0,0.0,0.0,0.0,0.0,0.0,0.0,0.0,0.0,0.0,0.0,0.0,0.0,0.0,0.0,0.0,0.0,0.0,0.0,0.0,0.0,0.0,0.0,0.0,0.0,0.0,0.0,0.0,0.0,0.0,0.0,0.0,0.0,0.0,0.0,0.0,0.0,0.0,0.0,0.0,0.0,0.0,0.0,0.0,0.0,0.0,0.0,0.0,0.0,0.0,0.0,0.0,0.0,0.0,0.0,0.0,0.0,0.0,0.0,0.0,0.0,0.0,0.0,0.0,0.0,0.0,0.0,0.0,0.0,0.0,0.0,-1.3595,-1.4745,-1.4879,0.0,-1.566,0.0,0.0,0.0,0.0,0.0,0.0,0.0,0.0,0.0,0.0,0.0,0.0,0.0,0.0,0.0,0.0,0.0,0.0,0.0,0.0,0.0,0.0,0.0,0.0,0.0,0.0,0.0,0.0,0.0,0.0,0.0,0.0,0.0,0.0,0.0,0.0,0.0,0.0,0.0,0.0,0.0,0.0,0.0,0.0,0.0,0.0,0.0,0.0,0.0,0.0,0.0,0.0,0.0,0.0,0.0,0.0,0.0,0.0,0.0,0.0,0.0,0.0,0.0,0.0,0.0,0.0,0.0,0.0,0.0,0.0,0.0,0.0,0.0,0.0,0.0,0.0,0.0,0.0,0.0,0.0,0.0,0.0,0.0,0.0,0.0,0.0,0.0,0.0,0.0,0.0,0.0,0.0,0.0,0.0,0.0,0.0,0.0,0.0,0.0,0.0,0.0,0.0,0.0,0.0,0.0,0.0,0.0,0.0,0.0,0.0,-1.4778,-1.5312,-1.5823,-1.6524,0.0,0.0,0.0,0.0,0.0,0.0,0.0,0.0,0.0,0.0,0.0,0.0,0.0,0.0,0.0,0.0,0.0,0.0,0.0,0.0,0.0,0.0,0.0,0.0,0.0,0.0,0.0,0.0,0.0,0.0,0.0,0.0,0.0,0.0,0.0,0.0,0.0,0.0,0.0,0.0,0.0,0.0,0.0,0.0,0.0,0.0,0.0,0.0,0.0,0.0,0.0,0.0,0.0,0.0,0.0,0.0,0.0,0.0,0.0,0.0,0.0,0.0,0.0,0.0,0.0,0.0,0.0,0.0,0.0,0.0,0.0,0.0,0.0,0.0,0.0,0.0,0.0,0.0,0.0,0.0,0.0,0.0,0.0,0.0,0.0,0.0,0.0,0.0,0.0,0.0,0.0,0.0,0.0,0.0,0.0,0.0,0.0,0.0,0.0,0.0,0.0,0.0,0.0,0.0,0.0,0.0,0.0,0.0,0.0,0.0,-1.5299,-1.5865,-1.6292,-1.6924,-1.7673,-1.8472,0.0,0.0,0.0,0.0,0.0,0.0,0.0,0.0,0.0,0.0,0.0,0.0,0.0,0.0,0.0,0.0,0.0,0.0,0.0,0.0,0.0,0.0,0.0,0.0,0.0,0.0,0.0,0.0,0.0,0.0,0.0,0.0,0.0,0.0,0.0,0.0,0.0,0.0,0.0,0.0,0.0,0.0,0.0,0.0,0.0,0.0,0.0,0.0,0.0,0.0,0.0,0.0,0.0,0.0,0.0,0.0,0.0,0.0,0.0,0.0,0.0,0.0,0.0,0.0,0.0,0.0,0.0,0.0,0.0,0.0,0.0,0.0,0.0,0.0,0.0,0.0,0.0,0.0,0.0,0.0,0.0,0.0,0.0,0.0,0.0,0.0,0.0,0.0,0.0,0.0,0.0,0.0,0.0,0.0,0.0,0.0,0.0,0.0,0.0,0.0,0.0,0.0,0.0,0.0,0.0,0.0,0.0,0.0,-1.605,-1.6013,-1.6589,-1.7968,-1.7999,-1.8207,0.0,0.0,0.0,0.0,0.0,0.0,0.0,0.0,0.0,0.0,0.0,0.0,0.0,0.0,0.0,0.0,0.0,0.0,0.0,0.0,0.0,0.0,0.0,0.0,0.0,0.0,0.0,0.0,0.0,0.0,0.0,0.0,0.0,0.0,0.0,0.0,0.0,0.0,0.0,0.0,0.0,0.0,0.0,0.0,0.0,0.0,0.0,0.0,0.0,0.0,0.0,0.0,0.0,0.0,0.0,0.0,0.0,0.0,0.0,0.0,0.0,0.0,0.0,0.0,0.0,0.0,0.0,0.0,0.0,0.0,0.0,0.0,0.0,0.0,0.0,0.0,0.0,0.0,0.0,0.0,0.0,0.0,0.0,0.0,0.0,0.0,0.0,0.0,0.0,0.0,0.0,0.0,0.0,0.0,0.0,0.0,0.0,0.0,0.0,0.0,0.0,0.0,0.0,0.0,0.0,0.0,0.0,0.0,0.0,-1.6331,-1.6994,-1.7681,-1.8307,-1.8322,-1.8424,0.0,0.0,0.0,0.0,0.0,0.0,0.0,0.0,0.0,0.0,0.0,0.0,0.0,0.0,0.0,0.0,0.0,0.0,0.0,0.0,0.0,0.0,0.0,0.0,0.0,0.0,0.0,0.0,0.0,0.0,0.0,0.0,0.0,0.0,0.0,0.0,0.0,0.0,0.0,0.0,0.0,0.0,0.0,0.0,0.0,0.0,0.0,0.0,0.0,0.0,0.0,0.0,0.0,0.0,0.0,0.0,0.0,0.0,0.0,0.0,0.0,0.0,0.0,0.0,0.0,0.0,0.0,0.0,0.0,0.0,0.0,0.0,0.0,0.0,0.0,0.0,0.0,0.0,0.0,0.0,0.0,0.0,0.0,0.0,0.0,0.0,0.0,0.0,0.0,0.0,0.0,0.0,0.0,0.0,0.0,0.0,0.0,0.0,0.0,0.0,0.0,0.0,0.0,0.0,0.0,0.0,0.0,0.0,0.0,-1.7032,0.0,-1.862,-1.8685,-1.8711,-1.8731,0.0,0.0,0.0,0.0,0.0,0.0,0.0,0.0,0.0,0.0,0.0,0.0,0.0,0.0,0.0,0.0,0.0,0.0,0.0,0.0,0.0,0.0,0.0,0.0,0.0,0.0,0.0,0.0,0.0,0.0,0.0,0.0,0.0,0.0,0.0,0.0,0.0,0.0,0.0,0.0,0.0,0.0,0.0,0.0,0.0,0.0,0.0,0.0,0.0,0.0,0.0,0.0,0.0,0.0,0.0,0.0,0.0,0.0,0.0,0.0,0.0,0.0,0.0,0.0,0.0,0.0,0.0,0.0,0.0,0.0,0.0,0.0,0.0,0.0,0.0,0.0,0.0,0.0,0.0,0.0,0.0,0.0,0.0,0.0,0.0,0.0,0.0,0.0,0.0,0.0,0.0,0.0,0.0,0.0,0.0,0.0,0.0,0.0,0.0,0.0,0.0,0.0,0.0,0.0,0.0,0.0,0.0,0.0,-1.6225,-1.8286,-1.8958,-1.9253,-1.9274,-1.9274,-1.9198,0.0,0.0,0.0,0.0,0.0,0.0,0.0,0.0,0.0,0.0,0.0,0.0,0.0,0.0,0.0,0.0,0.0,0.0,0.0,0.0,0.0,0.0,0.0,0.0,0.0,0.0,0.0,0.0,0.0,0.0,0.0,0.0,0.0,0.0,0.0,0.0,0.0,0.0,0.0,0.0,0.0,0.0,0.0,0.0,0.0,0.0,0.0,0.0,0.0,0.0,0.0,0.0,0.0,0.0,0.0,0.0,0.0,0.0,0.0,0.0,0.0,0.0,0.0,0.0,0.0,0.0,0.0,0.0,0.0,0.0,0.0,0.0,0.0,0.0,0.0,0.0,0.0,0.0,0.0,0.0,0.0,0.0,0.0,0.0,0.0,0.0,0.0,0.0,0.0,0.0,0.0,0.0,0.0,0.0,0.0,0.0,0.0,0.0,0.0,0.0,0.0,0.0,0.0,0.0,0.0,0.0,0.0,0.0,0.0,-1.8989,-1.9201,-1.9274,-1.9274,-1.9208,-1.9142,0.0,0.0,0.0,0.0,0.0,0.0,0.0,0.0,0.0,0.0,0.0,0.0,0.0,0.0,0.0,0.0,0.0,0.0,0.0,0.0,0.0,0.0,0.0,0.0,0.0,0.0,0.0,0.0,0.0,0.0,0.0,0.0,0.0,0.0,0.0,0.0,0.0,0.0,0.0,0.0,0.0,0.0,0.0,0.0,0.0,0.0,0.0,0.0,0.0,0.0,0.0,0.0,0.0,0.0,0.0,0.0,0.0,0.0,0.0,0.0,0.0,0.0,0.0,0.0,0.0,0.0,0.0,0.0,0.0,0.0,0.0,0.0,0.0,0.0,0.0,0.0,0.0,0.0,0.0,0.0,0.0,0.0,0.0,0.0,0.0,0.0,0.0,0.0,0.0,0.0,0.0,0.0,0.0,0.0,0.0,0.0,0.0,0.0,0.0,0.0,0.0,0.0,0.0,0.0,0.0,0.0,0.0,0.0,0.0,-1.9407,-1.9274,-1.9208,-1.9208,-1.9142,-1.9131,-1.9131,0.0,0.0,0.0,0.0,0.0,0.0,0.0,0.0,0.0,0.0,0.0,0.0,0.0,0.0,0.0,0.0,0.0,0.0,0.0,0.0,0.0,0.0,0.0,0.0,0.0,0.0,0.0,0.0,0.0,0.0,0.0,0.0,0.0,0.0,0.0,0.0,0.0,0.0,0.0,0.0,0.0,0.0,0.0,0.0,0.0,0.0,0.0,0.0,0.0,0.0,0.0,0.0,0.0,0.0,0.0,0.0,0.0,0.0,0.0,0.0,0.0,0.0,0.0,0.0,0.0,0.0,0.0,0.0,0.0,0.0,0.0,0.0,0.0,0.0,0.0,0.0,0.0,0.0,0.0,0.0,0.0,0.0,0.0,0.0,0.0,0.0,0.0,0.0,0.0,0.0,0.0,0.0,0.0,0.0,0.0,0.0,0.0,0.0,0.0,0.0,0.0,0.0,0.0,0.0,0.0,0.0,0.0,0.0,-1.9605,-1.9341,-1.9142,-1.9131,-1.9131,-1.9131,0.0,0.0,0.0,0.0,0.0,0.0,0.0,0.0,0.0,0.0,0.0,0.0,0.0,0.0,0.0,0.0,0.0,0.0,0.0,0.0,0.0,0.0,0.0,0.0,0.0,0.0,0.0,0.0,0.0,0.0,0.0,0.0,0.0,0.0,0.0,0.0,0.0,0.0,0.0,0.0,0.0,0.0,0.0,0.0,0.0,0.0,0.0,0.0,0.0,0.0,0.0,0.0,0.0,0.0,0.0,0.0,0.0,0.0,0.0,0.0,0.0,0.0,0.0,0.0,0.0,0.0,0.0,0.0,0.0,0.0,0.0,0.0,0.0,0.0,0.0,0.0,0.0,0.0,0.0,0.0,0.0,0.0,0.0,0.0,0.0,0.0,0.0,0.0,0.0,0.0,0.0,0.0,0.0,0.0,0.0,0.0,0.0,0.0,0.0,0.0,0.0,0.0,0.0,0.0,0.0,0.0,0.0,0.0,0.0,-1.9802,-1.9846,-1.9781,-1.9671,-1.9671,-1.9605,0.0,0.0,0.0,0.0,0.0,0.0,0.0,0.0,0.0,0.0,0.0,0.0,0.0,0.0,0.0,0.0,0.0,0.0,0.0,0.0,0.0,0.0,0.0,0.0,0.0,0.0,0.0,0.0,0.0,0.0,0.0,0.0,0.0,0.0,0.0,0.0,0.0,0.0,0.0,0.0,0.0,0.0,0.0,0.0,0.0,0.0,0.0,0.0,0.0,0.0,0.0,0.0,0.0,0.0,0.0,0.0,0.0,0.0,0.0,0.0,0.0,0.0,0.0,0.0,0.0,0.0,0.0,0.0,0.0,0.0,0.0,0.0,0.0,0.0,0.0,0.0,0.0,0.0,0.0,0.0,0.0,0.0,0.0,0.0,0.0,0.0,0.0,0.0,0.0,0.0,0.0,0.0,0.0,0.0,0.0,0.0,0.0,0.0,0.0,0.0,0.0,0.0,0.0,0.0,0.0,0.0,0.0,0.0,-2.0118,-2.0324,-2.0377,-2.0442,-2.0442,-2.0129,-1.9922,0.0,0.0,0.0,0.0,0.0,0.0,0.0,0.0,0.0,0.0,0.0,0.0,0.0,0.0,0.0,0.0,0.0,0.0,0.0,0.0,0.0,0.0,0.0,0.0,0.0,0.0,0.0,0.0,0.0,0.0,0.0,0.0,0.0,0.0,0.0,0.0,0.0,0.0,0.0,0.0,0.0,0.0,0.0,0.0,0.0,0.0,0.0,0.0,0.0,0.0,0.0,0.0,0.0,0.0,0.0,0.0,0.0,0.0,0.0,0.0,0.0,0.0,0.0,0.0,0.0,0.0,0.0,0.0,0.0,0.0,0.0,0.0,0.0,0.0,0.0,0.0,0.0,0.0,0.0,0.0,0.0,0.0,0.0,0.0,0.0,0.0,0.0,0.0,0.0,0.0,0.0,0.0,0.0,0.0,0.0,0.0,0.0,0.0,0.0,0.0,0.0,0.0,0.0,0.0,0.0,0.0,0.0,0.0,-2.0453,-2.0982,-2.099,-2.1042,-2.1238,-2.0604,-2.0107,0.0,0.0,0.0,0.0,0.0,0.0,0.0,0.0,0.0,0.0,0.0,0.0,0.0,0.0,0.0,0.0,0.0,0.0,0.0,0.0,0.0,0.0,0.0,0.0,0.0,0.0,0.0,0.0,0.0,0.0,0.0,0.0,0.0,0.0,0.0,0.0,0.0,0.0,0.0,0.0,0.0,0.0,0.0,0.0,0.0,0.0,0.0,0.0,0.0,0.0,0.0,0.0,0.0,0.0,0.0,0.0,0.0,0.0,0.0,0.0,0.0,0.0,0.0,0.0,0.0,0.0,0.0,0.0,0.0,0.0,0.0,0.0,0.0,0.0,0.0,0.0,0.0,0.0,0.0,0.0,0.0,0.0,0.0,0.0,0.0,0.0,0.0,0.0,0.0,0.0,0.0,0.0,0.0,0.0,0.0,0.0,0.0,0.0,0.0,0.0,0.0,0.0,0.0,0.0,0.0,0.0,0.0,0.0,-2.1225,-2.1678,-2.1417,-2.1394,-2.1755,-2.1107,-2.0582,0.0,0.0,0.0,0.0,0.0,0.0,0.0,0.0,0.0,0.0,0.0,0.0,0.0,0.0,0.0,0.0,0.0,0.0,0.0,0.0,0.0,0.0,0.0,0.0,0.0,0.0,0.0,0.0,0.0,0.0,0.0,0.0,0.0,0.0,0.0,0.0,0.0,0.0,0.0,0.0,0.0,0.0,0.0,0.0,0.0,0.0,0.0,0.0,-2.0489,0.0,0.0,0.0,0.0,0.0,0.0,0.0,0.0,0.0,0.0,0.0,0.0,0.0,0.0,0.0,0.0,0.0,0.0,0.0,0.0,0.0,0.0,0.0,0.0,0.0,0.0,0.0,0.0,0.0,0.0,0.0,0.0,0.0,0.0,0.0,0.0,0.0,0.0,0.0,0.0,0.0,0.0,0.0,0.0,0.0,0.0,0.0,0.0,0.0,0.0,0.0,0.0,0.0,0.0,0.0,0.0,0.0,0.0,0.0,-2.1475,-2.2035,-2.1846,-2.195,-2.2347,-2.1712,-2.1088,0.0,0.0,0.0,0.0,0.0,0.0,0.0,0.0,0.0,0.0,0.0,0.0,0.0,0.0,0.0,0.0,0.0,0.0,0.0,0.0,0.0,0.0,0.0,0.0,0.0,0.0,0.0,0.0,0.0,0.0,0.0,0.0,0.0,0.0,0.0,0.0,0.0,0.0,0.0,0.0,0.0,0.0,0.0,0.0,0.0,0.0,0.0,0.0,0.0,0.0,0.0,0.0,0.0,0.0,0.0,0.0,0.0,0.0,0.0,0.0,0.0,0.0,0.0,0.0,0.0,0.0,0.0,0.0,0.0,0.0,0.0,0.0,0.0,0.0,0.0,0.0,0.0,0.0,0.0,0.0,0.0,0.0,0.0,0.0,0.0,0.0,0.0,0.0,0.0,0.0,0.0,0.0,0.0,0.0,0.0,0.0,0.0,0.0,0.0,0.0,0.0,0.0,0.0,0.0,0.0,0.0,0.0,-2.1163,-2.1666,-2.2283,-2.2317,-2.255,-2.2958,-2.2373,-2.1715,-2.098,0.0,0.0,0.0,0.0,0.0,0.0,0.0,0.0,0.0,0.0,0.0,0.0,0.0,0.0,0.0,0.0,0.0,0.0,0.0,0.0,0.0,0.0,0.0,0.0,0.0,0.0,0.0,0.0,0.0,0.0,0.0,0.0,0.0,0.0,0.0,0.0,0.0,0.0,-1.7343,-1.7887,0.0,0.0,0.0,0.0,0.0,0.0,0.0,0.0,-2.1502,0.0,0.0,0.0,0.0,0.0,0.0,0.0,0.0,0.0,0.0,0.0,0.0,0.0,0.0,0.0,0.0,0.0,0.0,0.0,0.0,0.0,0.0,0.0,0.0,0.0,0.0,0.0,0.0,0.0,0.0,0.0,0.0,0.0,0.0,0.0,0.0,0.0,0.0,0.0,0.0,0.0,0.0,0.0,0.0,0.0,0.0,0.0,0.0,0.0,0.0,0.0,0.0,0.0,0.0,0.0,0.0,-2.0495,-2.1518,-2.2306,-2.2794,-2.2805,-2.2925,-2.327,-2.2823,-2.2445,-2.206,0.0,0.0,0.0,0.0,0.0,0.0,0.0,0.0,0.0,0.0,0.0,0.0,0.0,0.0,0.0,0.0,0.0,0.0,0.0,0.0,0.0,0.0,0.0,0.0,0.0,0.0,0.0,0.0,0.0,0.0,0.0,0.0,0.0,0.0,0.0,0.0,0.0,0.0,0.0,-1.8594,-1.9311,0.0,0.0,0.0,0.0,0.0,0.0,0.0,0.0,-2.1731,0.0,0.0,0.0,0.0,0.0,0.0,0.0,0.0,0.0,0.0,0.0,0.0,0.0,0.0,0.0,0.0,0.0,0.0,0.0,0.0,0.0,0.0,0.0,0.0,0.0,0.0,0.0,0.0,0.0,0.0,0.0,0.0,0.0,0.0,0.0,0.0,0.0,0.0,0.0,0.0,0.0,0.0,0.0,0.0,0.0,0.0,0.0,0.0,0.0,0.0,0.0,0.0,0.0,0.0,0.0,-2.0907,-2.1843,-2.2547,-2.311,-2.3271,-2.3456,-2.3798,-2.3087,-2.2731,0.0,0.0,0.0,0.0,0.0,0.0,0.0,0.0,0.0,0.0,0.0,0.0,0.0,0.0,0.0,0.0,0.0,0.0,0.0,0.0,0.0,0.0,0.0,0.0,0.0,0.0,0.0,0.0,0.0,0.0,0.0,0.0,0.0,0.0,0.0,0.0,0.0,0.0,0.0,0.0,-1.924,-1.9636,-1.9775,0.0,0.0,0.0,0.0,0.0,0.0,-2.1731,-2.1807,0.0,0.0,0.0,0.0,0.0,0.0,0.0,0.0,0.0,0.0,0.0,0.0,0.0,0.0,0.0,0.0,0.0,0.0,0.0,0.0,0.0,0.0,0.0,0.0,0.0,0.0,0.0,0.0,0.0,0.0,0.0,0.0,0.0,0.0,0.0,0.0,0.0,0.0,0.0,0.0,0.0,0.0,0.0,0.0,0.0,0.0,0.0,0.0,0.0,0.0,0.0,0.0,0.0,0.0,0.0,-2.1397,-2.2128,-2.2798,-2.3349,-2.3699,-2.3941,-2.4166,-2.3408,-2.3028,0.0,0.0,0.0,0.0,0.0,0.0,0.0,0.0,0.0,0.0,0.0,0.0,0.0,0.0,0.0,0.0,0.0,0.0,0.0,0.0,0.0,0.0,0.0,0.0,0.0,0.0,0.0,0.0,0.0,0.0,0.0,0.0,0.0,0.0,0.0,0.0,0.0,0.0,0.0,0.0,0.0,-2.0112,-2.0751,-2.0987,0.0,0.0,0.0,0.0,-2.2066,-2.2004,0.0,0.0,0.0,0.0,0.0,0.0,0.0,0.0,0.0,0.0,0.0,0.0,0.0,0.0,0.0,0.0,0.0,0.0,0.0,0.0,0.0,0.0,0.0,0.0,0.0,0.0,0.0,0.0,0.0,0.0,0.0,0.0,0.0,0.0,0.0,0.0,0.0,0.0,0.0,0.0,0.0,0.0,0.0,0.0,0.0,0.0,0.0,0.0,0.0,0.0,0.0,0.0,0.0,0.0,0.0,0.0,-2.1333,-2.2587,-2.3315,-2.3395,-2.3879,-2.4143,-2.4189,-2.3929,-2.3677,0.0,0.0,0.0,0.0,0.0,0.0,0.0,0.0,0.0,0.0,0.0,0.0,0.0,0.0,0.0,0.0,0.0,0.0,0.0,0.0,0.0,0.0,0.0,0.0,0.0,0.0,0.0,0.0,0.0,0.0,0.0,0.0,0.0,0.0,0.0,0.0,0.0,0.0,0.0,0.0,0.0,-2.144,-2.2494,-2.2635,-2.2706,0.0,0.0,-2.272,-2.2967,-2.2835,0.0,0.0,0.0,0.0,0.0,0.0,0.0,0.0,0.0,0.0,0.0,0.0,0.0,0.0,0.0,0.0,0.0,0.0,0.0,0.0,0.0,0.0,0.0,0.0,0.0,0.0,0.0,0.0,0.0,0.0,0.0,0.0,0.0,0.0,0.0,0.0,0.0,0.0,0.0,0.0,0.0,0.0,0.0,0.0,0.0,0.0,0.0,0.0,0.0,0.0,0.0,0.0,0.0,0.0,0.0,-2.1535,-2.2046,-2.3021,-2.3652,-2.4022,-2.394,-2.3824,-2.3677,-2.3083,-2.2769,0.0,0.0,0.0,0.0,0.0,0.0,0.0,0.0,0.0,0.0,0.0,0.0,0.0,0.0,0.0,0.0,0.0,0.0,0.0,0.0,0.0,0.0,0.0,0.0,0.0,0.0,0.0,0.0,0.0,0.0,0.0,0.0,0.0,0.0,0.0,0.0,0.0,0.0,0.0,0.0,0.0,0.0,-2.2839,-2.2859,0.0,0.0,0.0,-2.3047,-2.3163,0.0,0.0,0.0,0.0,0.0,0.0,0.0,0.0,0.0,0.0,0.0,0.0,0.0,0.0,0.0,0.0,0.0,0.0,0.0,0.0,0.0,0.0,0.0,0.0,0.0,0.0,0.0,0.0,0.0,0.0,0.0,0.0,0.0,0.0,0.0,0.0,0.0,0.0,0.0,0.0,0.0,0.0,0.0,0.0,0.0,0.0,0.0,0.0,0.0,0.0,0.0,0.0,0.0,0.0,0.0,0.0,0.0,-2.2683,-2.3402,-2.3897,-2.42,-2.3813,-2.3446,-2.3065,-2.241,0.0,0.0,0.0,0.0,0.0,0.0,0.0,0.0,0.0,0.0,0.0,0.0,0.0,0.0,0.0,0.0,0.0,0.0,0.0,0.0,0.0,0.0,0.0,0.0,0.0,0.0,0.0,-1.673,0.0,0.0,0.0,0.0,0.0,0.0,0.0,0.0,0.0,0.0,0.0,0.0,0.0,0.0,-2.2714,-2.3268,-2.3279,-2.3361,0.0,0.0,-2.3564,-2.3515,-2.3504,-2.3523,0.0,0.0,0.0,0.0,0.0,0.0,0.0,0.0,0.0,0.0,0.0,0.0,0.0,0.0,0.0,0.0,0.0,0.0,0.0,0.0,0.0,0.0,0.0,0.0,0.0,0.0,0.0,0.0,0.0,0.0,0.0,0.0,0.0,0.0,0.0,0.0,0.0,0.0,0.0,0.0,0.0,0.0,0.0,0.0,0.0,0.0,0.0,0.0,0.0,0.0,0.0,0.0,0.0,0.0,-2.2723,-2.3032,-2.3728,-2.3886,-2.3457,-2.3519,-2.3224,-2.2478,-2.2371,-2.2124,0.0,0.0,0.0,0.0,0.0,0.0,0.0,0.0,0.0,0.0,0.0,0.0,0.0,0.0,0.0,0.0,0.0,0.0,0.0,0.0,0.0,0.0,0.0,0.0,0.0,0.0,0.0,0.0,0.0,0.0,0.0,0.0,0.0,0.0,0.0,0.0,0.0,0.0,0.0,0.0,0.0,-2.3625,-2.431,-2.4361,-2.4361,0.0,-2.443,-2.4388,-2.4385,-2.443,-2.424,-2.3919,0.0,0.0,0.0,0.0,0.0,0.0,0.0,0.0,0.0,0.0,0.0,0.0,0.0,0.0,0.0,0.0,0.0,0.0,0.0,0.0,0.0,0.0,0.0,0.0,0.0,0.0,0.0,0.0,0.0,0.0,0.0,0.0,0.0,0.0,0.0,0.0,0.0,0.0,0.0,0.0,0.0,0.0,0.0,0.0,0.0,0.0,0.0,0.0,0.0,0.0,0.0,0.0,0.0,-2.2553,-2.3001,-2.315,-2.3309,-2.3298,-2.2681,-2.2069,-2.1711,-2.1339,-2.0876,0.0,0.0,0.0,0.0,0.0,0.0,0.0,0.0,0.0,0.0,0.0,0.0,0.0,0.0,0.0,0.0,0.0,0.0,0.0,0.0,0.0,0.0,0.0,0.0,0.0,0.0,0.0,0.0,-1.6443,-1.6566,-1.7123,0.0,0.0,0.0,0.0,0.0,0.0,0.0,0.0,0.0,0.0,-2.4173,-2.4433,-2.455,0.0,0.0,-2.448,-2.4513,-2.4519,-2.449,-2.445,-2.4281,-2.4291,0.0,0.0,0.0,0.0,0.0,0.0,0.0,0.0,0.0,0.0,0.0,0.0,0.0,0.0,0.0,0.0,0.0,0.0,0.0,0.0,0.0,0.0,0.0,0.0,0.0,0.0,0.0,0.0,0.0,0.0,0.0,0.0,0.0,0.0,0.0,0.0,0.0,0.0,0.0,0.0,0.0,0.0,0.0,0.0,0.0,0.0,0.0,0.0,0.0,0.0,0.0,0.0,-2.2176,-2.2703,-2.2628,-2.2692,-2.2907,-2.2213,-2.1588,-2.1133,-2.0752,-2.0232,0.0,0.0,0.0,0.0,0.0,0.0,0.0,0.0,0.0,0.0,0.0,0.0,0.0,0.0,0.0,0.0,0.0,0.0,0.0,0.0,0.0,0.0,0.0,0.0,0.0,0.0,0.0,0.0,-1.7343,-1.7531,-1.8283,0.0,0.0,0.0,0.0,0.0,0.0,0.0,0.0,0.0,0.0,-2.4747,-2.4747,-2.4861,-2.4933,-2.4943,-2.4943,-2.502,-2.4943,-2.4933,-2.502,-2.4933,0.0,0.0,0.0,0.0,0.0,0.0,0.0,0.0,0.0,0.0,0.0,0.0,0.0,0.0,0.0,0.0,0.0,0.0,0.0,0.0,0.0,0.0,0.0,0.0,0.0,0.0,0.0,0.0,0.0,0.0,-2.2132,0.0,0.0,0.0,0.0,0.0,0.0,0.0,0.0,0.0,0.0,0.0,0.0,0.0,0.0,0.0,0.0,0.0,0.0,0.0,0.0,0.0,0.0,-2.1731,-2.2101,-2.2262,-2.2321,-2.2124,-2.2302,-2.1898,-2.0951,-2.1102,-2.0678,-1.9664,0.0,0.0,0.0,0.0,0.0,0.0,0.0,0.0,0.0,0.0,0.0,0.0,0.0,0.0,0.0,0.0,0.0,0.0,0.0,0.0,0.0,0.0,0.0,0.0,0.0,0.0,-1.8682,-1.9033,-1.9272,0.0,0.0,0.0,0.0,0.0,0.0,0.0,0.0,0.0,0.0,-2.4486,-2.5202,-2.5213,-2.5575,-2.5792,-2.5802,-2.6003,-2.6104,-2.5823,-2.6014,-2.6124,0.0,0.0,0.0,0.0,0.0,0.0,0.0,0.0,0.0,0.0,0.0,0.0,0.0,0.0,0.0,0.0,0.0,0.0,0.0,0.0,0.0,0.0,0.0,0.0,0.0,0.0,0.0,-2.448,-2.4029,0.0,0.0,0.0,0.0,0.0,0.0,0.0,0.0,0.0,0.0,0.0,-2.0996,-2.0859,0.0,0.0,0.0,0.0,0.0,0.0,0.0,0.0,0.0,0.0,0.0,0.0,-2.1282,-2.1665,-2.1798,-2.1855,-2.1928,-2.1727,-2.1457,-2.1139,-2.0618,-2.0186,-1.9813,0.0,0.0,0.0,0.0,0.0,0.0,0.0,0.0,0.0,0.0,0.0,0.0,0.0,0.0,0.0,0.0,0.0,0.0,0.0,0.0,0.0,0.0,0.0,0.0,0.0,-1.8973,0.0,0.0,0.0,0.0,0.0,0.0,0.0,0.0,0.0,0.0,0.0,-2.3357,-2.388,-2.4435,-2.4805,-2.5192,-2.5357,-2.5451,0.0,0.0,0.0,0.0,0.0,0.0,0.0,0.0,0.0,0.0,0.0,0.0,0.0,0.0,-2.5061,-2.4633,-2.4452,-2.4462,-2.4462,0.0,0.0,0.0,0.0,0.0,0.0,0.0,0.0,0.0,0.0,0.0,0.0,0.0,0.0,-2.536,0.0,-2.4421,0.0,0.0,0.0,0.0,0.0,0.0,0.0,0.0,-2.1271,-2.1066,-2.123,-2.1094,-2.1094,0.0,-2.124,-2.1172,0.0,0.0,0.0,0.0,0.0,0.0,0.0,0.0,-2.1202,-2.1534,-2.1551,-2.1757,-2.1997,-2.1684,-2.1484,-2.14,-2.0588,-2.0136,-2.0136,-2.0225,-2.0395,0.0,0.0,0.0,0.0,0.0,0.0,0.0,0.0,0.0,0.0,0.0,0.0,0.0,0.0,0.0,0.0,0.0,0.0,0.0,0.0,0.0,0.0,0.0,-1.9451,0.0,0.0,0.0,0.0,0.0,0.0,0.0,0.0,0.0,-2.2748,-2.3057,-2.3399,-2.383,-2.4439,-2.4943,-2.5399,0.0,0.0,0.0,0.0,0.0,0.0,0.0,-2.6351,-2.6361,-2.6095,-2.5702,-2.5346,-2.5498,-2.5732,-2.5732,0.0,0.0,-2.4782,-2.4496,-2.4402,-2.4392,-2.4134,-2.4054,-2.425,-2.4239,-2.4256,0.0,0.0,0.0,0.0,0.0,0.0,0.0,0.0,-2.6609,-2.6318,0.0,-2.5351,0.0,0.0,0.0,0.0,0.0,-2.2505,0.0,0.0,-2.135,-2.171,-2.2412,-2.21,-2.2139,-2.251,-2.251,-2.2201,-2.1524,-2.0965,0.0,0.0,0.0,0.0,0.0,0.0,-2.133,-2.15,-2.1762,-2.21,-2.248,-2.2273,-2.2102,-2.1721,-2.093,-2.0558,-2.0539,-2.0567,-2.0473,-2.0482,-2.0331,0.0,0.0,0.0,0.0,0.0,0.0,0.0,0.0,0.0,0.0,0.0,0.0,0.0,0.0,0.0,0.0,0.0,0.0,0.0,0.0,-1.9988,0.0,0.0,0.0,0.0,0.0,0.0,0.0,0.0,0.0,0.0,-2.2749,-2.321,-2.3438,-2.3509,0.0,0.0,0.0,0.0,-2.6724,-2.7138,-2.7241,-2.7241,-2.7241,-2.7241,-2.7241,-2.7241,0.0,0.0,-2.582,-2.5732,-2.5635,-2.5635,-2.5235,-2.4941,-2.5245,-2.4992,-2.4786,-2.4599,-2.389,-2.352,-2.4026,-2.4168,-2.4187,-2.8322,0.0,0.0,0.0,0.0,-2.6625,-2.7078,-2.7934,-2.7311,-2.7125,-2.7081,-2.653,0.0,0.0,0.0,0.0,0.0,0.0,-2.297,-2.2472,-2.2426,-2.2409,-2.251,-2.2695,-2.2842,-2.2959,-2.2959,-2.2658,-2.2249,-2.1987,-2.1714,-2.126,0.0,0.0,0.0,0.0,-2.1607,-2.1545,-2.2035,-2.2213,-2.1997,-2.2197,-2.2032,-2.1299,-2.1379,-2.1245,-2.0952,-2.0869,-2.0846,-2.0846,-2.0501,0.0,0.0,0.0,0.0,0.0,0.0,0.0,0.0,0.0,0.0,0.0,0.0,0.0,0.0,0.0,0.0,0.0,0.0,0.0,-2.0561,-2.0124,-2.0011,0.0,0.0,0.0,0.0,0.0,0.0,0.0,0.0,0.0,-2.3532,-2.3401,-2.3658,0.0,0.0,-2.5412,-2.6299,-2.6311,-2.6351,-2.6484,0.0,0.0,0.0,-2.7071,-2.7262,-2.7081,-2.6572,-2.6167,-2.5723,-2.5732,-2.5538,-2.5245,-2.5039,-2.482,-2.4601,-2.4426,-2.4458,-2.4637,-2.4026,-2.3628,-2.443,-2.4233,-2.3935,-2.8768,-2.8064,-2.7753,-2.7508,-2.7271,-2.7029,-2.7342,-2.8037,-2.771,-2.7575,-2.7615,-2.7138,-2.6467,-2.5779,-2.52,0.0,0.0,0.0,-2.3527,-2.3038,-2.3028,-2.3034,-2.3018,-2.3096,-2.3232,-2.3379,-2.3223,-2.2921,-2.2419,-2.2591,-2.238,-2.1854,0.0,0.0,-2.1729,-2.1884,-2.1971,-2.1813,-2.2207,-2.2332,-2.2159,-2.2381,-2.2283,-2.1671,-2.1907,-2.1826,-2.1491,-2.1434,-2.1396,-2.1245,-2.0881,-2.0629,0.0,0.0,0.0,0.0,0.0,0.0,0.0,0.0,0.0,0.0,0.0,-1.9934,-2.0163,0.0,0.0,0.0,-2.052,-2.0789,-2.0497,-2.0172,0.0,0.0,0.0,0.0,0.0,0.0,0.0,-2.2981,-2.299,-2.324,-2.3828,-2.3653,-2.3821,-2.4679,-2.4977,-2.5411,-2.6135,0.0,-2.6465,-2.665,-2.6907,-2.6986,-2.689,-2.6986,-2.7027,-2.6687,-2.6328,-2.5986,-2.5637,-2.5486,-2.5324,-2.5123,-2.4922,-2.4693,-2.4427,-2.4164,-2.4095,-2.4509,-2.4003,-2.3688,-2.4307,-2.4197,-2.4068,-2.9068,-2.8925,-2.8546,-2.8124,-2.7817,-2.7682,-2.7681,-2.7765,-2.7838,-2.7869,-2.794,-2.7242,-2.6644,-2.6168,-2.5009,0.0,-2.398,-2.4211,-2.3902,-2.3233,-2.3491,-2.3614,-2.376,-2.3418,-2.3447,-2.3828,-2.3467,-2.3017,-2.2634,-2.2859,-2.284,-2.2596,-2.2215,-2.1884,-2.1669,-2.2034,-2.2246,-2.2294,-2.2387,-2.2596,-2.2821,-2.2734,-2.2658,-2.2452,-2.2479,-2.2375,-2.209,-2.209,-2.1931,-2.1671,-2.134,-2.1072,-2.0724,0.0,0.0,0.0,0.0,0.0,0.0,0.0,0.0,0.0,0.0,0.0,0.0,0.0,0.0,0.0,-1.9926,0.0,-1.9771,-2.0254,0.0,0.0,0.0,-2.1848,-2.1456,-2.2048,-2.2494,-2.2495,0.0,0.0,-2.371,-2.3755,-2.3808,-2.4113,-2.4672,-2.5318,-2.5728,-2.6309,-2.6723,-2.6999,-2.7092,-2.7133,-2.6972,-2.682,-2.6691,-2.6359,-2.6058,-2.579,-2.5498,-2.531,-2.5194,-2.5081,-2.4814,-2.4412,-2.4439,-2.4,-2.3823,-2.4069,-2.3903,-2.3745,-2.3816,-2.4123,-2.434,-2.9537,-2.9232,-2.9012,-2.847,-2.7779,-2.7432,-2.7548,-2.7936,-2.7615,-2.7956,-2.8586,-2.7708,-2.6907,-2.6163,-2.5134,-2.4652,-2.4616,-2.4626,-2.4257,-2.3703,-2.4016,-2.4094,-2.3799,-2.4014,-2.417,-2.4277,-2.4502,-2.4341,-2.3958,-2.4092,-2.4185,-2.3939,-2.3635,-2.321,-2.2785,-2.2689,-2.2715,-2.2843,-2.2848,-2.2975,-2.3121,-2.2758,-2.2568,-2.247,-2.2289,-2.2194,-2.2099,-2.1995,-2.1847,-2.1751,-2.1301,-2.0933,-2.083,-2.0546,0.0,0.0,0.0,0.0,0.0,0.0,0.0,0.0,0.0,-2.0103,-2.0124,0.0,-1.9972,0.0,-1.9734,-2.0031,-2.0328,-2.02,0.0,0.0,-2.0794,-2.1253,-2.1565,-2.2098,-2.2603,-2.2798,-2.2915,-2.305,-2.3438,-2.3356,-2.3311,-2.361,-2.4676,-2.5622,-2.574,-2.6316,-2.6446,-2.5995,-2.5898,-2.5884,-2.5705,-2.5762,-2.5999,-2.6356,-2.604,-2.5638,-2.5609,-2.5439,-2.5023,-2.4491,-2.4175,-2.3963,-2.371,-2.3661,-2.3888,-2.4208,-2.3977,-2.3868,-2.4193,-2.4298,-2.4175,-2.9378,-2.9275,-2.904,-2.8697,-2.8233,-2.7851,-2.7921,-2.839,-2.8096,-2.8315,-2.889,-2.7905,-2.6993,-2.6267,-2.5306,-2.4834,-2.4786,-2.4605,-2.4384,-2.4283,-2.4604,-2.4687,-2.4658,-2.4687,-2.4707,-2.4697,-2.457,-2.4473,-2.4249,-2.4204,-2.4111,-2.4054,-2.3961,-2.3648,-2.32,-2.3181,-2.3195,-2.3148,-2.3065,-2.3075,-2.3198,-2.2835,-2.2619,-2.2699,-2.2611,-2.2416,-2.2319,-2.2212,-2.2037,-2.1873,-2.1414,-2.1045,-2.0883,-2.0506,-2.0292,0.0,0.0,0.0,0.0,0.0,0.0,0.0,0.0,0.0,0.0,0.0,-2.0039,-2.0069,-2.0087,-2.0303,-2.0794,-2.0637,-2.0627,-2.0834,-2.1105,-2.1319,-2.1728,-2.2105,-2.2426,-2.2736,-2.2736,-2.2946,-2.3347,-2.3138,-2.3147,-2.3555,-2.4579,-2.5277,-2.5296,-2.5794,-2.601,-2.5681,-2.5661,-2.5599,-2.5405,-2.5488,-2.5702,-2.5869,-2.5601,-2.533,-2.5245,-2.521,-2.4826,-2.4278,-2.4162,-2.4013,-2.3676,-2.3828,-2.4132,-2.4241,-2.4268,-2.4321,-2.4611,-2.4503,-2.436,-2.9052,-2.9052,-2.8882,-2.8803,-2.8724,-2.8327,-2.8521,-2.8939,-2.8716,-2.8761,-2.89,-2.781,-2.7071,-2.6636,-2.5475,-2.4995,-2.4956,-2.4486,-2.4483,-2.4809,-2.4987,-2.5244,-2.545,-2.5166,-2.499,-2.4866,-2.4287,-2.3968,-2.4121,-2.3731,-2.3658,-2.3824,-2.3768,-2.3683,-2.3391,-2.3664,-2.3533,-2.3222,-2.3079,-2.2985,-2.3116,-2.2832,-2.2804,-2.3029,-2.2946,-2.2846,-2.2653,-2.2653,-2.2398,-2.2073,-2.1696,-2.1345,-2.1037,-2.0651,-2.0429,0.0,-2.0754,0.0,0.0,0.0,0.0,0.0,0.0,0.0,0.0,-1.9783,-2.0166,-2.0832,-2.0646,-2.0664,-2.0964,-2.1148,-2.1326,-2.1514,-2.1623,-2.1725,-2.1928,-2.2021,-2.2123,-2.2333,-2.2426,-2.2636,-2.3155,-2.3046,-2.3147,-2.3573,-2.3989,-2.4427,-2.459,-2.5182,-2.5646,-2.5806,-2.5872,-2.5598,-2.5417,-2.5368,-2.5409,-2.5219,-2.5013,-2.482,-2.4801,-2.4718,-2.4582,-2.4351,-2.4206,-2.4119,-2.3809,-2.4024,-2.4359,-2.4256,-2.4556,-2.4761,-2.477,-2.4753,-2.482,-2.8961,-2.887,-2.8803,-2.8724,-2.8498,-2.8259,-2.8399,-2.8575,-2.8196,-2.8152,-2.8138,-2.7589,-2.7244,-2.7013,-2.6064,-2.5595,-2.5563,-2.5467,-2.531,-2.5045,-2.5124,-2.4828,-2.4378,-2.4477,-2.4365,-2.403,-2.4381,-2.4421,-2.4307,-2.4256,-2.4319,-2.4403,-2.4305,-2.4207,-2.4003,0.0,0.0,0.0,-2.3162,-2.3359,-2.3331,-2.3041,-2.2968,-2.2946,-2.2846,0.0,-2.2653,-2.2653,-2.2518,-2.2441,-2.2081,0.0,0.0,0.0,0.0,0.0,0.0,0.0,0.0,0.0,0.0,0.0,-1.9691,-1.9582,-1.9575,-1.959,-1.9776,-2.0098,-2.0514,-2.0727,-2.0625,-2.0775,-2.1019,-2.1019,-2.1019,-2.1121,-2.1428,-2.142,-2.1522,-2.1827,-2.203,-2.2241,-2.2274,-2.246,-2.2662,-2.2805,-2.2932,-2.3201,-2.3791,-2.493,-2.5487,-2.4999,-2.488,-2.4747,-2.455,-2.4585,-2.4749,-2.4777,-2.4591,-2.4411,-2.4437,-2.4359,-2.4178,-2.3817,-2.3697,-2.3593,-2.3247,-2.3585,-2.4033,-2.4033,-2.4368,-2.4821,-2.4821,-2.4821,-2.4795,-2.8736,0.0,-2.8657,-2.8643,0.0,-2.8559,-2.8726,-2.8893,-2.8716,-2.8888,-2.9178,-2.8287,-2.7791,-2.7708,-2.6288,-2.5575,-2.5592,-2.5185,-2.5078,-2.5068,-2.4993,-2.4888,-2.4869,-2.4869,-2.4698,-2.4517,-2.4612,-2.4631,-2.4619,-2.4337,-2.4235,-2.4322,-2.4242,-2.3945,-2.3538,-2.3438,-2.3249,-2.3054,-2.315,-2.3147,-2.3147,-2.2946,-2.2854,-2.2745,0.0,0.0,0.0,0.0,0.0,0.0,0.0,0.0,0.0,0.0,0.0,-2.1021,-2.1029,-2.0644,-1.9868,-1.9937,-1.9805,-1.9179,-1.9343,-1.9426,-1.963,-1.9732,-1.9951,-2.0155,-2.0617,-2.0814,-2.0719,-2.0925,-2.1121,-2.1121,-2.1121,-2.1121,-2.1232,-2.1385,-2.1409,-2.162,-2.1952,-2.2283,-2.2282,-2.246,-2.2537,-2.2308,-2.2528,-2.2817,-2.3334,-2.4032,-2.4393,-2.417,-2.4258,-2.4175,-2.409,-2.4105,-2.4136,-2.4231,-2.4153,-2.4169,-2.4016,-2.3913,-2.3809,-2.3593,-2.348,-2.336,-2.3127,-2.3352,-2.3689,-2.3697,-2.4033,-2.4368,-2.4368,-2.4599,-2.4821,-2.857,-2.8643,-2.8575,-2.8793,-2.9024,-2.8941,-2.908,-2.9402,0.0,0.0,0.0,-2.8811,-2.8215,-2.807,-2.6388,-2.5575,-2.5451,-2.4814,-2.475,-2.5081,-2.4813,-2.5006,-2.543,-2.5235,-2.5137,-2.502,-2.4697,-2.461,-2.4618,-2.4105,-2.3813,-2.3917,-2.3746,-2.3447,-2.3046,-2.2745,-2.2854,-2.3247,-2.3046,-2.2955,-2.2946,-2.2745,-2.2653,-2.2653,-2.2653,-2.2653,-2.2653,-2.2653,-2.2653,-2.2644,-2.2252,-2.2098,-2.2081,-2.179,-2.1417,-2.0834,-2.0736,-2.0345,-1.9269,-1.9421,-1.937,-1.8979,-1.9125,-1.9376,-1.9576,-1.9879,-2.0086,-2.0308,-2.0617,-2.0822,-2.0822,-2.1019,-2.1224,-2.1224,-2.1224,-2.1224,-2.124,-2.1267,-2.1322,-2.1464,-2.1828,-2.2241,-2.2247,-2.2434,-2.239,-2.2155,-2.2339,-2.2758,-2.302,-2.3352,-2.3628,-2.385,-2.3966,-2.3896,-2.3913,-2.3801,-2.3792,-2.3672,-2.3817,-2.3825,-2.3552,-2.3536,-2.344,-2.3352,-2.336,-2.3247,-2.3135,-2.3247,-2.348,-2.348,-2.3689,-2.3921,-2.3921,-2.4256,-2.4599,-2.8775,-2.9184,-2.8939,-2.9154,-2.9557,-2.911,-2.9155,-2.9431,-2.9167,-2.9022,-2.8937,-2.8112,-2.7604,-2.7326,-2.6406,-2.5818,-2.5344,-2.5179,-2.5082,0.0,-2.4846,-2.4777,-2.4637,-2.4637,-2.444,-2.4044,-2.3881,-2.3782,-2.3637,-2.3493,-2.3393,-2.3238,-2.3347,-2.3247,-2.3046,-2.2946,-2.2846,-2.2754,-2.2653,-2.2644,-2.2653,-2.2644,-2.2653,-2.2653,-2.2653,-2.2653,-2.2653,-2.2653,-2.2653,-2.2653,-2.2593,-2.2466,-2.2466,-2.2407,-2.2189,-2.1577,-2.1568,-2.1063,-2.0043,-1.9987,-1.9811,-1.931,-1.925,-1.9272,-1.9376,-1.9576,-1.9783,-1.9783,-2.0308,-2.0514,-2.0617,-2.0814,-2.1027,-2.1027,-2.0925,-2.0925,-2.1027,-2.0988,-2.1012,-2.1043,-2.1296,-2.1409,-2.1304,-2.1628,-2.1899,-2.1857,-2.2171,-2.2542,-2.2904,-2.3447,-2.378,-2.3888,-2.3921,-2.3921,-2.3801,-2.3697,-2.3601,-2.3593,-2.3376,-2.3287,-2.3167,-2.3167,-2.3175,-2.3135,-2.3167,-2.3038,-2.3022,-2.3239,-2.3472,-2.3472,-2.3689,-2.3801,-2.3801,-2.3921,-2.4144,-2.8998,-2.9451,-2.9236,-2.9435,-2.9746,-2.96,-2.9587,-2.9703,-2.9374,-2.9116,-2.8865,-2.8131,-2.7411,-2.6744,-2.5994,-2.5421,-2.5137,-2.5039,-2.5039,-2.4932,-2.4735,-2.4735,-2.4735,-2.4538,-2.443,-2.4134,-2.4035,-2.3836,-2.3655,-2.3447,-2.3256,-2.3046,-2.2946,-2.2955,-2.2736,-2.2745,-2.2745,-2.2653,-2.2653,-2.2653,-2.2653,-2.2653,-2.2653,-2.2653,-2.2653,-2.2653,-2.2653,-2.2653,-2.2653,-2.2653,-2.2241,-2.2139,-2.2131,-2.1835,-2.142,-2.0909,-2.0806,-2.0498,-1.968,-1.968,-1.9576,-1.9286,-1.944,-1.9567,-1.9487,-1.968,-1.9776,-1.9879,-2.03,-2.0522,-2.0727,-2.0822,-2.0925,-2.0925,-2.0925,-2.0925,-2.0948,-2.1107,-2.1123,-2.0996,-2.1362,-2.1442,-2.0964,-2.1562,-2.2045,-2.1892,-2.2209,-2.2465,-2.267,-2.3126,-2.3464,-2.3352,-2.3239,-2.3247,-2.3368,-2.331,-2.3326,-2.3287,-2.3165,-2.3146,-2.3308,-2.3446,-2.3446,-2.3308,-2.3292,-2.322,-2.307,-2.3127,-2.3247,-2.3247,-2.3352,-2.3464,-2.3464,-2.3585,-2.3809,-2.9,-2.9486,-2.9256,-2.9351,-2.9658,-2.9726,-2.9772,-2.9783,-2.9393,-2.9013,-2.8746,-2.8175,-2.7315,-2.6264,-2.5616,-2.5137,-2.4843,-2.4833,-2.4843,-2.4745,-2.4538,-2.4538,-2.4735,-2.444,-2.4332,-2.4233,-2.3935,-2.3737,-2.3546,-2.3356,-2.3147,-2.2946,-2.2636,-2.2653,-2.2653,-2.2653,-2.2653,-2.2653,-2.2653,-2.2653,-2.2653,-2.2653,-2.2653,-2.2653,-2.2653,-2.2653,-2.2653,-2.2653,-2.2653,-2.2552,-2.203,-2.1725,-2.1725,-2.1216,-2.0609,-2.0189,-2.0086,-1.9917,-1.9486,-1.9381,-1.9381,-1.9389,-1.9616,-1.9758,-1.9732,-1.9867,-2.003,-2.0228,-2.0411,-2.0624,-2.0822,-2.0925,-2.0925,-2.0925,-2.0925,-2.0925,-2.0948,-2.1163,-2.1234,-2.1036,-2.1465,-2.16,-2.1282,-2.1682,-2.2207,-2.2191,-2.2296,-2.2482,-2.2617,-2.2855,-2.2998,-2.2901,-2.2683,-2.2683,-2.2812,-2.2879,-2.3056,-2.3198,-2.3099,-2.3194,-2.3387,-2.3688,-2.3705,-2.3379,-2.3395,-2.3284,-2.307,-2.3014,-2.3014,-2.3022,-2.3127,-2.3014,-2.3127,-2.3352,-2.3809,-2.8514,-2.8775,-2.857,-2.8694,-2.9181,-2.9171,-2.9263,-2.9463,-2.8713,-2.8143,-2.7778,-2.7694,-2.6924,-2.579,-2.5421,-2.503,-2.4538,-2.4529,-2.444,-2.4251,-2.4251,-2.4251,-2.4251,-2.4044,-2.3746,-2.3546,-2.3247,-2.3046,-2.2846,-2.2754,-2.2653,-2.2644,-2.2653,-2.2653,-2.2653,-2.2653,-2.2653,-2.2653,-2.2653,-2.2653,-2.2653,-2.2653,-2.2653,-2.2653,-2.2653,-2.2653,-2.2653,-2.2653,-2.2653,-2.2544,-2.2038,-2.1733,-2.1632,-2.124,-2.0617,-2.0205,-2.0101,-2.0008,-1.9788,-1.9718,-1.9718,-1.9725,-1.9755,-1.9869,-1.9839,-2.029,-2.0529,-2.05,-2.0442,-2.064,-2.0822,-2.0925,-2.0925,-2.0925,-2.0925,-2.0925,-2.0933,-2.0948,-2.0948,-2.0933,-2.133,-2.1344,-2.1102,-2.1636,-2.2193,-2.2448,-2.245,-2.2633,-2.2855,-2.295,-2.2901,-2.2683,-2.257,-2.2456,-2.2343,-2.2472,-2.293,-2.3667,-2.3376,-2.3165,-2.3197,-2.3165,-2.3085,-2.3276,-2.3157,-2.3133,-2.3054,-2.3014,-2.3014,-2.3014,-2.3014,-2.3014,-2.3022,-2.3472,-2.3921,-2.9183,-2.9561,-2.9133,-2.8992,-2.9036,-2.879,-2.8754,-2.8828,-2.856,-2.7799,-2.7051,-2.6955,-2.6274,-2.5226,-2.4932,-2.4637,-2.4341,-2.4152,-2.4044,-2.3945,-2.3746,-2.3746,-2.3746,-2.3646,-2.3447,-2.3356,-2.3147,-2.2946,-2.2854,-2.2644,-2.2653,-2.2653,-2.2653,-2.2653,-2.2653,-2.2653,-2.2653,-2.2653,-2.2653,-2.2653,-2.2653,-2.2653,-2.2653,-2.2653,-2.2653,-2.2653,-2.2653,-2.2653,-2.2342,-2.1843,-2.1401,-2.1099,-2.081,-2.0476,-2.027,-2.0156,-2.0156,-2.0108,-2.004,-2.0047,-2.004,-2.004,-2.0148,-2.0256,-2.0249,-2.0808,-2.1071,-2.0841,-2.0821,-2.0836,-2.0862,-2.0925,-2.0925,-2.0925,-2.0925,-2.0925,-2.0925,-2.1107,-2.1234,-2.125,-2.1536,-2.1743,-2.1676,-2.2177,-2.2654,-2.272,-2.2799,-2.2855,-2.2998,-2.3014,-2.2901,-2.2683,-2.2456,-2.223,-2.2124,-2.2421,-2.2803,-2.322,-2.3504,-2.334,-2.304,-2.3324,-2.3348,-2.3308,-2.3276,-2.3181,-2.3046,-2.3022,-2.3014,-2.3014,-2.3022,-2.3022,-2.3239,-2.3472,-2.3809,-2.9201,-2.9294,-2.8925,-2.8656,-2.8594,-2.8252,-2.8178,-2.8258,-2.8102,-2.7441,-2.6496,-2.6207,-2.5518,-2.4735,-2.443,-2.4242,-2.4053,-2.3854,-2.3646,-2.3655,-2.3447,-2.3456,-2.3456,-2.3456,-2.3347,-2.3247,-2.3046,-2.2946,-2.2846,-2.2745,-2.2653,-2.2653,-2.2653,-2.2653,-2.2653,-2.2653,-2.2544,-2.2443,-2.2443,-2.2443,-2.2342,-2.2241,-2.2241,-2.2544,-2.2544,-2.2443,-2.2241,-2.2139,-2.1827,-2.1019,-2.0628,-2.0385,-2.0067,-1.9686,-1.9578,-1.978,-1.9968,-2.0055,-2.0127,-2.0032,-2.0149,-2.0259,-2.0369,-2.0582,-2.0706,-2.1315,-2.1424,-2.1106,-2.1325,-2.1357,-2.0924,-2.0964,-2.0925,-2.0948,-2.0925,-2.0925,-2.0941,-2.1234,-2.1433,-2.1375,-2.1822,-2.2156,-2.2267,-2.2734,-2.2999,-2.295,-2.2998,-2.3014,-2.3014,-2.3014,-2.2901,-2.257,-2.223,-2.2116,-2.2017,-2.2154,-2.2467,-2.2658,-2.304,-2.2988,-2.2774,-2.3043,-2.3181,-2.2741,-2.3119,-2.3225,-2.298,-2.2909,-2.3014,-2.3014,-2.3014,-2.3022,-2.3247,-2.336,-2.3585,-2.7967,-2.7402,-2.6909,-2.7101,-2.7381,-2.737,-2.7612,-2.7904,-2.7326,-2.6774,-2.6304,-2.5392,-2.4726,-2.4125,-2.4106,-2.4035,-2.3845,-2.3546,-2.3456,-2.3456,-2.3356,-2.3356,-2.3456,-2.3356,-2.3247,-2.3046,-2.2955,-2.2846,-2.2644,-2.2653,-2.2653,-2.2544,-2.2544,-2.2552,-2.2544,-2.2552,-2.2443,-2.2131,-2.2156,-2.2046,-2.175,-2.1248,-2.1579,-2.241,-2.2232,-2.1827,-2.1428,-2.1121,-2.0712,-2.0189,-1.9725,-1.956,-1.9582,-1.8978,-1.8674,-1.9034,-1.9315,-1.9597,-1.9836,-1.9893,-2.0019,-2.0251,-2.0348,-2.0467,-2.0662,-2.1399,-2.1645,-2.1145,-2.1719,-2.1884,-2.116,-2.1028,-2.1,-2.0941,-2.0862,-2.0869,-2.0862,-2.1249,-2.1328,-2.1478,-2.2084,-2.2537,-2.2879,-2.2974,-2.2974,-2.3006,-2.3014,-2.3014,-2.3014,-2.3014,-2.2796,-2.2456,-2.2116,-2.2002,-2.1782,-2.185,-2.1971,-2.2162,-2.2276,-2.2283,-2.2139,-2.2131,-2.226,-2.2389,-2.2663,-2.2769,-2.2706,-2.2788,-2.2901,-2.3014,-2.3014,-2.3127,-2.3239,-2.336,-2.3544,-2.7491,-2.7108,-2.6551,-2.6649,-2.7088,-2.6933,-2.6964,-2.703,-2.6955,-2.638,-2.547,-2.4648,-2.4287,-2.4125,-2.3386,-2.3215,-2.3538,-2.3247,-2.3147,-2.3147,-2.2946,-2.2846,-2.2846,-2.2846,-2.2846,-2.2745,-2.2754,-2.2745,-2.2653,-2.2653,-2.2443,-2.2333,-2.2333,-2.2232,-2.203,-2.2038,-2.1928,-2.1852,-2.2051,-2.1977,-2.1474,-2.1457,-2.1576,-2.1544,-2.1131,-2.0696,-2.049,-2.0395,-2.0086,-1.9346,-1.9237,-1.9198,-1.8992,-1.8982,-1.9066,-1.9199,-1.9472,-1.9689,-1.9808,-1.999,-2.0223,-2.033,-2.0274,-2.0272,-2.0489,-2.087,-2.1048,-2.1018,-2.1279,-2.146,-2.1284,-2.1163,-2.1186,-2.1093,-2.1046,-2.1031,-2.1116,-2.1356,-2.1565,-2.1643,-2.2237,-2.2806,-2.2998,-2.3038,-2.303,-2.3054,-2.3038,-2.3022,-2.3014,-2.3014,-2.2901,-2.2675,-2.2335,-2.2116,-2.2343,-2.1896,-2.1782,-2.1722,-2.1707,-2.1828,-2.1813,-2.2093,-2.2237,-2.2374,-2.2585,-2.2683,-2.2675,-2.2675,-2.2788,-2.2788,-2.2788,-2.2788,-2.3239,-2.3127,-2.3127,-2.706,-2.6775,-2.6216,-2.6147,-2.6546,-2.651,-2.6422,-2.6465,-2.6607,-2.6021,-2.4783,-2.4228,-2.3888,-2.3493,-2.2796,-2.2696,-2.312,-2.2946,-2.2846,-2.2846,-2.2644,-2.2653,-2.2653,-2.2653,-2.2653,-2.2653,-2.2653,-2.2544,-2.2434,-2.2434,-2.23,-2.2205,-2.2214,-2.2178,-2.2047,-2.1965,-2.1845,-2.1778,-2.1804,-2.1586,-2.0971,-2.0956,-2.0854,-2.0476,-1.9898,-1.9775,-1.9971,-1.9873,-1.9459,-1.8851,-1.8919,-1.8822,-1.8646,-1.892,-1.914,-1.9161,-1.9209,-1.9444,-1.936,-1.9728,-1.9846,-1.987,-1.9801,-1.9899,-2.0107,-2.0245,-2.0369,-2.0634,-2.09,-2.1167,-2.1145,-2.1262,-2.1447,-2.1162,-2.1202,-2.1209,-2.1116,-2.1603,-2.1945,-2.2196,-2.2631,-2.2925,-2.2949,-2.278,-2.278,-2.2941,-2.3038,-2.3022,-2.3014,-2.3014,-2.3022,-2.2909,-2.257,-2.2456,-2.2456,-2.2116,-2.1645,-2.1487,-2.1487,-2.1465,-2.1563,-2.1957,-2.2214,-2.2351,-2.2585,-2.257,-2.2562,-2.2554,-2.2441,-2.2441,-2.2207,-2.2093,-2.2441,-2.2562,-2.2566,-2.6604,-2.6498,-2.5615,-2.5474,-2.5836,-2.6083,-2.6175,-2.6245,-2.6335,-2.5624,-2.4477,-2.4029,-2.339,-2.2628,-2.2432,-2.249,-2.2593,-2.2544,-2.2544,-2.2644,-2.2653,-2.2544,-2.2544,-2.2544,-2.2552,-2.2544,-2.2552,-2.2342,-2.2131,-2.2181,-2.2247,-2.2316,-2.2278,-2.2427,-2.27,-2.2346,-2.2022,-2.166,-2.1329,-2.0811,-2.0186,-1.9835,-1.9541,-1.9416,-1.894,-1.903,-1.9654,-1.9414,-1.905,-1.8644,-1.8561,-1.8484,-1.8561,-1.8594,-1.8484,-1.8601,-1.8628,-1.8517,-1.8564,-1.8937,-1.9131,-1.9067,-1.9001,-1.9278,-1.9693,-1.9864,-1.9974,-2.0274,-2.0796,-2.107,-2.0913,-2.1301,-2.1466,-2.1152,-2.1324,-2.1332,-2.1347,-2.1861,-2.2617,-2.279,-2.2901,-2.3014,-2.2885,-2.262,-2.25,-2.2901,-2.3022,-2.3014,-2.3014,-2.3014,-2.2909,-2.2691,-2.2456,-2.2222,-2.2335,-2.2222,-2.1744,-2.1388,-2.141,-2.141,-2.1274,-2.1524,-2.1531,-2.1774,-2.1881,-2.1873,-2.1987,-2.1979,-2.1752,-2.1638,-2.1402,-2.1517,-2.1752,-2.1858,-2.1586,-2.5805,-2.6055,-2.5606,-2.564,-2.5971,-2.5931,-2.5862,-2.5777,-2.5577,-2.4944,-2.41,-2.3268,-2.2912,-2.2857,-2.2223,-2.2093,-2.2518,-2.2131,-2.2241,-2.2544,-2.2552,-2.2443,-2.2333,-2.2443,-2.2434,-2.2232,-2.203,-2.1928,-2.1868,-2.2084,-2.2187,-2.2102,-2.2234,-2.229,-2.2288,-2.2175,-2.1977,-2.185,-2.1558,-2.1133,-2.0581,-2.021,-1.9749,-1.9421,-1.9206,-1.9314,-1.9407,-1.9033,-1.8712,-1.851,-1.8497,-1.8601,-1.8712,-1.8601,-1.8594,-1.8725,-1.8796,-1.8791,-1.8824,-1.9038,-1.9165,-1.9199,-1.9186,-1.9312,-1.9479,-1.9535,-1.9759,-2.0115,-2.046,-2.0688,-2.102,-2.1252,-2.1321,-2.1151,-2.1234,-2.1309,-2.1302,-2.1421,-2.176,-2.2085,-2.2222,-2.2585,-2.2851,-2.2691,-2.2644,-2.2812,-2.2925,-2.3014,-2.3014,-2.2901,-2.2796,-2.2343,-2.2108,-2.1873,-2.1645,-2.1531,-2.1174,-2.1052,-2.1189,-2.1469,-2.1332,-2.0952,-2.1074,-2.1074,-2.1189,-2.1296,-2.141,-2.1296,-2.1067,-2.106,-2.1174,-2.1174,-2.1174,-2.1045,-2.0902,-2.548,-2.5859,-2.5513,-2.5503,-2.5694,-2.5648,-2.55,-2.5179,-2.4865,-2.4347,-2.3583,-2.2788,-2.251,-2.2559,-2.19,-2.1811,-2.2207,-2.1818,-2.1928,-2.2232,-2.2241,-2.2139,-2.203,-2.2131,-2.2139,-2.1928,-2.1827,-2.1623,-2.1546,-2.1786,-2.1869,-2.1836,-2.2041,-2.2272,-2.2148,-2.1939,-2.1869,-2.168,-2.11,-2.0659,-2.0231,-2.0064,-1.9822,-1.9482,-1.9366,-1.9366,-1.9339,-1.8998,-1.8811,-1.8818,-1.8818,-1.8924,-1.903,-1.8949,-1.8867,-1.9013,-1.9122,-1.9203,-1.9142,-1.9219,-1.9368,-1.93,-1.9152,-1.9072,-1.9122,-1.9088,-1.9319,-1.9759,-2.0089,-2.0358,-2.0764,-2.1038,-2.1196,-2.1203,-2.1296,-2.1432,-2.1554,-2.1439,-2.1539,-2.1888,-2.1995,-2.2253,-2.2632,-2.2609,-2.2554,-2.2578,-2.2578,-2.2449,-2.2449,-2.2328,-2.1987,-2.1653,-2.1303,-2.096,-2.0838,-2.0723,-2.0608,-2.0723,-2.096,-2.1369,-2.1513,-2.0759,-2.05,-2.0615,-2.0723,-2.0723,-2.0838,-2.05,-2.0277,-2.05,-2.0608,-2.0385,-2.027,-2.0385,-2.0242,-2.5358,-2.5658,-2.5318,-2.4993,-2.4858,-2.5233,-2.4976,-2.4343,-2.4361,-2.3754,-2.2903,-2.2493,-2.2073,-2.1768,-2.1603,-2.1662,-2.1676,-2.1623,-2.1623,-2.1623,-2.1623,-2.1623,-2.1717,-2.1733,-2.1623,-2.1725,-2.1623,-2.1522,-2.124,-2.137,-2.1441,-2.1513,-2.1829,-2.2096,-2.2143,-2.178,-2.1465,-2.1166,-2.0274,-1.9777,-1.955,-1.9475,-1.9482,-1.9366,-1.9366,-1.9366,-1.9352,-1.9305,-1.9312,-1.9352,-1.9292,-1.9279,-1.9401,-1.9428,-1.9285,-1.9391,-1.9611,-1.9619,-1.9459,-1.9449,-1.9384,-1.9081,-1.8949,-1.8648,-1.9097,-1.904,-1.9152,-1.9577,-1.9857,-1.9998,-2.0422,-2.0815,-2.1074,-2.1211,-2.1203,-2.1546,-2.1767,-2.1546,-2.131,-2.1531,-2.1744,-2.1752,-2.204,-2.1881,-2.1737,-2.1722,-2.1866,-2.1759,-2.1524,-2.141,-2.0952,-2.0608,-2.0385,-2.0263,-2.0148,-1.9917,-1.9802,-2.0033,-2.0263,-2.0536,-2.1046,-2.0413,-2.0046,-2.0155,-2.0148,-2.027,-2.0155,-1.9931,-1.9707,-1.97,-1.9584,-1.9482,-1.9482,-1.9707,-1.9809,-2.499,-2.5267,-2.5293,-2.5005,-2.4782,-2.4967,-2.4654,-2.4076,-2.3773,-2.3267,-2.2581,-2.2088,-2.1862,-2.1686,-2.1476,-2.1347,-2.1412,-2.1224,-2.1121,-2.1121,-2.1121,-2.1318,-2.1522,-2.1326,-2.1224,-2.1326,-2.1224,-2.113,-2.1051,-2.1274,-2.1328,-2.1465,-2.1663,-2.1775,-2.1472,-2.1467,-2.1294,-2.0845,-2.0437,-2.0044,-2.0012,-1.9577,-1.9366,-1.9366,-1.9359,-1.9359,-1.9366,-1.9366,-1.9366,-1.9366,-1.9366,-1.9482,-1.9577,-1.9503,-1.9449,-1.9672,-1.9786,-1.9658,-1.9489,-1.9631,-1.9638,-1.9597,-1.9401,-1.9576,-1.9911,-1.9911,-2.0025,-2.026,-2.0345,-2.0373,-2.0744,-2.0795,-2.0723,-2.0622,-2.0622,-2.05,-2.0263,-2.0026,-1.991,-2.0019,-2.0256,-2.0507,-2.063,-2.073,-2.0702,-2.0673,-2.0802,-2.1067,-2.0831,-2.0723,-2.0378,-2.0033,-1.9802,-1.9455,-1.9339,-1.9107,-1.8997,-1.9113,-1.9339,-1.9448,-1.9707,-1.9679,-1.9577,-1.9591,-1.9693,-1.9693,-1.9584,-1.9352,-1.9127,-1.9243,-1.9243,-1.9366,-1.9366,-1.9482,-1.9591,-2.4181,-2.4533,-2.4593,-2.4565,-2.4431,-2.4466,-2.4174,-2.361,-2.3229,-2.2719,-2.2224,-2.1827,-2.1623,-2.1522,-2.1318,-2.1224,-2.1121,-2.0925,-2.0814,-2.0712,-2.0719,-2.1027,-2.1224,-2.1019,-2.1019,-2.1121,-2.1019,-2.0925,-2.098,-2.117,-2.1144,-2.0911,-2.1293,-2.1125,-2.0572,-2.0552,-2.0508,-2.0115,-1.9913,-1.9738,-1.9631,-1.9408,-1.9272,-1.9292,-1.9272,-1.9219,-1.9332,-1.9366,-1.9366,-1.9366,-1.9366,-1.9482,-1.9591,-1.9591,-1.9591,-1.9815,-1.9931,-1.9883,-1.9679,-1.9733,-1.9747,-1.9793,-1.9828,-1.9917,-2.0141,-2.027,-2.0378,-2.0019,-2.004,-2.0155,-2.0155,-2.0148,-1.991,-1.957,-1.9455,-1.9455,-1.9325,-1.9325,-1.9325,-1.9325,-1.9448,-1.9577,-1.9707,-1.9809,-1.9781,-1.9761,-1.9998,-2.0012,-1.9903,-1.991,-1.9917,-1.9455,-1.9113,-1.8887,-1.8765,-1.8655,-1.8648,-1.8765,-1.8874,-1.8861,-1.8997,-1.9216,-1.91,-1.912,-1.912,-1.912,-1.912,-1.912,-1.9243,-1.9359,-1.9366,-1.9366,-1.9366,-1.9366,-1.9366,-2.3322,-2.3522,-2.356,-2.3711,-2.3734,-2.3731,-2.3296,-2.2885,-2.2728,-2.2232,-2.1623,-2.1623,-2.142,-2.1216,-2.1224,-2.113,-2.0822,-2.0822,-2.0617,-2.0514,-2.0514,-2.0719,-2.0822,-2.0917,-2.0917,-2.0925,-2.0925,-2.0925,-2.0877,-2.0938,-2.069,-2.0412,-2.0598,-2.0245,-1.9791,-1.9462,-1.94,-1.9257,-1.9061,-1.8978,-1.8998,-1.8891,-1.9005,-1.9212,-1.9172,-1.9172,-1.9312,-1.9366,-1.9366,-1.9366,-1.9366,-1.9366,-1.9482,-1.9707,-1.97,-1.9815,-1.9917,-2.005,-1.9849,-1.9773,-1.9793,-1.9883,-1.9901,-2.0026,-2.0371,-2.0507,-2.0392,-1.9938,-1.97,-1.9577,-1.9229,-1.9216,-1.9107,-1.8765,-1.8532,-1.8648,-1.8984,-1.9094,-1.9094,-1.9087,-1.9094,-1.9094,-1.9094,-1.9094,-1.921,-1.9094,-1.921,-1.9441,-1.9216,-1.9223,-1.8997,-1.8765,-1.8428,-1.8206,-1.8317,-1.8311,-1.8421,-1.8532,-1.8635,-1.8752,-1.8907,-1.8907,-1.8648,-1.8648,-1.912,-1.912,-1.8997,-1.9113,-1.9359,-1.9249,-1.9249,-1.9249,-1.9372,-1.9366,-1.9366,-2.2862,-2.2677,-2.2991,-2.2884,-2.2631,-2.2629,-2.2382,-2.2021,-2.1717,-2.142,-2.0925,-2.1019,-2.0917,-2.0719,-2.0814,-2.0822,-2.0617,-2.0514,-2.0403,-2.0189,-2.0411,-2.0522,-2.0624,-2.0822,-2.0925,-2.0925,-2.0925,-2.0925,-2.0862,-2.079,-2.0592,-2.0162,-1.9934,-1.9754,-1.8816,-1.8828,-1.878,-1.8408,-1.843,-1.8577,-1.8584,-1.8591,-1.8711,-1.8971,-1.9125,-1.9272,-1.9339,-1.9366,-1.9366,-1.9366,-1.9339,-1.9299,-1.9475,-1.9482,-1.9475,-1.9591,-1.97,-1.9781,-1.9598,-1.969,-1.9883,-2.0109,-2.0153,-2.0373,-2.096,-2.0859,-2.0867,-2.0637,-2.0169,-1.9461,-1.8874,-1.91,-1.8868,-1.8415,-1.8305,-1.8181,-1.8058,-1.7948,-1.8064,-1.7941,-1.7941,-1.7948,-1.7948,-1.8305,-1.8421,-1.8421,-1.8648,-1.8874,-1.8758,-1.8648,-1.8532,-1.8538,-1.8428,-1.8317,-1.8428,-1.8538,-1.8538,-1.8655,-1.8642,-1.8752,-1.8914,-1.9037,-1.8894,-1.9004,-1.9249,-1.9127,-1.8991,-1.912,-1.9366,-1.9133,-1.901,-1.9127,-1.9243,-1.9366,-1.9366,-2.2245,-2.1917,-2.2199,-2.2222,-2.2176,-2.2215,-2.2021,-2.176,-2.1725,-2.1113,-2.0506,-2.0609,-2.0514,-2.03,-2.0506,-2.0395,-2.03,-2.0205,-2.0094,-2.0086,-2.03,-2.0411,-2.0522,-2.0719,-2.0925,-2.0917,-2.0719,-2.0719,-2.0506,-2.0395,-1.9894,-1.9354,-1.9361,-1.8876,-1.8108,-1.8174,-1.8129,-1.7996,-1.8123,-1.8283,-1.8283,-1.8283,-1.8323,-1.8537,-1.8784,-1.8958,-1.8938,-1.8945,-1.8951,-1.8965,-1.8971,-1.9105,-1.9319,-1.9366,-1.9366,-1.9482,-1.9475,-1.9496,-1.9266,-1.9374,-1.9711,-1.9839,-2.0025,-2.0252,-2.0465,-2.0515,-2.0277,-1.9931,-1.9352,-1.8881,-1.8298,-1.8292,-1.8292,-1.8064,-1.7954,-1.7837,-1.7602,-1.7479,-1.7485,-1.7485,-1.7726,-1.7843,-1.7849,-1.7966,-1.8077,-1.8305,-1.8415,-1.8642,-1.8765,-1.8648,-1.8765,-1.8765,-1.8538,-1.8538,-1.8765,-1.8765,-1.8771,-1.8887,-1.901,-1.9127,-1.9256,-1.9256,-1.9243,-1.9243,-1.9133,-1.912,-1.8997,-1.9243,-1.9249,-1.9127,-1.9004,-1.912,-1.912,-1.9243,-1.9366,-2.1472,-2.1302,-2.1302,-2.1568,-2.202,-2.19,-2.1752,-2.1566,-2.1615,-2.0901,-2.0292,-2.03,-2.03,-2.0086,-2.0078,-2.0078,-1.9983,-1.9879,-1.9879,-1.9879,-2.0086,-2.0197,-2.0411,-2.0719,-2.0925,-2.0925,-2.0617,-2.0403,-2.0292,-1.9879,-1.9465,-1.8736,-1.8422,-1.8213,-1.7799,-1.7589,-1.7728,-1.7675,-1.7856,-1.7976,-1.7976,-1.7976,-1.8009,-1.817,-1.841,-1.8571,-1.8584,-1.8571,-1.8537,-1.8497,-1.8497,-1.8764,-1.9085,-1.9285,-1.9374,-1.9354,-1.9381,-1.9462,-1.9287,-1.9341,-1.9388,-1.9432,-1.9583,-1.9632,-1.9781,-1.9802,-1.9461,-1.8997,-1.8648,-1.8305,-1.7602,-1.7596,-1.7713,-1.7602,-1.7608,-1.7602,-1.759,-1.7578,-1.764,-1.7608,-1.7726,-1.7732,-1.7966,-1.8089,-1.8194,-1.8305,-1.8415,-1.8415,-1.8532,-1.8648,-1.8881,-1.8881,-1.8771,-1.8894,-1.9004,-1.912,-1.912,-1.9127,-1.9249,-1.9372,-1.9372,-1.9366,-1.9243,-1.9004,-1.8887,-1.8997,-1.9113,-1.9243,-1.9249,-1.9004,-1.912,-1.912,-1.9243,-1.9236,-1.9359,-2.0835,-2.0835,-2.0835,-2.109,-2.1345,-2.0829,-2.0761,-2.0845,-2.049,-1.9983,-1.9879,-2.0078,-1.996,-1.9887,-1.9975,-1.9975,-1.9783,-1.968,-1.9576,-1.968,-1.9879,-2.0086,-2.03,-2.0617,-2.0822,-2.0822,-2.0617,-2.0514,-2.0403,-2.0094,-1.9264,-1.8959,-1.8639,-1.8108,-1.7687,-1.7589,-1.7589,-1.7589,-1.7675,-1.7709,-1.7709,-1.7716,-1.7802,-1.7989,-1.825,-1.8377,-1.8444,-1.847,-1.8497,-1.8497,-1.849,-1.8531,-1.8651,-1.8838,-1.8978,-1.909,-1.9448,-1.9638,-1.948,-1.9432,-1.9462,-1.9516,-1.9388,-1.9158,-1.9272,-1.9325,-1.9107,-1.8991,-1.8532,-1.8071,-1.7602,-1.7485,-1.7726,-1.7849,-1.7824,-1.7929,-1.8002,-1.7999,-1.7815,-1.7805,-1.7763,-1.7726,-1.8083,-1.8323,-1.8305,-1.8415,-1.8532,-1.8648,-1.8655,-1.8771,-1.9004,-1.912,-1.912,-1.9127,-1.9249,-1.9249,-1.9366,-1.9243,-1.9366,-1.9366,-1.9366,-1.9366,-1.9249,-1.9127,-1.9127,-1.9243,-1.9366,-1.9366,-1.9243,-1.9004,-1.912,-1.9249,-1.9243,-1.912,-1.9359,-2.0473,-2.0473,-2.0473,-2.0812,-2.1058,-2.0644,-2.0563,-2.0735,-2.013,-1.9736,-1.959,-1.9618,-1.9626,-1.9539,-1.9576,-1.9576,-1.9576,-1.948,-1.948,-1.9583,-1.9783,-2.0094,-2.03,-2.0617,-2.0411,-2.03,-2.0101,-2.0094,-1.9998,-1.9049,-1.8632,-1.8422,-1.8108,-1.7793,-1.7687,-1.7589,-1.7589,-1.7589,-1.7589,-1.7589,-1.7589,-1.7589,-1.7689,-1.7809,-1.7929,-1.8009,-1.8023,-1.8023,-1.8016,-1.8003,-1.8009,-1.8016,-1.8116,-1.8406,-1.8773,-1.9145,-1.9532,-1.9731,-1.9583,-1.9374,-1.9219,-1.9074,-1.8744,-1.8635,-1.8609,-1.8532,-1.8525,-1.8409,-1.8298,-1.7954,-1.7732,-1.7726,-1.796,-1.8052,-1.7958,-1.7987,-1.8026,-1.7831,-1.7831,-1.8033,-1.8078,-1.8083,-1.8323,-1.8434,-1.8421,-1.8532,-1.8635,-1.8745,-1.8739,-1.8964,-1.9061,-1.912,-1.912,-1.912,-1.9249,-1.9366,-1.9366,-1.9366,-1.9366,-1.9366,-1.9366,-1.9366,-1.9366,-1.9366,-1.9366,-1.9366,-1.9366,-1.9366,-1.9243,-1.9004,-1.9243,-1.9249,-1.9127,-1.9127,-1.9366,-2.0201,-2.0201,-2.0201,-2.0509,-2.0878,-2.0627,-2.0514,-2.0569,-2.0023,-1.96,-1.931,-1.9169,-1.9184,-1.931,-1.9272,-1.9272,-1.9272,-1.9279,-1.9376,-1.9576,-1.9776,-2.0094,-2.0308,-2.0522,-2.0411,-1.9983,-1.9569,-1.9465,-1.9153,-1.8422,-1.7898,-1.7898,-1.7793,-1.7589,-1.7589,-1.7589,-1.7589,-1.7589,-1.7589,-1.7589,-1.7589,-1.7589,-1.7589,-1.7589,-1.7589,-1.7615,-1.7655,-1.7662,-1.7662,-1.7655,-1.7635,-1.7714,-1.7741,-1.8143,-1.8659,-1.9271,-1.9661,-1.9728,-1.9516,-1.9325,-1.908,-1.8648,-1.8305,-1.8071,-1.7954,-1.796,-1.7843,-1.7602,-1.7608,-1.7726,-1.796,-1.791,-1.7983,-1.8153,-1.7849,-1.7559,-1.7843,-1.7834,-1.783,-1.8013,-1.8216,-1.8346,-1.83,-1.8378,-1.8211,-1.8244,-1.8345,-1.8692,-1.8685,-1.8948,-1.909,-1.9203,-1.9243,-1.912,-1.9243,-1.9249,-1.9366,-1.9366,-1.9366,-1.9366,-1.9366,-1.9366,-1.9366,-1.9366,-1.9366,-1.9366,-1.9366,-1.9366,-1.9243,-1.9243,-1.9366,-1.9366,-1.9243,-1.9243,-1.9366,-1.9754,-1.9936,-1.9936,-2.0163,-2.0481,-2.0135,-2.0083,-2.02,-1.9388,-1.9074,-1.9213,-1.8942,-1.9045,-1.9213,-1.9272,-1.9272,-1.9272,-1.9272,-1.9376,-1.9576,-1.9776,-2.0086,-2.0292,-2.0712,-2.03,-1.9879,-1.925,-1.893,-1.8624,-1.8115,-1.8016,-1.8115,-1.7793,-1.7589,-1.7589,-1.7589,-1.7589,-1.7589,-1.7589,-1.7589,-1.7589,-1.7589,-1.7589,-1.7589,-1.7589,-1.7589,-1.7589,-1.7589,-1.7589,-1.7589,-1.7582,-1.7694,-1.7918,-1.7714,-1.8178,-1.8961,-1.9647,-2.0069,-1.9601,-1.9327,-1.8874,-1.8298,-1.7948,-1.7719,-1.7602,-1.7602,-1.7602,-1.7485,-1.7713,-1.7929,-1.7983,-1.7834,-1.7861,-1.785,-1.7698,-1.7671,-1.7811,-1.7624,-1.7624,-1.7869,-1.8064,-1.8033,-1.8046,-1.8043,-1.7976,-1.8007,-1.8088,-1.8444,-1.8689,-1.899,-1.9057,-1.9067,-1.9243,-1.9243,-1.912,-1.9243,-1.9366,-1.9366,-1.9366,-1.9366,-1.9366,-1.9366,-1.9366,-1.9366,-1.9366,-1.9366,-1.9366,-1.9366,-1.9359,-1.9359,-1.9366,-1.9366,-1.9366,-1.9366,-1.9366,-1.9571,-1.9936,-1.9754,-1.9962,-2.0218,-1.9926,-1.9768,-1.9673,-1.8917,-1.8701,-1.8891,-1.8657,-1.8782,-1.9199,-1.9272,-1.9272,-1.9272,-1.9272,-1.948,-1.968,-1.9879,-2.0086,-2.0498,-2.0609,-2.03,-1.9569,-1.9153,-1.8534,-1.8115,-1.7799,-1.7701,-1.7905,-1.7793,-1.7589,-1.7589,-1.7589,-1.7589,-1.7589,-1.7589,-1.7589,-1.7589,-1.7589,-1.7589,-1.7589,-1.7589,-1.7589,-1.7589,-1.7589,-1.7589,-1.7589,-1.7483,-1.7378,-1.749,-1.7424,-1.7749,-1.8293,-1.8911,-1.9149,-1.9004,-1.8912,-1.8512,-1.8064,-1.7596,-1.7485,-1.7485,-1.7473,-1.7596,-1.7726,-1.7689,-1.7859,-1.8033,-1.7919,-1.8043,-1.8026,-1.7629,-1.7747,-1.7727,-1.7512,-1.7495,-1.7642,-1.7909,-1.7895,-1.7945,-1.8066,-1.7985,-1.7993,-1.8065,-1.8372,-1.8777,-1.905,-1.9123,-1.8971,-1.912,-1.9243,-1.9243,-1.9127,-1.9366,-1.9366,-1.9366,-1.9366,-1.9366,-1.9366,-1.9366,-1.9366,-1.9366,-1.9366,-1.9366,-1.9366,-1.9366,-1.9366,-1.9366,-1.9366,-1.9366,-1.9366,-1.9359,-1.9371,-1.9837,-1.9762,-1.9736,-1.9915,-1.9782,-1.9626,-1.9167,-1.858,-1.8496,-1.8686,-1.865,-1.8869,-1.9184,-1.9272,-1.9272,-1.9272,-1.9272,-1.9576,-1.9776,-1.9983,-2.0197,-2.0506,-2.0506,-1.9887,-1.8938,-1.8952,-1.8429,-1.7694,-1.7378,-1.7483,-1.7589,-1.7694,-1.7589,-1.7589,-1.7589,-1.7589,-1.7589,-1.7589,-1.7589,-1.7589,-1.7589,-1.7589,-1.7589,-1.7589,-1.7589,-1.7589,-1.7589,-1.7589,-1.7589,-1.7483,-1.7378,-1.7384,-1.7192,-1.7274,-1.7689,-1.7981,-1.8036,-1.8129,-1.8222,-1.8052,-1.7713,-1.7467,-1.7449,-1.7364,-1.7388,-1.7499,-1.7824,-1.7809,-1.7919,-1.8159,-1.8097,-1.804,-1.7877,-1.7668,-1.7685,-1.7694,-1.7443,-1.7351,-1.7596,-1.7729,-1.7682,-1.7809,-1.8117,-1.8112,-1.7987,-1.8118,-1.848,-1.8771,-1.9058,-1.909,-1.8905,-1.9087,-1.921,-1.9094,-1.91,-1.9229,-1.9461,-1.9461,-1.9366,-1.9366,-1.9366,-1.9366,-1.9366,-1.9366,-1.9366,-1.9366,-1.9366,-1.9366,-1.9366,-1.9366,-1.9366,-1.9366,-1.9366,-1.9359,-1.9288,-1.9936,-1.9845,-1.9679,-1.9293,-1.9702,-1.9314,-1.8667,-1.837,-1.8467,-1.8752,-1.9023,-1.9125,-1.9264,-1.9272,-1.9272,-1.9272,-1.9272,-1.948,-1.9783,-1.9983,-2.0197,-2.0403,-2.03,-1.9887,-1.9264,-1.8952,-1.8325,-1.7687,-1.7483,-1.7589,-1.7589,-1.7589,-1.7589,-1.7589,-1.7589,-1.7589,-1.7589,-1.7589,-1.7589,-1.7589,-1.7589,-1.7589,-1.7582,-1.7582,-1.7589,-1.7589,-1.7582,-1.7589,-1.7483,-1.7378,-1.7272,-1.7166,-1.6955,-1.6933,-1.7091,-1.7091,-1.7122,-1.7399,-1.7921,-1.804,-1.7713,-1.7436,-1.7328,-1.7141,-1.7129,-1.7352,-1.7734,-1.7798,-1.8122,-1.8253,-1.819,-1.8007,-1.7816,-1.7626,-1.7475,-1.741,-1.7377,-1.7397,-1.7595,-1.7589,-1.7589,-1.7615,-1.7915,-1.7886,-1.7767,-1.7939,-1.8293,-1.8459,-1.8751,-1.8897,-1.8915,-1.913,-1.9163,-1.9047,-1.9021,-1.9158,-1.932,-1.9367,-1.9428,-1.9366,-1.9366,-1.9366,-1.9366,-1.9366,-1.9366,-1.9366,-1.9366,-1.9366,-1.9366,-1.9366,-1.9366,-1.9366,-1.9366,-1.9366,-1.9188,-1.9463,-1.9463,-1.9371,-1.9244,-1.9582,-1.9174,-1.8153,-1.8274,-1.8364,-1.8511,-1.8825,-1.9089,-1.922,-1.9272,-1.9272,-1.9272,-1.9272,-1.948,-1.968,-1.9983,-2.0292,-2.0403,-2.0403,-2.0197,-1.9376,-1.8959,-1.8429,-1.7687,-1.7589,-1.7589,-1.7589,-1.7589,-1.7589,-1.7589,-1.7589,-1.7589,-1.7589,-1.7589,-1.7589,-1.7589,-1.7582,-1.7694,-1.7799,-1.7687,-1.7694,-1.7694,-1.7265,-1.7265,-1.7166,-1.6849,-1.6849,-1.6849,-1.6418,-1.6448,-1.6556,-1.6515,-1.6585,-1.6869,-1.742,-1.7634,-1.7377,-1.7225,-1.7129,-1.6893,-1.72,-1.752,-1.778,-1.7963,-1.8259,-1.8638,-1.8282,-1.7919,-1.7774,-1.7615,-1.7331,-1.7378,-1.7378,-1.7378,-1.7589,-1.7589,-1.7589,-1.7622,-1.7702,-1.7689,-1.7662,-1.7883,-1.8103,-1.829,-1.8457,-1.8592,-1.8765,-1.8965,-1.8951,-1.8717,-1.8818,-1.9038,-1.9159,-1.9388,-1.9361,-1.9319,-1.9366,-1.9366,-1.9366,-1.9366,-1.9366,-1.9366,-1.9366,-1.9366,-1.9366,-1.9366,-1.9366,-1.9366,-1.9366,-1.9366,-1.9104,-1.9188,-1.918,-1.9096,-1.9084,-1.928,-1.8716,-1.7784,-1.8008,-1.8152,-1.8189,-1.8584,-1.8899,-1.9103,-1.9242,-1.9272,-1.9272,-1.9272,-1.948,-1.968,-1.9983,-2.0189,-2.03,-2.0205,-1.9791,-1.9168,-1.875,-1.822,-1.7687,-1.7589,-1.7589,-1.7589,-1.7589,-1.7589,-1.7589,-1.7589,-1.7589,-1.7589,-1.7589,-1.7694,-1.7694,-1.7687,-1.7793,-1.801,-1.7905,-1.7694,-1.7694,-1.7371,-1.7054,-1.6955,-1.6636,-1.6318,-1.6211,-1.6135,-1.6114,-1.6127,-1.6266,-1.6374,-1.6628,-1.6923,-1.7153,-1.7002,-1.6978,-1.6833,-1.6818,-1.6967,-1.7204,-1.7696,-1.794,-1.8235,-1.8619,-1.8253,-1.8001,-1.7882,-1.7649,-1.7483,-1.7483,-1.7483,-1.7589,-1.7589,-1.7589,-1.7589,-1.7602,-1.7629,-1.7622,-1.7595,-1.7695,-1.7916,-1.8116,-1.8263,-1.8397,-1.8531,-1.8617,-1.8577,-1.8524,-1.8604,-1.8718,-1.8945,-1.9172,-1.9293,-1.9252,-1.9312,-1.9366,-1.9366,-1.9366,-1.9366,-1.9366,-1.9366,-1.9366,-1.9366,-1.9352,-1.9332,-1.9366,-1.9366,-1.9366,-1.9004,-1.918,-1.9188,-1.8912,-1.8582,-1.8642,-1.813,-1.7478,-1.7677,-1.7845,-1.794,-1.846,-1.8767,-1.8884,-1.9103,-1.9317,-1.9272,-1.9279,-1.9376,-1.968,-1.9983,-1.9983,-1.9783,-1.9583,-1.9368,-1.8527,-1.8213,-1.8003,-1.7589,-1.7589,-1.7589,-1.7589,-1.7589,-1.7589,-1.7589,-1.7589,-1.7589,-1.7589,-1.7589,-1.7806,-1.7806,-1.7694,-1.7898,-1.8115,-1.7905,-1.7589,-1.7589,-1.7265,-1.6948,-1.6736,-1.653,-1.6318,-1.6217,-1.6217,-1.6141,-1.594,-1.6145,-1.6254,-1.632,-1.6573,-1.667,-1.6706,-1.67,-1.6685,-1.6368,-1.6448,-1.6844,-1.7495,-1.7573,-1.7877,-1.8084,-1.825,-1.811,-1.7969,-1.7742,-1.7589,-1.7589,-1.7589,-1.7589,-1.7589,-1.7589,-1.7589,-1.7589,-1.7589,-1.7595,-1.7589,-1.7589,-1.7722,-1.7929,-1.8023,-1.811,-1.815,-1.8223,-1.823,-1.8217,-1.8357,-1.851,-1.8764,-1.8931,-1.9011,-1.9287,-1.9421,-1.9461,-1.9359,-1.9366,-1.9366,-1.9366,-1.9366,-1.9366,-1.9359,-1.9305,-1.9292,-1.9332,-1.9285,-1.9178,-1.9096,-1.9188,-1.8912,-1.8635,-1.8497,-1.8714,-1.8195,-1.7471,-1.7457,-1.7611,-1.7816,-1.8296,-1.8537,-1.8817,-1.9088,-1.9258,-1.9332,-1.9272,-1.9376,-1.9472,-1.9857,-1.9776,-1.9576,-1.9472,-1.9257,-1.8632,-1.8108,-1.7793,-1.7589,-1.7589,-1.7589,-1.7589,-1.7589,-1.7589,-1.7589,-1.7589,-1.7589,-1.7687,-1.7799,-1.7911,-1.8023,-1.7799,-1.7793,-1.8115,-1.7582,-1.7265,-1.7272,-1.6948,-1.663,-1.6424,-1.6211,-1.6004,-1.6004,-1.6111,-1.5998,-1.5891,-1.6018,-1.6012,-1.603,-1.6151,-1.6247,-1.646,-1.6521,-1.6527,-1.6294,-1.6863,-1.7239,-1.7405,-1.7694,-1.8064,-1.8424,-1.8203,-1.8056,-1.7989,-1.7809,-1.7642,-1.7589,-1.7589,-1.7589,-1.7589,-1.7589,-1.7589,-1.7589,-1.7589,-1.7589,-1.7589,-1.7589,-1.7589,-1.7742,-1.7736,-1.7769,-1.7769,-1.7809,-1.7842,-1.7903,-1.8029,-1.8094,-1.8098,-1.8512,-1.8877,-1.9072,-1.9381,-1.9455,-1.9366,-1.9366,-1.9366,-1.9366,-1.9366,-1.9366,-1.9345,-1.9199,-1.9125,-1.9125,-1.8965,-1.8738,-1.9104,-1.9012,-1.8819,-1.8635,-1.8388,-1.8402,-1.7886,-1.7347,-1.7333,-1.7457,-1.764,-1.8059,-1.8327,-1.8592,-1.8992,-1.919,-1.9241,-1.9241,-1.9375,-1.939,-1.9603,-1.9457,-1.9317,-1.9339,-1.8736,-1.8318,-1.8108,-1.7898,-1.7589,-1.7589,-1.7589,-1.7589,-1.7589,-1.7589,-1.7589,-1.7589,-1.7694,-1.7799,-1.7911,-1.8122,-1.8128,-1.8016,-1.7793,-1.7799,-1.7483,-1.6955,-1.6855,-1.653,-1.6105,-1.6111,-1.5897,-1.5684,-1.5891,-1.5998,-1.5998,-1.5992,-1.5885,-1.5891,-1.591,-1.6028,-1.615,-1.6127,-1.6476,-1.6504,-1.6373,-1.6801,-1.718,-1.7492,-1.7892,-1.8107,-1.8257,-1.7921,-1.7943,-1.7876,-1.7809,-1.7635,-1.7589,-1.7589,-1.7589,-1.7589,-1.7589,-1.7589,-1.7589,-1.7589,-1.7589,-1.7589,-1.7589,-1.7595,-1.7595,-1.7589,-1.7589,-1.7602,-1.7609,-1.7675,-1.7695,-1.7702,-1.7675,-1.7668,-1.815,-1.8644,-1.9105,-1.9448,-1.9468,-1.9366,-1.9366,-1.9366,-1.9366,-1.9366,-1.9325,-1.9165,-1.8931,-1.8891,-1.8911,-1.8698,-1.8424,-1.8827,-1.8827,-1.9096,-1.8727,-1.8079,-1.7643,-1.7347,-1.7333,-1.7333,-1.734,-1.7362,-1.7963,-1.8252,-1.8312,-1.8859,-1.9132,-1.9117,-1.9102,-1.9162,-1.932,-1.9265,-1.9023,-1.8736,-1.8483,-1.8157,-1.7823,-1.7647,-1.7823,-1.7674,-1.7694,-1.7694,-1.7694,-1.7582,-1.7694,-1.7694,-1.7694,-1.7799,-1.7911,-1.8016,-1.8331,-1.8443,-1.8016,-1.7898,-1.7793,-1.7378,-1.6842,-1.6636,-1.6524,-1.6311,-1.6099,-1.5891,-1.5891,-1.5998,-1.6217,-1.6105,-1.5998,-1.5885,-1.5885,-1.5885,-1.6105,-1.6111,-1.6071,-1.6154,-1.6223,-1.6443,-1.6787,-1.7138,-1.7364,-1.7562,-1.7775,-1.7822,-1.7842,-1.7749,-1.7722,-1.7709,-1.7635,-1.7595,-1.7589,-1.7589,-1.7589,-1.7589,-1.7589,-1.7589,-1.7589,-1.7615,-1.7589,-1.7602,-1.7669,-1.7662,-1.7595,-1.7589,-1.7589,-1.7595,-1.7589,-1.7595,-1.7649,-1.7589,-1.7655,-1.8092,-1.8724,-1.9072,-1.9448,-1.9359,-1.9366,-1.9366,-1.9366,-1.9366,-1.9319,-1.9245,-1.9038,-1.8798,-1.8624,-1.8631,-1.8437,-1.8237,-1.9004,-1.8827,-1.8727,-1.845,-1.8087,-1.752,-1.7333,-1.7333,-1.7333,-1.7333,-1.734,-1.7905,-1.8093,-1.8222,-1.8697,-1.8962,-1.901,-1.9018,-1.8852,-1.8813,-1.8728,-1.8389,-1.8053,-1.7834,-1.7606,-1.764,-1.7619,-1.7721,-1.7864,-1.7898,-1.7911,-1.7911,-1.7793,-1.7799,-1.7799,-1.7905,-1.7911,-1.8016,-1.8227,-1.8436,-1.8443,-1.7911,-1.7793,-1.7477,-1.6955,-1.6424,-1.6205,-1.6205,-1.6105,-1.6211,-1.6217,-1.6217,-1.6217,-1.6217,-1.6211,-1.5992,-1.5885,-1.5885,-1.5891,-1.5998,-1.5998,-1.5998,-1.6217,-1.6424,-1.6636,-1.6948,-1.7265,-1.7378,-1.7378,-1.7609,-1.7769,-1.7702,-1.7649,-1.7642,-1.7635,-1.7622,-1.7589,-1.7589,-1.7589,-1.7589,-1.7589,-1.7589,-1.7589,-1.7649,-1.7662,-1.7615,-1.7642,-1.7756,-1.7769,-1.7722,-1.7736,-1.7749,-1.7742,-1.7789,-1.7762,-1.7796,-1.7708,-1.7777,-1.8242,-1.8672,-1.9152,-1.9361,-1.9441,-1.9366,-1.9366,-1.9366,-1.9366,-1.9312,-1.9259,-1.8971,-1.8724,-1.851,-1.831,-1.813,-1.7983,-1.8792,-1.8651,-1.8635,-1.8458,-1.7986,-1.752,-1.7326,-1.7426,-1.7326,-1.7333,-1.7333,-1.7721,-1.7927,-1.807,-1.8392,-1.8578,-1.8644,-1.8636,-1.852,-1.8386,-1.8199,-1.8028,-1.7648,-1.7392,-1.7337,-1.7374,-1.7626,-1.7674,-1.7845,-1.7982,-1.8023,-1.8122,-1.801,-1.801,-1.8115,-1.822,-1.822,-1.8331,-1.8331,-1.8331,-1.8115,-1.7694,-1.7371,-1.716,-1.6318,-1.6105,-1.5891,-1.5998,-1.6111,-1.6324,-1.6324,-1.6318,-1.6424,-1.6418,-1.6537,-1.6318,-1.6211,-1.6105,-1.6105,-1.6111,-1.5998,-1.5998,-1.6211,-1.6524,-1.6743,-1.706,-1.7272,-1.7378,-1.7483,-1.7595,-1.7595,-1.7589,-1.7589,-1.7589,-1.7589,-1.7589,-1.7589,-1.7589,-1.7589,-1.7589,-1.7589,-1.7589,-1.7622,-1.7689,-1.7782,-1.7842,-1.7963,-1.811,-1.807,-1.7963,-1.8023,-1.8083,-1.8056,-1.8043,-1.8016,-1.8036,-1.7991,-1.817,-1.8407,-1.8911,-1.9314,-1.9435,-1.9448,-1.9366,-1.9366,-1.9366,-1.9366,-1.9339,-1.9259,-1.8951,-1.8624,-1.837,-1.811,-1.7842,-1.7716,-1.8427,-1.8473,-1.8651,-1.8365,-1.8001,-1.752,-1.7426,-1.7628,-1.7426,-1.7333,-1.7426,-1.7621,-1.7736,-1.7796,-1.8077,-1.8248,-1.8247,-1.8262,-1.8085,-1.8059,-1.7587,-1.7398,-1.7351,-1.7216,-1.6963,-1.7227,-1.7399,-1.7631,-1.762,-1.7784,-1.813,-1.8415,-1.8318,-1.8213,-1.8213,-1.822,-1.8227,-1.8331,-1.8115,-1.801,-1.7687,-1.7153,-1.673,-1.6736,-1.6424,-1.6111,-1.6004,-1.6111,-1.6217,-1.6324,-1.6324,-1.6424,-1.6518,-1.663,-1.6743,-1.6855,-1.6537,-1.6424,-1.6318,-1.6318,-1.6217,-1.6211,-1.6418,-1.6524,-1.6743,-1.706,-1.7272,-1.7378,-1.7483,-1.7483,-1.7483,-1.7589,-1.7582,-1.7589,-1.7589,-1.7483,-1.7483,-1.7483,-1.7483,-1.7483,-1.7483,-1.7483,-1.7602,-1.7662,-1.7702,-1.7936,-1.8123,-1.8277,-1.8364,-1.8223,-1.8257,-1.8357,-1.8303,-1.8277,-1.8337,-1.839,-1.8459,-1.8526,-1.8785,-1.9045,-1.9334,-1.9414,-1.9359,-1.9366,-1.9366,-1.9366,-1.9359,-1.9339,-1.9199,-1.8851,-1.8537,-1.8237,-1.7949,-1.7689,-1.7595,-1.8419,-1.8179,-1.7807,-1.752,-1.7246,-1.7333,-1.7326,-1.7426,-1.7333,-1.7426,-1.7621,-1.7621,-1.7721,-1.7721,-1.7908,-1.8087,-1.8195,-1.7815,-1.7665,-1.7457,-1.7013,-1.6805,-1.6642,-1.6546,-1.64,-1.6737,-1.7014,-1.7462,-1.7883,-1.8065,-1.8116,-1.8394,-1.8318,-1.8115,-1.8115,-1.8122,-1.8122,-1.8122,-1.7793,-1.7793,-1.7898,-1.7259,-1.673,-1.6524,-1.6318,-1.6105,-1.5998,-1.5998,-1.6111,-1.6223,-1.6324,-1.6424,-1.6624,-1.653,-1.653,-1.6736,-1.6743,-1.6636,-1.6636,-1.6524,-1.6418,-1.6324,-1.6324,-1.6324,-1.6537,-1.6961,-1.7173,-1.7279,-1.7384,-1.7384,-1.7378,-1.7483,-1.7582,-1.7483,-1.7483,-1.7384,-1.7384,-1.7384,-1.7384,-1.7384,-1.7378,-1.749,-1.7602,-1.7649,-1.7669,-1.7802,-1.7983,-1.8183,-1.847,-1.8484,-1.8464,-1.8531,-1.849,-1.8484,-1.8591,-1.8704,-1.8751,-1.8851,-1.8964,-1.9219,-1.9345,-1.9359,-1.9366,-1.9366,-1.9366,-1.9312,-1.9285,-1.9332,-1.9138,-1.8718,-1.8477,-1.819,-1.7969,-1.7722,-1.7642,-1.8104,-1.8064,-1.752,-1.7239,-1.7153,-1.7239,-1.7333,-1.7434,-1.7333,-1.752,-1.7815,-1.7621,-1.7628,-1.7628,-1.7628,-1.7807,-1.7908,-1.7441,-1.708,-1.6784,-1.6588,-1.6421,-1.6123,-1.6028,-1.6225,-1.6471,-1.6551,-1.7028,-1.8125,-1.8062,-1.7908,-1.824,-1.8102,-1.8003,-1.8003,-1.7905,-1.7694,-1.7589,-1.7364,-1.747,-1.7687,-1.6948,-1.6418,-1.6318,-1.6211,-1.5998,-1.5998,-1.5998,-1.6217,-1.6324,-1.643,-1.6636,-1.6849,-1.6855,-1.6849,-1.7054,-1.7054,-1.6948,-1.6849,-1.6736,-1.6624,-1.6424,-1.6324,-1.6324,-1.6324,-1.6643,-1.6849,-1.6955,-1.7173,-1.7279,-1.7384,-1.7378,-1.7582,-1.7589,-1.7589,-1.7483,-1.7483,-1.7483,-1.7483,-1.7483,-1.7483,-1.7483,-1.7642,-1.7809,-1.7849,-1.7929,-1.8076,-1.8196,-1.8457,-1.8624,-1.8644,-1.8671,-1.8617,-1.8778,-1.8985,-1.9052,-1.9118,-1.9205,-1.9063,-1.9265,-1.9312,-1.9345,-1.9366,-1.9285,-1.9212,-1.9145,-1.9145,-1.9132,-1.8858,-1.841,-1.8263,-1.815,-1.7949,-1.7756,-1.7655,-1.7675,-1.7887,-1.7498,-1.7239,-1.7239,-1.7333,-1.7426,-1.7527,-1.7426,-1.7606,-1.7893,-1.752,-1.7527,-1.7527,-1.7347,-1.734,-1.7239,-1.7066,-1.6697,-1.6407,-1.6218,-1.6123,-1.6123,-1.613,-1.6164,-1.6225,-1.6375,-1.712,-1.8036,-1.7832,-1.7785,-1.8157,-1.8067,-1.7955,-1.7857,-1.7681,-1.7371,-1.7265,-1.7047,-1.673,-1.663,-1.6424,-1.6211,-1.6105,-1.6111,-1.6111,-1.6105,-1.6105,-1.6217,-1.6324,-1.6424,-1.6636,-1.6849,-1.6961,-1.7272,-1.7265,-1.7265,-1.7272,-1.7173,-1.7054,-1.6736,-1.653,-1.643,-1.643,-1.643,-1.6424,-1.653,-1.6743,-1.7067,-1.7173,-1.7279,-1.7378,-1.7483,-1.7483,-1.7589,-1.7589,-1.7589,-1.7582,-1.7589,-1.7589,-1.7589,-1.7582,-1.7689,-1.7869,-1.7949,-1.805,-1.8176,-1.833,-1.845,-1.8524,-1.8577,-1.8657,-1.8698,-1.8931,-1.9185,-1.9178,-1.9125,-1.9018,-1.8971,-1.9138,-1.9219,-1.9092,-1.9045,-1.9105,-1.9032,-1.8911,-1.8818,-1.8771,-1.8437,-1.8183,-1.8136,-1.809,-1.7936,-1.7762,-1.7649,-1.7414,-1.7143,-1.7216,-1.7239,-1.7066,-1.7239,-1.7326,-1.7326,-1.7333,-1.7527,-1.7721,-1.7721,-1.7714,-1.7994,-1.7994,-1.7807,-1.7434,-1.7066,-1.6777,-1.6588,-1.6116,-1.5927,-1.5933,-1.5927,-1.6028,-1.6171,-1.6334,-1.6766,-1.7606,-1.7533,-1.7577,-1.791,-1.7708,-1.7448,-1.7178,-1.7062,-1.6909,-1.6817,-1.6736,-1.6524,-1.6318,-1.6211,-1.5992,-1.5891,-1.5891,-1.5891,-1.5885,-1.5891,-1.5998,-1.5998,-1.6105,-1.6418,-1.663,-1.6849,-1.716,-1.7483,-1.7483,-1.7483,-1.7378,-1.7371,-1.7166,-1.6961,-1.6855,-1.6855,-1.6849,-1.663,-1.6743,-1.6961,-1.7173,-1.7067,-1.7166,-1.7378,-1.7582,-1.7378,-1.7384,-1.7483,-1.7589,-1.7483,-1.7378,-1.7483,-1.7483,-1.7483,-1.7609,-1.7695,-1.7702,-1.7816,-1.7956,-1.8096,-1.815,-1.8303,-1.8464,-1.8564,-1.8657,-1.8804,-1.8931,-1.8958,-1.8911,-1.891,-1.8843,-1.8831,-1.8824,-1.8671,-1.8657,-1.8804,-1.8731,-1.8591,-1.851,-1.843,-1.8377,-1.8183,-1.8103,-1.8023,-1.7876,-1.7649,-1.753]},{"header":{"parameterUnit":"m.s-1","parameterCategory":1,"la1":31.0,"la2":29.5877,"lo1":-88.7671,"lo2":-86.6584,"dy":0.0162,"dx":0.0185,"nx":115,"ny":88,"refTime":"2023-07-12T06:00:00:Z","depth":0,"parameterNumber":3,"parameterNumberName":"V-component_of_WINDS"},"data":[0.0,0.0,0.0,0.0,0.0,0.0,0.0,0.0,0.0,0.0,0.0,0.0,0.0,0.0,0.0,0.0,0.0,0.0,0.0,0.0,0.0,0.0,0.0,0.0,0.0,0.0,0.0,0.0,0.0,0.0,0.0,0.0,0.0,0.0,0.0,0.0,0.0,0.0,0.0,0.0,0.0,0.0,0.0,0.0,0.0,0.0,0.0,0.0,0.0,0.0,0.0,0.0,0.0,0.0,0.0,0.0,0.0,0.0,0.0,0.0,0.0,0.0,0.0,0.0,0.0,0.0,0.0,0.0,0.0,0.0,0.0,0.0,0.0,0.0,0.0,0.0,0.0,0.0,0.0,0.0,0.0,0.0,0.0,0.0,0.0,0.0,0.0,0.0,0.0,0.0,0.0,0.0,0.0,0.0,0.0,0.0,0.0,0.0,0.0,0.0,0.0,0.0,0.0,0.0,0.0,0.0,0.0,0.0,0.0,0.0,0.0,0.0,0.0,0.0,0.0,0.0,0.0,0.0,0.0,0.0,0.0,0.0,0.0,0.0,0.0,0.0,0.0,0.0,0.0,0.0,0.0,0.0,0.0,0.0,0.0,0.0,0.0,0.0,0.0,0.0,0.0,0.0,0.0,0.0,0.0,0.0,0.0,0.0,0.0,0.0,0.0,0.0,0.0,0.0,0.0,0.0,0.0,0.0,0.0,0.0,0.0,0.0,0.0,0.0,0.0,0.0,0.0,0.0,0.0,0.0,0.0,0.0,0.0,0.0,0.0,0.0,0.0,0.0,0.0,0.0,0.0,0.0,0.0,0.0,0.0,0.0,0.0,0.0,0.0,0.0,0.0,0.0,0.0,0.0,0.0,0.0,0.0,0.0,0.0,0.0,0.0,0.0,0.0,0.0,0.0,0.0,0.0,0.0,0.0,0.0,0.0,0.0,0.0,0.0,0.0,0.0,0.0,0.0,0.0,0.0,0.0,0.0,0.0,0.0,0.0,0.0,0.0,0.0,0.0,0.0,0.0,0.0,0.0,0.0,0.0,0.0,0.0,0.0,0.0,0.0,0.0,0.0,0.0,0.0,0.0,0.0,0.0,0.0,0.0,0.0,0.0,0.0,0.0,0.0,0.0,0.0,0.0,0.0,0.0,0.0,0.0,0.0,0.0,0.0,0.0,0.0,0.0,0.0,0.0,0.0,0.0,0.0,0.0,0.0,0.0,0.0,0.0,0.0,0.0,0.0,0.0,0.0,0.0,0.0,0.0,0.0,0.0,0.0,0.0,0.0,0.0,0.0,0.0,0.0,0.0,0.0,0.0,0.0,0.0,0.0,0.0,0.0,0.0,0.0,0.0,0.0,0.0,0.0,0.0,0.0,0.0,0.0,0.0,0.0,0.0,0.0,0.0,0.0,0.0,0.0,0.0,0.0,0.0,0.0,0.0,0.0,0.0,0.0,0.0,0.0,0.0,0.0,0.0,0.0,0.0,0.0,0.0,0.0,0.0,0.0,0.0,0.0,0.0,0.0,0.0,0.0,0.0,0.0,0.0,0.0,0.0,0.0,0.0,0.0,0.0,0.0,0.0,0.0,0.0,0.0,0.0,0.0,0.0,0.0,0.0,0.0,0.0,0.0,0.0,0.0,0.0,0.0,0.0,0.0,0.0,0.0,0.0,0.0,0.0,0.0,0.0,0.0,0.0,0.0,0.0,0.0,0.0,0.0,0.0,0.0,0.0,0.0,0.0,0.0,0.0,0.0,0.0,0.0,0.0,0.0,0.0,0.0,0.0,0.0,0.0,0.0,0.0,0.0,0.0,0.0,0.0,0.0,0.0,0.0,0.0,0.0,0.0,0.0,0.0,0.0,0.0,0.0,0.0,0.0,0.0,0.0,0.0,0.0,0.0,0.0,0.0,0.0,0.0,0.0,0.0,0.0,0.0,0.0,0.0,0.0,0.0,0.0,0.0,0.0,0.0,0.0,0.0,0.0,0.0,0.0,0.0,0.0,0.0,0.0,0.0,0.0,0.0,0.0,0.0,0.0,0.0,0.0,0.0,0.0,0.0,0.0,0.0,0.0,0.0,0.0,0.0,0.0,0.0,0.0,0.0,0.0,0.0,0.0,0.0,0.0,0.0,0.0,0.0,0.0,0.0,0.0,0.0,0.0,0.0,0.0,0.0,0.0,0.0,0.0,0.0,0.0,0.0,0.0,0.0,0.0,0.0,0.0,0.0,0.0,0.0,0.0,0.0,0.0,0.0,0.0,0.0,0.0,0.0,0.0,0.0,0.0,0.0,0.0,0.0,0.0,0.0,0.0,0.0,0.0,0.0,0.0,0.0,0.0,0.0,0.0,0.0,0.0,0.0,0.0,0.0,0.0,0.0,0.0,0.0,0.0,0.0,0.0,0.0,0.0,0.0,0.0,0.0,0.0,0.0,0.0,0.0,0.0,0.0,0.0,0.0,0.0,0.0,0.0,0.0,0.0,0.0,0.0,0.0,0.0,0.0,0.0,0.0,0.0,0.0,0.0,0.0,0.0,0.0,0.0,0.0,0.0,0.0,0.0,0.0,0.0,0.0,0.0,0.0,0.0,0.0,0.0,0.0,0.0,0.0,0.0,0.0,0.0,0.0,0.0,0.0,0.0,0.0,0.0,0.0,0.0,0.0,0.0,0.0,0.0,0.0,0.0,0.0,0.0,0.0,0.0,0.0,0.0,0.0,0.0,0.0,0.0,0.0,0.0,0.0,0.0,0.0,0.0,0.0,0.0,0.0,0.0,0.0,0.0,0.0,0.0,0.0,0.0,0.0,0.0,0.0,0.0,0.0,0.0,0.0,0.0,0.0,0.0,0.0,0.0,0.0,0.0,0.0,0.0,0.0,0.0,0.0,0.0,0.0,0.0,0.0,0.0,0.0,0.0,0.0,0.0,0.0,0.0,0.0,0.0,0.0,0.0,0.0,0.0,0.0,0.0,0.0,0.0,0.0,0.0,0.0,0.0,0.0,0.0,0.0,0.0,0.0,0.0,0.0,0.0,0.0,0.0,0.0,0.0,0.0,0.0,0.0,0.0,0.0,0.0,0.0,0.0,0.0,0.0,0.0,0.0,0.0,0.0,0.0,0.0,0.0,0.0,0.0,0.0,0.0,0.0,0.0,0.0,0.0,0.0,0.0,0.0,0.0,0.0,0.0,0.0,0.0,0.0,0.0,0.0,0.0,0.0,0.0,0.0,0.0,0.0,0.0,0.0,0.0,0.0,0.0,0.0,0.0,0.0,0.0,0.0,0.0,0.0,0.0,0.0,0.0,0.0,0.0,0.0,0.0,0.0,0.0,0.0,0.0,0.0,0.0,0.0,0.0,0.0,0.0,0.0,0.0,0.0,0.0,0.0,0.0,0.0,0.0,0.0,0.0,0.0,0.0,0.0,0.0,0.0,0.0,0.0,0.0,0.0,0.0,0.0,0.0,0.0,0.0,0.0,0.0,0.0,0.0,0.0,0.0,0.0,0.0,0.0,0.0,0.0,0.0,0.0,0.0,0.0,0.0,0.0,0.0,0.0,0.0,0.0,0.0,0.0,0.0,0.0,0.0,0.0,0.0,0.0,0.0,0.0,0.0,0.0,0.0,0.0,0.0,0.0,0.0,0.0,0.0,0.0,0.0,0.0,0.0,0.0,0.0,0.0,0.0,0.0,0.0,0.0,0.0,0.0,0.0,0.0,0.0,0.0,0.0,0.0,0.0,0.0,0.0,0.0,0.0,0.0,0.0,0.0,0.0,0.0,0.0,0.0,0.0,0.0,0.0,0.0,0.0,0.0,0.0,0.0,0.0,0.0,0.0,0.0,0.0,0.0,0.0,0.0,0.0,0.0,0.0,0.0,0.0,0.0,0.0,0.0,0.0,0.0,0.0,0.0,0.0,0.0,0.0,0.0,0.0,0.0,0.0,0.0,0.0,0.0,0.0,0.0,0.0,0.0,0.0,0.0,0.0,0.0,0.0,0.0,0.0,0.0,0.0,0.0,0.0,0.0,0.0,0.0,0.0,0.0,0.0,0.0,0.0,0.0,0.0,0.0,0.0,0.0,0.0,0.0,0.0,0.0,0.0,0.0,0.0,0.0,0.0,0.0,0.0,0.0,0.0,0.0,0.0,0.0,0.0,0.0,0.0,0.0,0.0,0.0,0.0,0.0,0.0,0.0,0.0,0.0,0.0,0.0,0.0,0.0,0.0,0.0,0.0,0.0,0.0,0.0,0.0,0.0,0.0,0.0,0.0,0.0,0.0,0.0,-2.8201,0.0,0.0,0.0,0.0,0.0,0.0,0.0,0.0,0.0,0.0,0.0,0.0,0.0,0.0,0.0,0.0,0.0,0.0,0.0,0.0,0.0,0.0,0.0,0.0,0.0,0.0,0.0,0.0,0.0,0.0,0.0,0.0,0.0,0.0,0.0,0.0,0.0,0.0,0.0,0.0,0.0,0.0,0.0,0.0,0.0,0.0,0.0,0.0,0.0,0.0,0.0,0.0,0.0,0.0,0.0,0.0,0.0,0.0,0.0,0.0,0.0,0.0,0.0,0.0,0.0,0.0,0.0,0.0,0.0,0.0,0.0,0.0,0.0,0.0,0.0,0.0,0.0,0.0,0.0,0.0,0.0,0.0,0.0,0.0,0.0,0.0,0.0,0.0,0.0,0.0,0.0,0.0,0.0,0.0,0.0,0.0,0.0,0.0,0.0,0.0,0.0,0.0,0.0,0.0,0.0,0.0,0.0,0.0,0.0,0.0,-2.821,-2.8156,-2.8194,-2.7989,-2.7574,0.0,0.0,0.0,0.0,0.0,0.0,0.0,0.0,0.0,0.0,0.0,0.0,0.0,0.0,0.0,0.0,0.0,0.0,0.0,0.0,0.0,0.0,0.0,0.0,0.0,0.0,0.0,0.0,0.0,0.0,0.0,0.0,0.0,0.0,0.0,0.0,0.0,0.0,0.0,0.0,0.0,0.0,0.0,0.0,0.0,0.0,0.0,0.0,0.0,0.0,0.0,0.0,0.0,0.0,0.0,0.0,0.0,0.0,0.0,0.0,0.0,0.0,0.0,0.0,0.0,0.0,0.0,0.0,0.0,0.0,0.0,0.0,0.0,0.0,0.0,0.0,0.0,0.0,0.0,0.0,0.0,0.0,0.0,0.0,0.0,0.0,0.0,0.0,0.0,0.0,0.0,0.0,0.0,0.0,0.0,0.0,0.0,0.0,0.0,0.0,0.0,0.0,0.0,0.0,0.0,0.0,0.0,0.0,0.0,0.0,0.0,0.0,-2.8105,-2.8064,-2.7604,0.0,0.0,0.0,0.0,0.0,0.0,0.0,0.0,0.0,0.0,0.0,0.0,0.0,0.0,0.0,0.0,0.0,0.0,0.0,0.0,0.0,0.0,0.0,0.0,0.0,0.0,0.0,0.0,0.0,0.0,0.0,0.0,0.0,0.0,0.0,0.0,0.0,0.0,0.0,0.0,0.0,0.0,0.0,0.0,0.0,0.0,0.0,0.0,0.0,0.0,0.0,0.0,0.0,0.0,0.0,0.0,0.0,0.0,0.0,0.0,0.0,0.0,0.0,0.0,0.0,0.0,0.0,0.0,0.0,0.0,0.0,0.0,0.0,0.0,0.0,0.0,0.0,0.0,0.0,0.0,0.0,0.0,0.0,0.0,0.0,0.0,0.0,0.0,0.0,0.0,0.0,0.0,0.0,0.0,0.0,0.0,0.0,0.0,0.0,0.0,0.0,0.0,0.0,0.0,0.0,0.0,0.0,0.0,0.0,0.0,-2.8029,-2.8325,-2.8432,0.0,-2.9145,0.0,0.0,0.0,0.0,0.0,0.0,0.0,0.0,0.0,0.0,0.0,0.0,0.0,0.0,0.0,0.0,0.0,0.0,0.0,0.0,0.0,0.0,0.0,0.0,0.0,0.0,0.0,0.0,0.0,0.0,0.0,0.0,0.0,0.0,0.0,0.0,0.0,0.0,0.0,0.0,0.0,0.0,0.0,0.0,0.0,0.0,0.0,0.0,0.0,0.0,0.0,0.0,0.0,0.0,0.0,0.0,0.0,0.0,0.0,0.0,0.0,0.0,0.0,0.0,0.0,0.0,0.0,0.0,0.0,0.0,0.0,0.0,0.0,0.0,0.0,0.0,0.0,0.0,0.0,0.0,0.0,0.0,0.0,0.0,0.0,0.0,0.0,0.0,0.0,0.0,0.0,0.0,0.0,0.0,0.0,0.0,0.0,0.0,0.0,0.0,0.0,0.0,0.0,0.0,0.0,0.0,0.0,0.0,0.0,0.0,-2.8088,-2.8201,-2.8545,-2.8912,0.0,0.0,0.0,0.0,0.0,0.0,0.0,0.0,0.0,0.0,0.0,0.0,0.0,0.0,0.0,0.0,0.0,0.0,0.0,0.0,0.0,0.0,0.0,0.0,0.0,0.0,0.0,0.0,0.0,0.0,0.0,0.0,0.0,0.0,0.0,0.0,0.0,0.0,0.0,0.0,0.0,0.0,0.0,0.0,0.0,0.0,0.0,0.0,0.0,0.0,0.0,0.0,0.0,0.0,0.0,0.0,0.0,0.0,0.0,0.0,0.0,0.0,0.0,0.0,0.0,0.0,0.0,0.0,0.0,0.0,0.0,0.0,0.0,0.0,0.0,0.0,0.0,0.0,0.0,0.0,0.0,0.0,0.0,0.0,0.0,0.0,0.0,0.0,0.0,0.0,0.0,0.0,0.0,0.0,0.0,0.0,0.0,0.0,0.0,0.0,0.0,0.0,0.0,0.0,0.0,0.0,0.0,0.0,0.0,0.0,-2.803,-2.8185,-2.8505,-2.8589,-2.8982,-2.9705,0.0,0.0,0.0,0.0,0.0,0.0,0.0,0.0,0.0,0.0,0.0,0.0,0.0,0.0,0.0,0.0,0.0,0.0,0.0,0.0,0.0,0.0,0.0,0.0,0.0,0.0,0.0,0.0,0.0,0.0,0.0,0.0,0.0,0.0,0.0,0.0,0.0,0.0,0.0,0.0,0.0,0.0,0.0,0.0,0.0,0.0,0.0,0.0,0.0,0.0,0.0,0.0,0.0,0.0,0.0,0.0,0.0,0.0,0.0,0.0,0.0,0.0,0.0,0.0,0.0,0.0,0.0,0.0,0.0,0.0,0.0,0.0,0.0,0.0,0.0,0.0,0.0,0.0,0.0,0.0,0.0,0.0,0.0,0.0,0.0,0.0,0.0,0.0,0.0,0.0,0.0,0.0,0.0,0.0,0.0,0.0,0.0,0.0,0.0,0.0,0.0,0.0,0.0,0.0,0.0,0.0,0.0,0.0,-2.8955,-2.8303,-2.8446,-2.9465,-2.8665,-2.8996,0.0,0.0,0.0,0.0,0.0,0.0,0.0,0.0,0.0,0.0,0.0,0.0,0.0,0.0,0.0,0.0,0.0,0.0,0.0,0.0,0.0,0.0,0.0,0.0,0.0,0.0,0.0,0.0,0.0,0.0,0.0,0.0,0.0,0.0,0.0,0.0,0.0,0.0,0.0,0.0,0.0,0.0,0.0,0.0,0.0,0.0,0.0,0.0,0.0,0.0,0.0,0.0,0.0,0.0,0.0,0.0,0.0,0.0,0.0,0.0,0.0,0.0,0.0,0.0,0.0,0.0,0.0,0.0,0.0,0.0,0.0,0.0,0.0,0.0,0.0,0.0,0.0,0.0,0.0,0.0,0.0,0.0,0.0,0.0,0.0,0.0,0.0,0.0,0.0,0.0,0.0,0.0,0.0,0.0,0.0,0.0,0.0,0.0,0.0,0.0,0.0,0.0,0.0,0.0,0.0,0.0,0.0,0.0,0.0,-2.8144,-2.8706,-2.9137,-2.944,-2.9752,-2.9919,0.0,0.0,0.0,0.0,0.0,0.0,0.0,0.0,0.0,0.0,0.0,0.0,0.0,0.0,0.0,0.0,0.0,0.0,0.0,0.0,0.0,0.0,0.0,0.0,0.0,0.0,0.0,0.0,0.0,0.0,0.0,0.0,0.0,0.0,0.0,0.0,0.0,0.0,0.0,0.0,0.0,0.0,0.0,0.0,0.0,0.0,0.0,0.0,0.0,0.0,0.0,0.0,0.0,0.0,0.0,0.0,0.0,0.0,0.0,0.0,0.0,0.0,0.0,0.0,0.0,0.0,0.0,0.0,0.0,0.0,0.0,0.0,0.0,0.0,0.0,0.0,0.0,0.0,0.0,0.0,0.0,0.0,0.0,0.0,0.0,0.0,0.0,0.0,0.0,0.0,0.0,0.0,0.0,0.0,0.0,0.0,0.0,0.0,0.0,0.0,0.0,0.0,0.0,0.0,0.0,0.0,0.0,0.0,0.0,-2.8206,0.0,-2.9798,-2.9757,-3.0384,-3.0418,0.0,0.0,0.0,0.0,0.0,0.0,0.0,0.0,0.0,0.0,0.0,0.0,0.0,0.0,0.0,0.0,0.0,0.0,0.0,0.0,0.0,0.0,0.0,0.0,0.0,0.0,0.0,0.0,0.0,0.0,0.0,0.0,0.0,0.0,0.0,0.0,0.0,0.0,0.0,0.0,0.0,0.0,0.0,0.0,0.0,0.0,0.0,0.0,0.0,0.0,0.0,0.0,0.0,0.0,0.0,0.0,0.0,0.0,0.0,0.0,0.0,0.0,0.0,0.0,0.0,0.0,0.0,0.0,0.0,0.0,0.0,0.0,0.0,0.0,0.0,0.0,0.0,0.0,0.0,0.0,0.0,0.0,0.0,0.0,0.0,0.0,0.0,0.0,0.0,0.0,0.0,0.0,0.0,0.0,0.0,0.0,0.0,0.0,0.0,0.0,0.0,0.0,0.0,0.0,0.0,0.0,0.0,0.0,-2.8677,-2.9407,-3.0046,-3.0368,-3.0401,-3.0401,-3.0426,0.0,0.0,0.0,0.0,0.0,0.0,0.0,0.0,0.0,0.0,0.0,0.0,0.0,0.0,0.0,0.0,0.0,0.0,0.0,0.0,0.0,0.0,0.0,0.0,0.0,0.0,0.0,0.0,0.0,0.0,0.0,0.0,0.0,0.0,0.0,0.0,0.0,0.0,0.0,0.0,0.0,0.0,0.0,0.0,0.0,0.0,0.0,0.0,0.0,0.0,0.0,0.0,0.0,0.0,0.0,0.0,0.0,0.0,0.0,0.0,0.0,0.0,0.0,0.0,0.0,0.0,0.0,0.0,0.0,0.0,0.0,0.0,0.0,0.0,0.0,0.0,0.0,0.0,0.0,0.0,0.0,0.0,0.0,0.0,0.0,0.0,0.0,0.0,0.0,0.0,0.0,0.0,0.0,0.0,0.0,0.0,0.0,0.0,0.0,0.0,0.0,0.0,0.0,0.0,0.0,0.0,0.0,0.0,0.0,-3.0096,-3.0285,-3.0401,-3.0401,-3.0443,-3.0485,0.0,0.0,0.0,0.0,0.0,0.0,0.0,0.0,0.0,0.0,0.0,0.0,0.0,0.0,0.0,0.0,0.0,0.0,0.0,0.0,0.0,0.0,0.0,0.0,0.0,0.0,0.0,0.0,0.0,0.0,0.0,0.0,0.0,0.0,0.0,0.0,0.0,0.0,0.0,0.0,0.0,0.0,0.0,0.0,0.0,0.0,0.0,0.0,0.0,0.0,0.0,0.0,0.0,0.0,0.0,0.0,0.0,0.0,0.0,0.0,0.0,0.0,0.0,0.0,0.0,0.0,0.0,0.0,0.0,0.0,0.0,0.0,0.0,0.0,0.0,0.0,0.0,0.0,0.0,0.0,0.0,0.0,0.0,0.0,0.0,0.0,0.0,0.0,0.0,0.0,0.0,0.0,0.0,0.0,0.0,0.0,0.0,0.0,0.0,0.0,0.0,0.0,0.0,0.0,0.0,0.0,0.0,0.0,0.0,-3.0316,-3.0401,-3.0443,-3.0443,-3.0485,-3.0468,-3.0468,0.0,0.0,0.0,0.0,0.0,0.0,0.0,0.0,0.0,0.0,0.0,0.0,0.0,0.0,0.0,0.0,0.0,0.0,0.0,0.0,0.0,0.0,0.0,0.0,0.0,0.0,0.0,0.0,0.0,0.0,0.0,0.0,0.0,0.0,0.0,0.0,0.0,0.0,0.0,0.0,0.0,0.0,0.0,0.0,0.0,0.0,0.0,0.0,0.0,0.0,0.0,0.0,0.0,0.0,0.0,0.0,0.0,0.0,0.0,0.0,0.0,0.0,0.0,0.0,0.0,0.0,0.0,0.0,0.0,0.0,0.0,0.0,0.0,0.0,0.0,0.0,0.0,0.0,0.0,0.0,0.0,0.0,0.0,0.0,0.0,0.0,0.0,0.0,0.0,0.0,0.0,0.0,0.0,0.0,0.0,0.0,0.0,0.0,0.0,0.0,0.0,0.0,0.0,0.0,0.0,0.0,0.0,0.0,-3.0189,-3.0359,-3.0485,-3.0468,-3.0468,-3.0468,0.0,0.0,0.0,0.0,0.0,0.0,0.0,0.0,0.0,0.0,0.0,0.0,0.0,0.0,0.0,0.0,0.0,0.0,0.0,0.0,0.0,0.0,0.0,0.0,0.0,0.0,0.0,0.0,0.0,0.0,0.0,0.0,0.0,0.0,0.0,0.0,0.0,0.0,0.0,0.0,0.0,0.0,0.0,0.0,0.0,0.0,0.0,0.0,0.0,0.0,0.0,0.0,0.0,0.0,0.0,0.0,0.0,0.0,0.0,0.0,0.0,0.0,0.0,0.0,0.0,0.0,0.0,0.0,0.0,0.0,0.0,0.0,0.0,0.0,0.0,0.0,0.0,0.0,0.0,0.0,0.0,0.0,0.0,0.0,0.0,0.0,0.0,0.0,0.0,0.0,0.0,0.0,0.0,0.0,0.0,0.0,0.0,0.0,0.0,0.0,0.0,0.0,0.0,0.0,0.0,0.0,0.0,0.0,0.0,-3.006,-2.9984,-3.0027,-3.0146,-3.0146,-3.0189,0.0,0.0,0.0,0.0,0.0,0.0,0.0,0.0,0.0,0.0,0.0,0.0,0.0,0.0,0.0,0.0,0.0,0.0,0.0,0.0,0.0,0.0,0.0,0.0,0.0,0.0,0.0,0.0,0.0,0.0,0.0,0.0,0.0,0.0,0.0,0.0,0.0,0.0,0.0,0.0,0.0,0.0,0.0,0.0,0.0,0.0,0.0,0.0,0.0,0.0,0.0,0.0,0.0,0.0,0.0,0.0,0.0,0.0,0.0,0.0,0.0,0.0,0.0,0.0,0.0,0.0,0.0,0.0,0.0,0.0,0.0,0.0,0.0,0.0,0.0,0.0,0.0,0.0,0.0,0.0,0.0,0.0,0.0,0.0,0.0,0.0,0.0,0.0,0.0,0.0,0.0,0.0,0.0,0.0,0.0,0.0,0.0,0.0,0.0,0.0,0.0,0.0,0.0,0.0,0.0,0.0,0.0,0.0,-2.9826,-2.971,-2.9649,-2.9605,-2.9605,-2.9842,-2.9957,0.0,0.0,0.0,0.0,0.0,0.0,0.0,0.0,0.0,0.0,0.0,0.0,0.0,0.0,0.0,0.0,0.0,0.0,0.0,0.0,0.0,0.0,0.0,0.0,0.0,0.0,0.0,0.0,0.0,0.0,0.0,0.0,0.0,0.0,0.0,0.0,0.0,0.0,0.0,0.0,0.0,0.0,0.0,0.0,0.0,0.0,0.0,0.0,0.0,0.0,0.0,0.0,0.0,0.0,0.0,0.0,0.0,0.0,0.0,0.0,0.0,0.0,0.0,0.0,0.0,0.0,0.0,0.0,0.0,0.0,0.0,0.0,0.0,0.0,0.0,0.0,0.0,0.0,0.0,0.0,0.0,0.0,0.0,0.0,0.0,0.0,0.0,0.0,0.0,0.0,0.0,0.0,0.0,0.0,0.0,0.0,0.0,0.0,0.0,0.0,0.0,0.0,0.0,0.0,0.0,0.0,0.0,0.0,-2.9621,-2.9416,-2.9291,-2.9229,-2.9232,-2.9563,-2.981,0.0,0.0,0.0,0.0,0.0,0.0,0.0,0.0,0.0,0.0,0.0,0.0,0.0,0.0,0.0,0.0,0.0,0.0,0.0,0.0,0.0,0.0,0.0,0.0,0.0,0.0,0.0,0.0,0.0,0.0,0.0,0.0,0.0,0.0,0.0,0.0,0.0,0.0,0.0,0.0,0.0,0.0,0.0,0.0,0.0,0.0,0.0,0.0,0.0,0.0,0.0,0.0,0.0,0.0,0.0,0.0,0.0,0.0,0.0,0.0,0.0,0.0,0.0,0.0,0.0,0.0,0.0,0.0,0.0,0.0,0.0,0.0,0.0,0.0,0.0,0.0,0.0,0.0,0.0,0.0,0.0,0.0,0.0,0.0,0.0,0.0,0.0,0.0,0.0,0.0,0.0,0.0,0.0,0.0,0.0,0.0,0.0,0.0,0.0,0.0,0.0,0.0,0.0,0.0,0.0,0.0,0.0,0.0,-2.9483,-2.9975,-2.9343,-2.9312,-2.9943,-2.9591,-2.9531,0.0,0.0,0.0,0.0,0.0,0.0,0.0,0.0,0.0,0.0,0.0,0.0,0.0,0.0,0.0,0.0,0.0,0.0,0.0,0.0,0.0,0.0,0.0,0.0,0.0,0.0,0.0,0.0,0.0,0.0,0.0,0.0,0.0,0.0,0.0,0.0,0.0,0.0,0.0,0.0,0.0,0.0,0.0,0.0,0.0,0.0,0.0,0.0,-3.5667,0.0,0.0,0.0,0.0,0.0,0.0,0.0,0.0,0.0,0.0,0.0,0.0,0.0,0.0,0.0,0.0,0.0,0.0,0.0,0.0,0.0,0.0,0.0,0.0,0.0,0.0,0.0,0.0,0.0,0.0,0.0,0.0,0.0,0.0,0.0,0.0,0.0,0.0,0.0,0.0,0.0,0.0,0.0,0.0,0.0,0.0,0.0,0.0,0.0,0.0,0.0,0.0,0.0,0.0,0.0,0.0,0.0,0.0,0.0,-2.9422,-3.0053,-2.9658,-2.98,-3.0478,-3.0022,-2.9701,0.0,0.0,0.0,0.0,0.0,0.0,0.0,0.0,0.0,0.0,0.0,0.0,0.0,0.0,0.0,0.0,0.0,0.0,0.0,0.0,0.0,0.0,0.0,0.0,0.0,0.0,0.0,0.0,0.0,0.0,0.0,0.0,0.0,0.0,0.0,0.0,0.0,0.0,0.0,0.0,0.0,0.0,0.0,0.0,0.0,0.0,0.0,0.0,0.0,0.0,0.0,0.0,0.0,0.0,0.0,0.0,0.0,0.0,0.0,0.0,0.0,0.0,0.0,0.0,0.0,0.0,0.0,0.0,0.0,0.0,0.0,0.0,0.0,0.0,0.0,0.0,0.0,0.0,0.0,0.0,0.0,0.0,0.0,0.0,0.0,0.0,0.0,0.0,0.0,0.0,0.0,0.0,0.0,0.0,0.0,0.0,0.0,0.0,0.0,0.0,0.0,0.0,0.0,0.0,0.0,0.0,0.0,-2.9262,-2.9549,-3.0113,-3.016,-3.0474,-3.1168,-3.0653,-3.0164,-2.9824,0.0,0.0,0.0,0.0,0.0,0.0,0.0,0.0,0.0,0.0,0.0,0.0,0.0,0.0,0.0,0.0,0.0,0.0,0.0,0.0,0.0,0.0,0.0,0.0,0.0,0.0,0.0,0.0,0.0,0.0,0.0,0.0,0.0,0.0,0.0,0.0,0.0,0.0,-3.7405,-3.7083,0.0,0.0,0.0,0.0,0.0,0.0,0.0,0.0,-3.5088,0.0,0.0,0.0,0.0,0.0,0.0,0.0,0.0,0.0,0.0,0.0,0.0,0.0,0.0,0.0,0.0,0.0,0.0,0.0,0.0,0.0,0.0,0.0,0.0,0.0,0.0,0.0,0.0,0.0,0.0,0.0,0.0,0.0,0.0,0.0,0.0,0.0,0.0,0.0,0.0,0.0,0.0,0.0,0.0,0.0,0.0,0.0,0.0,0.0,0.0,0.0,0.0,0.0,0.0,0.0,0.0,-2.9544,-2.9753,-3.0145,-3.0804,-3.082,-3.1265,-3.2029,-3.1413,-3.1035,-3.107,0.0,0.0,0.0,0.0,0.0,0.0,0.0,0.0,0.0,0.0,0.0,0.0,0.0,0.0,0.0,0.0,0.0,0.0,0.0,0.0,0.0,0.0,0.0,0.0,0.0,0.0,0.0,0.0,0.0,0.0,0.0,0.0,0.0,0.0,0.0,0.0,0.0,0.0,0.0,-3.669,-3.6318,0.0,0.0,0.0,0.0,0.0,0.0,0.0,0.0,-3.4947,0.0,0.0,0.0,0.0,0.0,0.0,0.0,0.0,0.0,0.0,0.0,0.0,0.0,0.0,0.0,0.0,0.0,0.0,0.0,0.0,0.0,0.0,0.0,0.0,0.0,0.0,0.0,0.0,0.0,0.0,0.0,0.0,0.0,0.0,0.0,0.0,0.0,0.0,0.0,0.0,0.0,0.0,0.0,0.0,0.0,0.0,0.0,0.0,0.0,0.0,0.0,0.0,0.0,0.0,0.0,-3.0138,-3.0482,-3.1033,-3.1662,-3.1593,-3.199,-3.2756,-3.1776,-3.1431,0.0,0.0,0.0,0.0,0.0,0.0,0.0,0.0,0.0,0.0,0.0,0.0,0.0,0.0,0.0,0.0,0.0,0.0,0.0,0.0,0.0,0.0,0.0,0.0,0.0,0.0,0.0,0.0,0.0,0.0,0.0,0.0,0.0,0.0,0.0,0.0,0.0,0.0,0.0,0.0,-3.6377,-3.6165,-3.6045,0.0,0.0,0.0,0.0,0.0,0.0,-3.4947,-3.4899,0.0,0.0,0.0,0.0,0.0,0.0,0.0,0.0,0.0,0.0,0.0,0.0,0.0,0.0,0.0,0.0,0.0,0.0,0.0,0.0,0.0,0.0,0.0,0.0,0.0,0.0,0.0,0.0,0.0,0.0,0.0,0.0,0.0,0.0,0.0,0.0,0.0,0.0,0.0,0.0,0.0,0.0,0.0,0.0,0.0,0.0,0.0,0.0,0.0,0.0,0.0,0.0,0.0,0.0,0.0,-3.0844,-3.131,-3.1815,-3.2285,-3.2321,-3.2651,-3.3261,-3.2218,-3.1987,0.0,0.0,0.0,0.0,0.0,0.0,0.0,0.0,0.0,0.0,0.0,0.0,0.0,0.0,0.0,0.0,0.0,0.0,0.0,0.0,0.0,0.0,0.0,0.0,0.0,0.0,0.0,0.0,0.0,0.0,0.0,0.0,0.0,0.0,0.0,0.0,0.0,0.0,0.0,0.0,0.0,-3.6283,-3.6124,-3.5987,0.0,0.0,0.0,0.0,-3.5313,-3.5214,0.0,0.0,0.0,0.0,0.0,0.0,0.0,0.0,0.0,0.0,0.0,0.0,0.0,0.0,0.0,0.0,0.0,0.0,0.0,0.0,0.0,0.0,0.0,0.0,0.0,0.0,0.0,0.0,0.0,0.0,0.0,0.0,0.0,0.0,0.0,0.0,0.0,0.0,0.0,0.0,0.0,0.0,0.0,0.0,0.0,0.0,0.0,0.0,0.0,0.0,0.0,0.0,0.0,0.0,0.0,0.0,-3.1927,-3.2109,-3.2238,-3.2349,-3.2866,-3.323,-3.3293,-3.324,-3.3348,0.0,0.0,0.0,0.0,0.0,0.0,0.0,0.0,0.0,0.0,0.0,0.0,0.0,0.0,0.0,0.0,0.0,0.0,0.0,0.0,0.0,0.0,0.0,0.0,0.0,0.0,0.0,0.0,0.0,0.0,0.0,0.0,0.0,0.0,0.0,0.0,0.0,0.0,0.0,0.0,0.0,-3.6764,-3.7068,-3.7119,-3.7053,0.0,0.0,-3.6009,-3.6754,-3.6191,0.0,0.0,0.0,0.0,0.0,0.0,0.0,0.0,0.0,0.0,0.0,0.0,0.0,0.0,0.0,0.0,0.0,0.0,0.0,0.0,0.0,0.0,0.0,0.0,0.0,0.0,0.0,0.0,0.0,0.0,0.0,0.0,0.0,0.0,0.0,0.0,0.0,0.0,0.0,0.0,0.0,0.0,0.0,0.0,0.0,0.0,0.0,0.0,0.0,0.0,0.0,0.0,0.0,0.0,0.0,-3.2847,-3.253,-3.2878,-3.3006,-3.2762,-3.3255,-3.3555,-3.3658,-3.343,-3.3598,0.0,0.0,0.0,0.0,0.0,0.0,0.0,0.0,0.0,0.0,0.0,0.0,0.0,0.0,0.0,0.0,0.0,0.0,0.0,0.0,0.0,0.0,0.0,0.0,0.0,0.0,0.0,0.0,0.0,0.0,0.0,0.0,0.0,0.0,0.0,0.0,0.0,0.0,0.0,0.0,0.0,0.0,-3.727,-3.7303,0.0,0.0,0.0,-3.6704,-3.7069,0.0,0.0,0.0,0.0,0.0,0.0,0.0,0.0,0.0,0.0,0.0,0.0,0.0,0.0,0.0,0.0,0.0,0.0,0.0,0.0,0.0,0.0,0.0,0.0,0.0,0.0,0.0,0.0,0.0,0.0,0.0,0.0,0.0,0.0,0.0,0.0,0.0,0.0,0.0,0.0,0.0,0.0,0.0,0.0,0.0,0.0,0.0,0.0,0.0,0.0,0.0,0.0,0.0,0.0,0.0,0.0,0.0,-3.3159,-3.3422,-3.3503,-3.3309,-3.3539,-3.3797,-3.4034,-3.3697,0.0,0.0,0.0,0.0,0.0,0.0,0.0,0.0,0.0,0.0,0.0,0.0,0.0,0.0,0.0,0.0,0.0,0.0,0.0,0.0,0.0,0.0,0.0,0.0,0.0,0.0,0.0,-3.7577,0.0,0.0,0.0,0.0,0.0,0.0,0.0,0.0,0.0,0.0,0.0,0.0,0.0,0.0,-3.7802,-3.7785,-3.7802,-3.7751,0.0,0.0,-3.7347,-3.7632,-3.7432,-3.7281,0.0,0.0,0.0,0.0,0.0,0.0,0.0,0.0,0.0,0.0,0.0,0.0,0.0,0.0,0.0,0.0,0.0,0.0,0.0,0.0,0.0,0.0,0.0,0.0,0.0,0.0,0.0,0.0,0.0,0.0,0.0,0.0,0.0,0.0,0.0,0.0,0.0,0.0,0.0,0.0,0.0,0.0,0.0,0.0,0.0,0.0,0.0,0.0,0.0,0.0,0.0,0.0,0.0,0.0,-3.4169,-3.3986,-3.3575,-3.3487,-3.3813,-3.3745,-3.3949,-3.4448,-3.4448,-3.456,0.0,0.0,0.0,0.0,0.0,0.0,0.0,0.0,0.0,0.0,0.0,0.0,0.0,0.0,0.0,0.0,0.0,0.0,0.0,0.0,0.0,0.0,0.0,0.0,0.0,0.0,0.0,0.0,0.0,0.0,0.0,0.0,0.0,0.0,0.0,0.0,0.0,0.0,0.0,0.0,0.0,-3.8552,-3.9093,-3.9176,-3.9176,0.0,-3.8348,-3.8097,-3.9023,-3.8348,-3.7867,-3.8093,0.0,0.0,0.0,0.0,0.0,0.0,0.0,0.0,0.0,0.0,0.0,0.0,0.0,0.0,0.0,0.0,0.0,0.0,0.0,0.0,0.0,0.0,0.0,0.0,0.0,0.0,0.0,0.0,0.0,0.0,0.0,0.0,0.0,0.0,0.0,0.0,0.0,0.0,0.0,0.0,0.0,0.0,0.0,0.0,0.0,0.0,0.0,0.0,0.0,0.0,0.0,0.0,0.0,-3.4399,-3.4101,-3.4,-3.3915,-3.3899,-3.4267,-3.4642,-3.4913,-3.5165,-3.5441,0.0,0.0,0.0,0.0,0.0,0.0,0.0,0.0,0.0,0.0,0.0,0.0,0.0,0.0,0.0,0.0,0.0,0.0,0.0,0.0,0.0,0.0,0.0,0.0,0.0,0.0,0.0,0.0,-3.8044,-3.7649,-3.7356,0.0,0.0,0.0,0.0,0.0,0.0,0.0,0.0,0.0,0.0,-3.9063,-3.9292,-3.9288,0.0,0.0,-3.8987,-3.8851,-3.9239,-3.9003,-3.8751,-3.8858,-3.8874,0.0,0.0,0.0,0.0,0.0,0.0,0.0,0.0,0.0,0.0,0.0,0.0,0.0,0.0,0.0,0.0,0.0,0.0,0.0,0.0,0.0,0.0,0.0,0.0,0.0,0.0,0.0,0.0,0.0,0.0,0.0,0.0,0.0,0.0,0.0,0.0,0.0,0.0,0.0,0.0,0.0,0.0,0.0,0.0,0.0,0.0,0.0,0.0,0.0,0.0,0.0,0.0,-3.4643,-3.43,-3.4349,-3.4447,-3.4609,-3.5036,-3.5402,-3.5698,-3.5943,-3.6127,0.0,0.0,0.0,0.0,0.0,0.0,0.0,0.0,0.0,0.0,0.0,0.0,0.0,0.0,0.0,0.0,0.0,0.0,0.0,0.0,0.0,0.0,0.0,0.0,0.0,0.0,0.0,0.0,-3.85,-3.8028,-3.7694,0.0,0.0,0.0,0.0,0.0,0.0,0.0,0.0,0.0,0.0,-3.9603,-3.9603,-3.9785,-3.9901,-3.9918,-3.9918,-3.9847,-3.9918,-3.9901,-3.9847,-3.9901,0.0,0.0,0.0,0.0,0.0,0.0,0.0,0.0,0.0,0.0,0.0,0.0,0.0,0.0,0.0,0.0,0.0,0.0,0.0,0.0,0.0,0.0,0.0,0.0,0.0,0.0,0.0,0.0,0.0,0.0,-3.474,0.0,0.0,0.0,0.0,0.0,0.0,0.0,0.0,0.0,0.0,0.0,0.0,0.0,0.0,0.0,0.0,0.0,0.0,0.0,0.0,0.0,0.0,-3.4947,-3.4691,-3.4611,-3.5037,-3.6104,-3.604,-3.6265,-3.6842,-3.6734,-3.6548,-3.6217,0.0,0.0,0.0,0.0,0.0,0.0,0.0,0.0,0.0,0.0,0.0,0.0,0.0,0.0,0.0,0.0,0.0,0.0,0.0,0.0,0.0,0.0,0.0,0.0,0.0,0.0,-3.9388,-3.9241,-3.908,0.0,0.0,0.0,0.0,0.0,0.0,0.0,0.0,0.0,0.0,-4.0154,-4.0332,-4.0348,-4.0928,-4.1276,-4.1293,-4.1213,-4.1172,-4.1326,-4.1229,-4.1205,0.0,0.0,0.0,0.0,0.0,0.0,0.0,0.0,0.0,0.0,0.0,0.0,0.0,0.0,0.0,0.0,0.0,0.0,0.0,0.0,0.0,0.0,0.0,0.0,0.0,0.0,0.0,-3.5123,-3.5457,0.0,0.0,0.0,0.0,0.0,0.0,0.0,0.0,0.0,0.0,0.0,-3.6366,-3.6129,0.0,0.0,0.0,0.0,0.0,0.0,0.0,0.0,0.0,0.0,0.0,0.0,-3.5245,-3.5011,-3.5571,-3.6016,-3.6315,-3.7071,-3.7543,-3.7746,-3.7387,-3.7178,-3.7068,0.0,0.0,0.0,0.0,0.0,0.0,0.0,0.0,0.0,0.0,0.0,0.0,0.0,0.0,0.0,0.0,0.0,0.0,0.0,0.0,0.0,0.0,0.0,0.0,0.0,-3.9335,0.0,0.0,0.0,0.0,0.0,0.0,0.0,0.0,0.0,0.0,0.0,-3.9851,-4.054,-4.0071,-3.9889,-4.0315,-4.058,-4.0729,0.0,0.0,0.0,0.0,0.0,0.0,0.0,0.0,0.0,0.0,0.0,0.0,0.0,0.0,-4.3627,-4.2881,-4.2782,-4.2799,-4.2799,0.0,0.0,0.0,0.0,0.0,0.0,0.0,0.0,0.0,0.0,0.0,0.0,0.0,0.0,-3.5554,0.0,-3.6206,0.0,0.0,0.0,0.0,0.0,0.0,0.0,0.0,-3.5753,-3.5942,-3.6772,-3.6535,-3.6535,0.0,-3.6789,-3.6671,0.0,0.0,0.0,0.0,0.0,0.0,0.0,0.0,-3.5816,-3.5663,-3.6585,-3.7121,-3.7343,-3.8133,-3.8559,-3.8606,-3.8116,-3.787,-3.787,-3.8442,-3.897,0.0,0.0,0.0,0.0,0.0,0.0,0.0,0.0,0.0,0.0,0.0,0.0,0.0,0.0,0.0,0.0,0.0,0.0,0.0,0.0,0.0,0.0,0.0,-4.0102,0.0,0.0,0.0,0.0,0.0,0.0,0.0,0.0,0.0,-4.0829,-4.0341,-4.0324,-4.1067,-4.0274,-3.9918,-4.0647,0.0,0.0,0.0,0.0,0.0,0.0,0.0,-4.217,-4.2187,-4.2375,-4.2775,-4.3462,-4.4164,-4.457,-4.457,0.0,0.0,-4.3359,-4.3297,-4.335,-4.3333,-4.399,-4.4301,-4.3524,-4.3955,-4.4213,0.0,0.0,0.0,0.0,0.0,0.0,0.0,0.0,-3.4678,-3.4925,0.0,-3.5705,0.0,0.0,0.0,0.0,0.0,-3.6191,0.0,0.0,-3.5887,-3.6673,-3.8819,-3.8278,-3.8345,-3.8988,-3.8988,-3.8647,-3.8044,-3.6497,0.0,0.0,0.0,0.0,0.0,0.0,-3.676,-3.6683,-3.7503,-3.8278,-3.8937,-3.9168,-3.9265,-3.9388,-3.8952,-3.8663,-3.8629,-3.8681,-3.8708,-3.8725,-3.8849,0.0,0.0,0.0,0.0,0.0,0.0,0.0,0.0,0.0,0.0,0.0,0.0,0.0,0.0,0.0,0.0,0.0,0.0,0.0,0.0,-4.1209,0.0,0.0,0.0,0.0,0.0,0.0,0.0,0.0,0.0,0.0,-4.1898,-4.0815,-4.0392,-4.1342,0.0,0.0,0.0,0.0,-4.2767,-4.3429,-4.3595,-4.3595,-4.3595,-4.3595,-4.3595,-4.3595,0.0,0.0,-4.4497,-4.457,-4.4626,-4.4626,-4.4831,-4.4995,-4.4848,-4.4855,-4.4947,-4.5072,-4.5407,-4.5666,-4.5424,-4.5216,-4.525,-3.4819,0.0,0.0,0.0,0.0,-3.3026,-3.3739,-3.4805,-3.5272,-3.5833,-3.6597,-3.7023,0.0,0.0,0.0,0.0,0.0,0.0,-3.7853,-3.8151,-3.7883,-3.8233,-3.8988,-3.9309,-3.9563,-3.9766,-3.9766,-3.9443,-3.8732,-3.8275,-3.7801,-3.7386,0.0,0.0,0.0,0.0,-3.7614,-3.7695,-3.836,-3.8865,-3.9279,-3.9839,-3.9953,-3.964,-3.9996,-3.9957,-3.9405,-4.0089,-4.0474,-4.0474,-4.0672,0.0,0.0,0.0,0.0,0.0,0.0,0.0,0.0,0.0,0.0,0.0,0.0,0.0,0.0,0.0,0.0,0.0,0.0,0.0,-4.1014,-4.149,-4.1719,0.0,0.0,0.0,0.0,0.0,0.0,0.0,0.0,0.0,-4.334,-4.2655,-4.2244,0.0,0.0,-4.1672,-4.2088,-4.2518,-4.2791,-4.3007,0.0,0.0,0.0,-4.3747,-4.3628,-4.3763,-4.4006,-4.4202,-4.4553,-4.457,-4.4682,-4.4848,-4.494,-4.524,-4.6025,-4.5698,-4.5282,-4.514,-4.5424,-4.5632,-4.523,-4.5336,-4.5494,-3.5211,-3.4197,-3.4425,-3.397,-3.323,-3.3829,-3.4528,-3.5248,-3.595,-3.6594,-3.715,-3.7524,-3.7976,-3.8399,-3.8805,0.0,0.0,0.0,-3.8772,-3.8724,-3.9093,-3.9497,-3.9868,-4.0003,-4.024,-4.0493,-4.0223,-3.9901,-3.9625,-3.9527,-3.9355,-3.9024,0.0,0.0,-3.8018,-3.8289,-3.8441,-3.8554,-3.9251,-3.9674,-3.9771,-4.0585,-4.104,-4.119,-4.1639,-4.1704,-4.1284,-4.1841,-4.1992,-4.1696,-4.188,-4.1831,0.0,0.0,0.0,0.0,0.0,0.0,0.0,0.0,0.0,0.0,0.0,-4.2749,-4.2273,0.0,0.0,0.0,-4.184,-4.1925,-4.2026,-4.2529,0.0,0.0,0.0,0.0,0.0,0.0,0.0,-4.3679,-4.3696,-4.3939,-4.4578,-4.4251,-4.3872,-4.362,-4.2614,-4.2083,-4.2649,0.0,-4.2767,-4.3066,-4.3481,-4.3822,-4.3881,-4.3822,-4.3889,-4.4415,-4.4697,-4.501,-4.5546,-4.5742,-4.5922,-4.6032,-4.6141,-4.6441,-4.7176,-4.6916,-4.6534,-4.6339,-4.6604,-4.6743,-4.6446,-4.6481,-4.6482,-3.5419,-3.4625,-3.4938,-3.4576,-3.3895,-3.4957,-3.543,-3.5537,-3.6443,-3.6984,-3.7077,-3.7496,-3.7876,-3.8253,-3.9068,0.0,-3.8562,-3.9315,-3.9389,-3.8858,-3.9681,-4.0492,-4.1153,-4.0561,-4.0612,-4.1271,-4.0646,-4.0476,-4.0624,-4.061,-4.0576,-4.0556,-3.9067,-3.8289,-3.8299,-3.8945,-3.9319,-3.9404,-4.018,-4.0556,-4.0542,-4.1439,-4.2391,-4.336,-4.3412,-4.3444,-4.3589,-4.3589,-4.3276,-4.2532,-4.2568,-4.2265,-4.1565,0.0,0.0,0.0,0.0,0.0,0.0,0.0,0.0,0.0,0.0,0.0,0.0,0.0,0.0,0.0,-4.2731,0.0,-4.3383,-4.3935,0.0,0.0,0.0,-4.382,-4.3992,-4.3742,-4.391,-4.4872,0.0,0.0,-4.5546,-4.5632,-4.5252,-4.418,-4.2949,-4.2344,-4.3032,-4.2932,-4.2974,-4.363,-4.378,-4.3846,-4.4014,-4.4198,-4.4641,-4.5426,-4.5824,-4.6288,-4.6962,-4.7351,-4.7634,-4.7672,-4.7922,-4.8171,-4.8223,-4.84,-4.8574,-4.854,-4.847,-4.8416,-4.8294,-4.812,-4.777,-3.5514,-3.5461,-3.5667,-3.5001,-3.3849,-3.4332,-3.4788,-3.5278,-3.5827,-3.6599,-3.7592,-3.7445,-3.8073,-3.9341,-4.0029,-4.0625,-4.1171,-4.1392,-4.118,-4.0644,-4.1388,-4.1523,-4.1221,-4.1593,-4.1863,-4.2049,-4.2439,-4.2373,-4.1918,-4.2583,-4.253,-4.1884,-4.1562,-4.0815,-3.9664,-3.9898,-4.0355,-4.0999,-4.122,-4.1663,-4.2363,-4.2802,-4.3123,-4.3395,-4.351,-4.3558,-4.3607,-4.3637,-4.358,-4.3388,-4.2958,-4.2682,-4.2472,-4.1893,0.0,0.0,0.0,0.0,0.0,0.0,0.0,0.0,0.0,-4.4112,-4.3156,0.0,-4.3075,0.0,-4.3807,-4.4209,-4.4095,-4.4325,0.0,0.0,-4.4847,-4.5064,-4.4959,-4.5308,-4.5583,-4.5725,-4.5711,-4.573,-4.5752,-4.5838,-4.5751,-4.5355,-4.4517,-4.3934,-4.4136,-4.4454,-4.4673,-4.4575,-4.5083,-4.5518,-4.5665,-4.6237,-4.6664,-4.6822,-4.6977,-4.7219,-4.7412,-4.7593,-4.7813,-4.8066,-4.8225,-4.8592,-4.9432,-4.9607,-4.9802,-5.0189,-4.9433,-4.8399,-4.826,-4.8207,-4.8225,-3.5797,-3.5831,-3.6022,-3.5596,-3.4865,-3.5171,-3.5737,-3.6338,-3.6615,-3.7405,-3.8513,-3.8584,-3.9275,-4.0255,-4.0498,-4.0925,-4.1456,-4.1564,-4.1603,-4.1639,-4.2402,-4.276,-4.2709,-4.276,-4.2794,-4.2777,-4.2557,-4.2388,-4.2426,-4.2564,-4.2617,-4.2515,-4.2567,-4.2227,-4.1426,-4.1392,-4.163,-4.2192,-4.226,-4.2721,-4.363,-4.3865,-4.4153,-4.455,-4.4617,-4.4715,-4.4764,-4.4795,-4.4686,-4.4353,-4.3664,-4.3149,-4.2816,-4.2043,-4.1604,0.0,0.0,0.0,0.0,0.0,0.0,0.0,0.0,0.0,0.0,0.0,-4.4227,-4.3784,-4.4591,-4.5072,-4.4847,-4.5285,-4.5525,-4.5453,-4.578,-4.5981,-4.5811,-4.6086,-4.6235,-4.6105,-4.6105,-4.6023,-4.5821,-4.5905,-4.5922,-4.5736,-4.5505,-4.5367,-4.5401,-4.5592,-4.5739,-4.5857,-4.6293,-4.6662,-4.679,-4.7189,-4.7584,-4.7894,-4.8148,-4.8401,-4.8754,-4.8948,-4.9253,-4.9504,-4.9539,-4.9785,-5.0486,-5.0522,-5.0594,-5.0823,-5.0312,-4.9591,-4.9361,-4.9415,-4.9398,-3.6037,-3.6037,-3.6148,-3.6211,-3.6274,-3.6585,-3.7002,-3.7544,-3.7763,-3.8341,-3.9235,-4.0087,-4.0707,-4.1016,-4.0967,-4.0988,-4.1126,-4.1362,-4.1772,-4.2328,-4.3061,-4.3724,-4.4304,-4.3589,-4.3284,-4.3288,-4.2066,-4.1935,-4.2634,-4.2159,-4.2244,-4.2979,-4.31,-4.3168,-4.3305,-4.3134,-4.3117,-4.3219,-4.3406,-4.3919,-4.4644,-4.4811,-4.5242,-4.5938,-4.6023,-4.6073,-4.6189,-4.6189,-4.5923,-4.5256,-4.4483,-4.3763,-4.3131,-4.2342,-4.1885,0.0,-4.2552,0.0,0.0,0.0,0.0,0.0,0.0,0.0,0.0,-4.6047,-4.5561,-4.442,-4.5302,-4.5873,-4.5737,-4.6404,-4.6795,-4.6666,-4.6637,-4.659,-4.6495,-4.6429,-4.6381,-4.6301,-4.6235,-4.6154,-4.5939,-4.5972,-4.5922,-4.577,-4.6083,-4.6427,-4.6738,-4.6622,-4.6747,-4.7283,-4.7403,-4.764,-4.7803,-4.7962,-4.8294,-4.8965,-4.9356,-4.9781,-5.0291,-5.068,-5.0963,-5.1052,-5.1035,-5.114,-5.135,-5.1228,-5.107,-5.1141,-5.091,-5.0768,-5.0785,-5.075,-5.0608,-3.6085,-3.6133,-3.6211,-3.6274,-3.6476,-3.6662,-3.6677,-3.6739,-3.7079,-3.77,-3.8728,-3.9955,-4.0967,-4.1796,-4.2325,-4.3021,-4.3833,-4.3888,-4.3618,-4.3162,-4.3297,-4.322,-4.287,-4.261,-4.263,-4.2909,-4.3093,-4.3384,-4.3627,-4.4213,-4.4557,-4.4712,-4.4765,-4.4818,-4.4906,0.0,0.0,0.0,-4.4972,-4.5354,-4.5544,-4.5713,-4.5815,-4.6023,-4.6073,0.0,-4.6189,-4.6189,-4.6168,-4.601,-4.5273,0.0,0.0,0.0,0.0,0.0,0.0,0.0,0.0,0.0,0.0,0.0,-4.6108,-4.6133,-4.6115,-4.6151,-4.6029,-4.5676,-4.6347,-4.6829,-4.6874,-4.6936,-4.6934,-4.6934,-4.6934,-4.6888,-4.6749,-4.6731,-4.6684,-4.6542,-4.6447,-4.6368,-4.6438,-4.6305,-4.6207,-4.6245,-4.6248,-4.679,-4.798,-4.8147,-4.8187,-4.8023,-4.8568,-4.9096,-4.9239,-4.9853,-5.0186,-5.0521,-5.0699,-5.0893,-5.0946,-5.107,-5.1264,-5.1368,-5.1402,-5.1472,-5.1607,-5.1454,-5.1246,-5.1246,-5.1088,-5.0891,-5.0891,-5.0891,-5.0838,-3.6289,0.0,-3.6352,-3.6661,0.0,-3.7219,-3.7436,-3.7825,-3.7935,-3.8685,-3.9976,-4.1158,-4.1987,-4.2463,-4.2898,-4.3418,-4.3883,-4.3623,-4.3436,-4.342,-4.3508,-4.3545,-4.3512,-4.3512,-4.3654,-4.3778,-4.3724,-4.3983,-4.4414,-4.4592,-4.4869,-4.5266,-4.5353,-4.5511,-4.5701,-4.5752,-4.5629,-4.5246,-4.568,-4.5922,-4.5922,-4.6023,-4.609,-4.6122,0.0,0.0,0.0,0.0,0.0,0.0,0.0,0.0,0.0,0.0,0.0,-4.4071,-4.4089,-4.4271,-4.4624,-4.5043,-4.5548,-4.6302,-4.6699,-4.6898,-4.6812,-4.6769,-4.6719,-4.6631,-4.6856,-4.7025,-4.7088,-4.6998,-4.6888,-4.6888,-4.6888,-4.6888,-4.686,-4.7198,-4.7251,-4.6897,-4.7346,-4.7515,-4.6716,-4.6825,-4.6724,-4.6509,-4.6706,-4.7304,-4.8377,-4.8732,-4.8924,-4.9556,-5.0013,-5.04,-5.0506,-5.0823,-5.1176,-5.1088,-5.1211,-5.1246,-5.1211,-5.1281,-5.135,-5.1472,-5.1523,-5.1556,-5.164,-5.1538,-5.1384,-5.1402,-5.1246,-5.1088,-5.1088,-5.0998,-5.0891,-3.6569,-3.6661,-3.6739,-3.7187,-3.7996,-3.8059,-3.859,-3.9374,0.0,0.0,0.0,-4.2314,-4.2831,-4.3019,-4.3272,-4.3418,-4.3423,-4.298,-4.3085,-4.366,-4.3858,-4.4198,-4.472,-4.4831,-4.4886,-4.4906,-4.4326,-4.4397,-4.5106,-4.4629,-4.4785,-4.5459,-4.5615,-4.577,-4.5972,-4.6122,-4.609,-4.5871,-4.5972,-4.604,-4.6023,-4.6122,-4.6189,-4.6189,-4.6189,-4.6189,-4.6189,-4.6189,-4.6189,-4.6172,-4.5624,-4.5308,-4.5273,-4.4676,-4.4402,-4.4678,-4.4723,-4.4903,-4.5396,-4.6032,-4.6477,-4.668,-4.7337,-4.7657,-4.7554,-4.7407,-4.732,-4.7267,-4.7133,-4.7043,-4.7043,-4.6934,-4.6842,-4.6842,-4.6842,-4.6842,-4.6877,-4.7487,-4.7611,-4.7097,-4.7897,-4.8245,-4.6905,-4.7033,-4.7205,-4.6711,-4.71,-4.7982,-4.8809,-4.9235,-4.9817,-5.0857,-5.1105,-5.1245,-5.1281,-5.1333,-5.1315,-5.1349,-5.1368,-5.1386,-5.1383,-5.1347,-5.1434,-5.1538,-5.1556,-5.1607,-5.1658,-5.1607,-5.1523,-5.1523,-5.1384,-5.1298,-5.1298,-5.1141,-5.0998,-3.683,-3.7353,-3.7544,-3.7994,-3.8694,-3.8983,-3.9581,-4.0323,-3.9597,-3.9945,-4.1134,-4.1678,-4.2507,-4.3519,-4.3946,-4.4271,-4.4567,-4.4504,-4.4558,0.0,-4.4824,-4.493,-4.514,-4.514,-4.5247,-4.5459,-4.539,-4.5442,-4.5649,-4.5614,-4.5665,-4.5854,-4.5821,-4.5871,-4.5972,-4.6023,-4.6073,-4.614,-4.6189,-4.6172,-4.6189,-4.6172,-4.6189,-4.6189,-4.6189,-4.6189,-4.6189,-4.6189,-4.6189,-4.6189,-4.6067,-4.6063,-4.6063,-4.594,-4.6002,-4.6271,-4.6253,-4.6486,-4.6934,-4.7086,-4.7245,-4.7494,-4.7645,-4.7699,-4.7657,-4.7554,-4.7468,-4.7468,-4.7267,-4.7178,-4.7133,-4.7025,-4.6952,-4.6952,-4.6998,-4.6998,-4.6952,-4.714,-4.7194,-4.6987,-4.7002,-4.7251,-4.702,-4.6915,-4.6962,-4.6873,-4.7546,-4.8342,-4.9682,-5.0571,-5.0997,-5.1228,-5.1298,-5.1298,-5.1333,-5.1402,-5.1489,-5.1472,-5.1592,-5.1696,-5.1729,-5.1729,-5.1747,-5.1658,-5.1729,-5.1744,-5.1708,-5.1589,-5.1505,-5.1505,-5.1384,-5.1333,-5.1333,-5.1298,-5.1193,-3.7621,-3.8209,-3.8447,-3.8885,-3.9654,-4.0369,-4.091,-4.126,-4.0992,-4.1199,-4.1803,-4.2301,-4.3026,-4.3856,-4.435,-4.4703,-4.4886,-4.494,-4.494,-4.4978,-4.5086,-4.5086,-4.5086,-4.5194,-4.523,-4.5389,-4.5441,-4.5546,-4.5684,-4.577,-4.5889,-4.5972,-4.6023,-4.604,-4.6105,-4.6122,-4.6122,-4.6189,-4.6189,-4.6189,-4.6189,-4.6189,-4.6189,-4.6189,-4.6189,-4.6189,-4.6189,-4.6189,-4.6189,-4.6189,-4.6368,-4.6416,-4.6398,-4.656,-4.6731,-4.6962,-4.7007,-4.7143,-4.7511,-4.7511,-4.7554,-4.7735,-4.8116,-4.8127,-4.7633,-4.7511,-4.745,-4.7407,-4.7249,-4.7196,-4.7106,-4.7043,-4.6998,-4.6998,-4.6998,-4.6998,-4.7051,-4.7408,-4.7444,-4.7158,-4.77,-4.7879,-4.7087,-4.7589,-4.7819,-4.7761,-4.8453,-4.9581,-5.0325,-5.104,-5.1487,-5.1538,-5.1589,-5.1607,-5.1574,-5.205,-5.2085,-5.1696,-5.2029,-5.2294,-5.235,-5.2353,-5.2353,-5.235,-5.2315,-5.2154,-5.1815,-5.164,-5.1607,-5.1607,-5.1538,-5.1487,-5.1487,-5.1454,-5.135,-3.7964,-3.8601,-3.8824,-3.9485,-4.0448,-4.1292,-4.1739,-4.1947,-4.2174,-4.2412,-4.2618,-4.2974,-4.3502,-4.4145,-4.4592,-4.4886,-4.5049,-4.5032,-4.5049,-4.5103,-4.5194,-4.5194,-4.5086,-4.5247,-4.5283,-4.5336,-4.5494,-4.5598,-4.5718,-4.5838,-4.5922,-4.6023,-4.6154,-4.6189,-4.6189,-4.6189,-4.6189,-4.6189,-4.6189,-4.6189,-4.6189,-4.6189,-4.6189,-4.6189,-4.6189,-4.6189,-4.6189,-4.6189,-4.6189,-4.6239,-4.6447,-4.659,-4.659,-4.6824,-4.7116,-4.7276,-4.732,-4.7497,-4.7928,-4.7971,-4.7971,-4.7989,-4.855,-4.8598,-4.7933,-4.7962,-4.7767,-4.7365,-4.7223,-4.7151,-4.7043,-4.6998,-4.6998,-4.6998,-4.6998,-4.6998,-4.7051,-4.7533,-4.7693,-4.7247,-4.8211,-4.8514,-4.78,-4.8413,-4.9012,-4.8977,-4.9786,-5.0495,-5.0798,-5.1333,-5.1654,-5.174,-5.1858,-5.1858,-5.1844,-5.2305,-5.2398,-5.18,-5.2187,-5.2401,-5.2529,-5.2586,-5.2622,-5.2511,-5.2547,-5.2297,-5.1815,-5.169,-5.169,-5.1708,-5.164,-5.169,-5.164,-5.1538,-5.135,-3.7328,-3.8013,-3.8435,-3.9314,-4.0722,-4.0896,-4.1406,-4.2077,-4.2569,-4.2925,-4.3185,-4.3262,-4.3722,-4.4446,-4.4703,-4.4923,-4.5194,-4.5177,-4.5247,-4.5371,-4.5371,-4.5371,-4.5371,-4.5459,-4.5615,-4.5718,-4.5871,-4.5972,-4.6073,-4.614,-4.6189,-4.6172,-4.6189,-4.6189,-4.6189,-4.6189,-4.6189,-4.6189,-4.6189,-4.6189,-4.6189,-4.6189,-4.6189,-4.6189,-4.6189,-4.6189,-4.6189,-4.6189,-4.6189,-4.6221,-4.6464,-4.6607,-4.6655,-4.6877,-4.7133,-4.7312,-4.7356,-4.7713,-4.867,-4.8804,-4.8804,-4.8822,-4.8894,-4.8869,-4.8797,-4.9288,-4.8956,-4.7716,-4.7295,-4.7187,-4.7043,-4.6998,-4.6998,-4.6998,-4.6998,-4.6998,-4.7015,-4.7051,-4.7051,-4.7015,-4.7907,-4.8222,-4.8243,-4.8883,-4.9554,-5.0125,-5.0423,-5.0834,-5.1333,-5.1547,-5.174,-5.1858,-5.1907,-5.1956,-5.2005,-5.1992,-5.2112,-5.1932,-5.1892,-5.2029,-5.2101,-5.2029,-5.1851,-5.2279,-5.2011,-5.1958,-5.1779,-5.169,-5.169,-5.169,-5.169,-5.169,-5.1708,-5.1505,-5.1298,-3.9439,-4.0132,-4.0468,-4.1023,-4.1661,-4.1308,-4.1643,-4.2539,-4.2743,-4.3218,-4.3713,-4.3772,-4.4162,-4.4814,-4.4978,-4.514,-4.53,-4.5423,-4.5459,-4.5511,-4.5615,-4.5615,-4.5615,-4.5667,-4.577,-4.5838,-4.5922,-4.6023,-4.609,-4.6172,-4.6189,-4.6189,-4.6189,-4.6189,-4.6189,-4.6189,-4.6189,-4.6189,-4.6189,-4.6189,-4.6189,-4.6189,-4.6189,-4.6189,-4.6189,-4.6189,-4.6189,-4.6189,-4.6319,-4.6578,-4.7233,-4.7668,-4.7859,-4.8533,-4.8937,-4.8963,-4.8963,-4.9151,-4.9601,-4.9619,-4.9601,-4.9601,-4.9557,-4.9513,-4.9495,-4.9622,-4.9341,-4.8802,-4.8173,-4.7635,-4.7132,-4.6998,-4.6998,-4.6998,-4.6998,-4.6998,-4.6998,-4.7408,-4.7693,-4.7729,-4.8371,-4.8835,-4.8972,-4.9519,-5.0289,-5.103,-5.1208,-5.1333,-5.1654,-5.169,-5.174,-5.1858,-5.1956,-5.2054,-5.212,-5.2503,-5.2444,-5.2154,-5.2177,-5.2422,-5.2362,-5.2386,-5.244,-5.235,-5.2279,-5.2065,-5.1762,-5.1708,-5.169,-5.169,-5.1708,-5.1708,-5.1589,-5.1505,-5.135,-4.0563,-4.088,-4.0928,-4.1307,-4.18,-4.13,-4.1776,-4.2896,-4.3068,-4.3492,-4.4097,-4.427,-4.4648,-4.5086,-4.523,-4.5353,-4.5476,-4.5581,-4.5667,-4.5684,-4.577,-4.5787,-4.5787,-4.5787,-4.5821,-4.5871,-4.5972,-4.6023,-4.6073,-4.6122,-4.6189,-4.6189,-4.6189,-4.6189,-4.6189,-4.6189,-4.6221,-4.627,-4.627,-4.627,-4.6319,-4.6368,-4.6368,-4.6221,-4.6221,-4.627,-4.6368,-4.6416,-4.6542,-4.6934,-4.7725,-4.8317,-4.8746,-4.9343,-4.9701,-4.9894,-5.005,-5.0268,-5.0449,-5.053,-5.0504,-5.046,-5.0416,-5.0308,-5.0299,-5.0214,-5.0168,-5.0027,-4.9339,-4.8536,-4.7553,-4.7365,-4.7275,-4.7051,-4.6998,-4.6998,-4.7033,-4.7693,-4.8139,-4.8293,-4.9014,-4.9763,-5.0013,-5.0467,-5.1055,-5.1547,-5.1654,-5.169,-5.169,-5.169,-5.174,-5.1907,-5.2054,-5.2102,-5.2186,-5.251,-5.261,-5.2422,-5.2362,-5.2555,-5.2691,-5.2681,-5.2684,-5.2301,-5.2541,-5.2472,-5.1919,-5.1758,-5.169,-5.169,-5.169,-5.1708,-5.1607,-5.1556,-5.1454,-3.9572,-3.9134,-3.843,-3.9248,-4.0594,-4.0577,-4.152,-4.3174,-4.3519,-4.3906,-4.4212,-4.4652,-4.5069,-4.5372,-4.5337,-4.5441,-4.5563,-4.5718,-4.5787,-4.5787,-4.5838,-4.5838,-4.5787,-4.5838,-4.5871,-4.5972,-4.604,-4.6073,-4.6172,-4.6189,-4.6189,-4.6221,-4.6221,-4.6239,-4.6221,-4.6239,-4.627,-4.6398,-4.6451,-4.6482,-4.6643,-4.6895,-4.6808,-4.646,-4.635,-4.6542,-4.6749,-4.6888,-4.707,-4.7276,-4.7619,-4.8109,-4.8774,-4.8489,-4.8648,-4.9263,-4.9992,-5.0721,-5.134,-5.1486,-5.1479,-5.1409,-5.1328,-5.1302,-5.114,-5.1344,-5.1304,-5.1048,-5.0551,-4.9734,-4.8665,-4.836,-4.801,-4.7311,-4.7132,-4.715,-4.7132,-4.8007,-4.8186,-4.8525,-4.9603,-5.062,-5.1387,-5.1601,-5.1601,-5.1672,-5.169,-5.169,-5.169,-5.169,-5.1808,-5.1956,-5.2102,-5.215,-5.2264,-5.2426,-5.2396,-5.221,-5.2161,-5.2179,-5.2156,-5.2138,-5.2125,-5.2113,-5.2122,-5.2054,-5.1911,-5.179,-5.174,-5.169,-5.169,-5.164,-5.1589,-5.1556,-5.1365,-4.0188,-4.0,-3.9363,-4.0073,-4.1514,-4.1079,-4.192,-4.368,-4.3772,-4.4121,-4.4563,-4.4465,-4.473,-4.5372,-4.5164,-4.5318,-4.5701,-4.5871,-4.5922,-4.5922,-4.6023,-4.6073,-4.6073,-4.6073,-4.6073,-4.6122,-4.614,-4.6122,-4.6189,-4.6189,-4.627,-4.6301,-4.6301,-4.635,-4.6447,-4.6464,-4.6495,-4.6595,-4.702,-4.7399,-4.7672,-4.8193,-4.8461,-4.8389,-4.7461,-4.7035,-4.7125,-4.7187,-4.732,-4.7585,-4.8218,-4.8738,-4.9154,-4.945,-4.9669,-5.0016,-5.0727,-5.1292,-5.1602,-5.2076,-5.2342,-5.228,-5.1799,-5.1464,-5.1357,-5.1013,-5.0813,-5.1058,-5.1056,-5.0556,-5.0142,-4.9557,-4.9016,-4.8801,-4.8693,-4.8657,-4.8854,-4.941,-4.9894,-5.0074,-5.0838,-5.1526,-5.1654,-5.1744,-5.1726,-5.1779,-5.1744,-5.1708,-5.169,-5.169,-5.174,-5.184,-5.1987,-5.2102,-5.2005,-5.2216,-5.2264,-5.2119,-5.2083,-5.2054,-5.2018,-5.2048,-5.2071,-5.2077,-5.1943,-5.1858,-5.184,-5.184,-5.179,-5.179,-5.179,-5.179,-5.1589,-5.164,-5.134,-4.0691,-4.0645,-3.9797,-4.0263,-4.1469,-4.1214,-4.208,-4.3614,-4.3848,-4.4175,-4.448,-4.4162,-4.4457,-4.513,-4.4983,-4.5274,-4.587,-4.6023,-4.6073,-4.6073,-4.6172,-4.6189,-4.6189,-4.6189,-4.6189,-4.6189,-4.6189,-4.6221,-4.6253,-4.6253,-4.6491,-4.6817,-4.6835,-4.7024,-4.728,-4.7103,-4.7115,-4.7512,-4.7844,-4.82,-4.8811,-4.9369,-4.973,-4.9739,-4.8942,-4.8338,-4.8215,-4.8276,-4.8466,-4.879,-4.9286,-4.9679,-4.987,-5.0268,-5.0519,-5.0574,-5.1036,-5.1323,-5.1438,-5.2072,-5.2382,-5.2101,-5.1584,-5.1169,-5.1046,-5.0424,-5.0416,-5.0751,-5.1085,-5.1102,-5.1048,-5.0703,-5.0221,-4.9855,-4.9647,-4.9665,-4.9747,-5.0282,-5.0773,-5.1047,-5.1433,-5.1794,-5.1847,-5.1772,-5.1772,-5.183,-5.1744,-5.1708,-5.169,-5.169,-5.1708,-5.1758,-5.1907,-5.1956,-5.1956,-5.2102,-5.2257,-5.2196,-5.2196,-5.2141,-5.2058,-5.2042,-5.2018,-5.2023,-5.1943,-5.1907,-5.1889,-5.1871,-5.192,-5.192,-5.2,-5.2048,-5.192,-5.1889,-5.1589,-4.0967,-4.0803,-3.9444,-3.9604,-4.0555,-4.1139,-4.1889,-4.3039,-4.3829,-4.4159,-4.4158,-4.4026,-4.4457,-4.4893,-4.4991,-4.5355,-4.6067,-4.6221,-4.6221,-4.6172,-4.6189,-4.6221,-4.6221,-4.6221,-4.6239,-4.6221,-4.6239,-4.6319,-4.6398,-4.6504,-4.6905,-4.7586,-4.7776,-4.8094,-4.8958,-4.8196,-4.8324,-4.8936,-4.8762,-4.9028,-4.9963,-5.0355,-5.0575,-5.0581,-5.0657,-5.0561,-5.0216,-5.0247,-5.0282,-5.0538,-5.0652,-5.0784,-5.0652,-5.0743,-5.0784,-5.0762,-5.0835,-5.0875,-5.1004,-5.1678,-5.1857,-5.1339,-5.0822,-5.0884,-5.0641,-5.0428,-5.0384,-5.0496,-5.0832,-5.1184,-5.1438,-5.1744,-5.1506,-5.0135,-4.9934,-4.9952,-4.9988,-5.0277,-5.0798,-5.149,-5.174,-5.169,-5.1705,-5.1714,-5.1746,-5.174,-5.1708,-5.169,-5.169,-5.169,-5.1758,-5.1875,-5.1956,-5.2036,-5.1987,-5.2036,-5.2173,-5.2278,-5.2333,-5.2333,-5.2325,-5.2286,-5.2304,-5.2246,-5.218,-5.2162,-5.2114,-5.2096,-5.2191,-5.2239,-5.2315,-5.2268,-5.2191,-5.2126,-5.2112,-4.0899,-4.1295,-4.0978,-4.1233,-4.1969,-4.2316,-4.3042,-4.3979,-4.4524,-4.477,-4.4853,-4.4697,-4.4968,-4.5346,-4.5313,-4.555,-4.6168,-4.6398,-4.6368,-4.6221,-4.6239,-4.627,-4.6301,-4.627,-4.6253,-4.635,-4.6447,-4.6495,-4.6631,-4.709,-4.7581,-4.7943,-4.8506,-4.891,-4.919,-4.8941,-4.9073,-4.9365,-4.9876,-5.0397,-5.0941,-5.1635,-5.2126,-5.2291,-5.2412,-5.2352,-5.2254,-5.1247,-5.0721,-5.0857,-5.082,-5.0762,-5.0721,-5.0762,-5.0743,-5.0758,-5.1293,-5.1628,-5.172,-5.2307,-5.2656,-5.2394,-5.2357,-5.1998,-5.1414,-5.1225,-5.114,-5.1064,-5.1284,-5.1529,-5.2027,-5.2271,-5.2116,-5.17,-5.1581,-5.1445,-5.1427,-5.1715,-5.1892,-5.203,-5.2036,-5.1943,-5.1933,-5.1875,-5.1768,-5.1844,-5.1794,-5.169,-5.169,-5.174,-5.1808,-5.2005,-5.2084,-5.2162,-5.2257,-5.2304,-5.2408,-5.2435,-5.2444,-5.2477,-5.247,-5.2518,-5.249,-5.249,-5.2444,-5.2379,-5.2333,-5.2379,-5.2472,-5.2454,-5.2408,-5.2408,-5.2408,-5.2417,-5.2391,-4.1377,-4.1993,-4.1838,-4.2028,-4.2551,-4.2898,-4.3507,-4.4279,-4.4858,-4.5075,-4.5061,-4.4965,-4.5149,-4.5495,-4.5404,-4.5729,-4.6297,-4.6525,-4.6495,-4.635,-4.6368,-4.6416,-4.6447,-4.6398,-4.6416,-4.6495,-4.6542,-4.6637,-4.6737,-4.753,-4.7986,-4.8194,-4.9216,-4.9733,-4.9745,-4.9859,-4.9997,-5.0462,-5.094,-5.1457,-5.2025,-5.2612,-5.3017,-5.3164,-5.3206,-5.3206,-5.3133,-5.2197,-5.1683,-5.1701,-5.1701,-5.1642,-5.1582,-5.1362,-5.1142,-5.1193,-5.1486,-5.1705,-5.154,-5.2095,-5.2498,-5.2315,-5.2265,-5.2045,-5.1486,-5.1394,-5.1328,-5.114,-5.1326,-5.1682,-5.2046,-5.2399,-5.2462,-5.248,-5.2379,-5.2387,-5.2358,-5.2405,-5.2322,-5.2198,-5.2132,-5.2107,-5.205,-5.1996,-5.1871,-5.1925,-5.1925,-5.1938,-5.1938,-5.1969,-5.2114,-5.2275,-5.2397,-5.2536,-5.2563,-5.2608,-5.2654,-5.2608,-5.2536,-5.256,-5.2586,-5.2699,-5.2717,-5.2672,-5.2608,-5.2608,-5.2563,-5.2717,-5.2824,-5.2717,-5.2654,-5.2761,-5.2806,-5.2761,-5.2733,-4.2411,-4.2914,-4.2344,-4.2219,-4.2412,-4.3052,-4.3698,-4.4143,-4.4868,-4.5148,-4.495,-4.5114,-4.5256,-4.5381,-4.5547,-4.5929,-4.6484,-4.6637,-4.6637,-4.6637,-4.6637,-4.6637,-4.6572,-4.6607,-4.6637,-4.659,-4.6637,-4.6684,-4.6877,-4.7718,-4.8157,-4.8318,-4.9609,-5.0515,-5.0324,-5.0695,-5.1189,-5.1736,-5.1799,-5.2199,-5.2993,-5.3146,-5.3164,-5.3206,-5.3206,-5.3206,-5.317,-5.3041,-5.3059,-5.317,-5.3004,-5.2968,-5.2944,-5.2309,-5.1925,-5.1864,-5.1761,-5.1444,-5.1025,-5.1676,-5.1846,-5.1376,-5.1362,-5.089,-5.1078,-5.1266,-5.1224,-5.1,-5.1395,-5.1759,-5.1845,-5.2173,-5.249,-5.2498,-5.248,-5.234,-5.2228,-5.234,-5.2415,-5.2304,-5.2173,-5.2191,-5.224,-5.218,-5.2155,-5.2119,-5.2144,-5.2209,-5.2286,-5.2333,-5.2518,-5.2654,-5.2761,-5.2787,-5.2831,-5.2919,-5.2962,-5.2875,-5.2787,-5.2808,-5.2753,-5.2834,-5.2912,-5.285,-5.2831,-5.2806,-5.285,-5.2955,-5.306,-5.3042,-5.3085,-5.3164,-5.3164,-5.306,-5.298,-4.3284,-4.3327,-4.3809,-4.3749,-4.3359,-4.413,-4.4707,-4.5043,-4.5425,-4.5664,-4.5789,-4.6051,-4.6094,-4.6242,-4.6318,-4.6571,-4.6713,-4.6842,-4.6888,-4.6888,-4.6888,-4.6778,-4.6684,-4.6795,-4.6842,-4.6795,-4.6842,-4.6906,-4.7005,-4.7783,-4.8186,-4.8211,-4.9234,-4.9782,-4.9977,-5.0574,-5.1092,-5.1593,-5.2217,-5.2558,-5.282,-5.3066,-5.3206,-5.3206,-5.3188,-5.3188,-5.3206,-5.3206,-5.3206,-5.3206,-5.3206,-5.3164,-5.3066,-5.2865,-5.2718,-5.2615,-5.2571,-5.2578,-5.2474,-5.2505,-5.2523,-5.2413,-5.2236,-5.2358,-5.2211,-5.2211,-5.2167,-5.2098,-5.2316,-5.2389,-5.2327,-5.2454,-5.2608,-5.269,-5.269,-5.2717,-5.2787,-5.2857,-5.29,-5.2839,-5.2769,-5.2735,-5.2708,-5.2627,-5.2554,-5.2481,-5.2472,-5.2472,-5.2545,-5.2608,-5.2743,-5.2875,-5.2962,-5.3091,-5.3133,-5.3217,-5.3277,-5.3235,-5.3133,-5.3072,-5.306,-5.2987,-5.3066,-5.3103,-5.3023,-5.3023,-5.3085,-5.317,-5.3272,-5.323,-5.323,-5.3206,-5.3206,-5.3164,-5.3103,-4.2959,-4.3141,-4.369,-4.3863,-4.3849,-4.4365,-4.4991,-4.5597,-4.5837,-4.607,-4.6332,-4.6542,-4.6637,-4.6684,-4.6778,-4.6842,-4.6888,-4.6998,-4.7025,-4.707,-4.7088,-4.6952,-4.6842,-4.6934,-4.6934,-4.6888,-4.6934,-4.6998,-4.7122,-4.7829,-4.8054,-4.8092,-4.8969,-4.9467,-4.9361,-5.0236,-5.076,-5.1064,-5.1876,-5.2444,-5.2505,-5.2608,-5.2949,-5.3004,-5.2949,-5.2803,-5.3115,-5.3206,-5.3206,-5.3206,-5.3206,-5.3164,-5.3103,-5.3103,-5.3103,-5.2999,-5.2955,-5.2827,-5.2633,-5.2779,-5.2816,-5.259,-5.2681,-5.2919,-5.2813,-5.2806,-5.2743,-5.2839,-5.2893,-5.285,-5.285,-5.2831,-5.29,-5.3048,-5.3091,-5.3091,-5.3096,-5.3096,-5.3096,-5.3096,-5.3072,-5.3066,-5.306,-5.298,-5.2907,-5.2852,-5.2784,-5.282,-5.2882,-5.29,-5.2919,-5.3091,-5.3235,-5.3336,-5.3359,-5.3418,-5.34,-5.3359,-5.33,-5.3263,-5.3277,-5.3157,-5.3198,-5.3254,-5.3254,-5.3254,-5.3254,-5.3254,-5.323,-5.3188,-5.3206,-5.3206,-5.3206,-5.3206,-5.3206,-4.2074,-4.2655,-4.2723,-4.322,-4.3941,-4.4165,-4.499,-4.59,-4.6087,-4.635,-4.6637,-4.6637,-4.6731,-4.6824,-4.6842,-4.6906,-4.7043,-4.7043,-4.7133,-4.7178,-4.7178,-4.7088,-4.7043,-4.698,-4.698,-4.6998,-4.6998,-4.6998,-4.7168,-4.7867,-4.7868,-4.7797,-4.8821,-4.9179,-4.8985,-4.9725,-5.0211,-5.0495,-5.1321,-5.1789,-5.1844,-5.1903,-5.2215,-5.2784,-5.2674,-5.2674,-5.3059,-5.3206,-5.3206,-5.3206,-5.3206,-5.3206,-5.3164,-5.306,-5.3042,-5.2999,-5.2919,-5.2576,-5.2047,-5.2535,-5.259,-5.2138,-5.2528,-5.2857,-5.2725,-5.2735,-5.2779,-5.2974,-5.3042,-5.3066,-5.3193,-5.3157,-5.3217,-5.3359,-5.344,-5.34,-5.324,-5.318,-5.318,-5.3162,-5.318,-5.318,-5.318,-5.318,-5.3138,-5.318,-5.3138,-5.3054,-5.3157,-5.3175,-5.3277,-5.3359,-5.3518,-5.3635,-5.3576,-5.3558,-5.3499,-5.344,-5.3363,-5.3322,-5.3392,-5.3392,-5.34,-5.34,-5.3254,-5.3254,-5.3277,-5.3235,-5.3188,-5.3248,-5.3248,-5.3248,-5.3225,-5.3206,-5.3206,-4.2548,-4.2204,-4.2788,-4.3266,-4.3707,-4.4411,-4.5387,-4.6429,-4.6572,-4.6731,-4.6998,-4.6934,-4.698,-4.7088,-4.7025,-4.7043,-4.7133,-4.7178,-4.7205,-4.7276,-4.7223,-4.7196,-4.7151,-4.7043,-4.6998,-4.6998,-4.6998,-4.6998,-4.7132,-4.7249,-4.7357,-4.7499,-4.7829,-4.7987,-4.8384,-4.9049,-4.9569,-4.9896,-5.0637,-5.1041,-5.1059,-5.1077,-5.1408,-5.2123,-5.2546,-5.2949,-5.3133,-5.3206,-5.3206,-5.3206,-5.3133,-5.3023,-5.3146,-5.3164,-5.3146,-5.3103,-5.3042,-5.2907,-5.2767,-5.2316,-5.2138,-5.2386,-5.216,-5.2053,-5.2536,-5.2618,-5.2636,-5.2726,-5.2886,-5.3109,-5.33,-5.3198,-5.3281,-5.3481,-5.3539,-5.3561,-5.3582,-5.3639,-5.36,-5.3621,-5.3621,-5.3639,-5.3639,-5.3539,-5.3499,-5.3499,-5.34,-5.33,-5.3341,-5.34,-5.344,-5.3459,-5.3518,-5.3576,-5.3518,-5.3459,-5.3459,-5.3418,-5.3381,-5.3322,-5.341,-5.3387,-5.3355,-5.3295,-5.3248,-5.3272,-5.3258,-5.3254,-5.3206,-5.329,-5.3314,-5.3272,-5.323,-5.3206,-5.3206,-4.1836,-4.1657,-4.1971,-4.2687,-4.3523,-4.4073,-4.515,-4.6401,-4.659,-4.687,-4.716,-4.7116,-4.7178,-4.7249,-4.716,-4.7187,-4.7249,-4.7312,-4.7338,-4.732,-4.7249,-4.7223,-4.7196,-4.7088,-4.6998,-4.698,-4.7088,-4.7088,-4.716,-4.7187,-4.7443,-4.7603,-4.7621,-4.792,-4.8111,-4.8608,-4.8812,-4.9111,-4.9793,-5.0233,-5.0233,-5.0233,-5.0343,-5.093,-5.161,-5.2087,-5.2032,-5.205,-5.2068,-5.2105,-5.2123,-5.2491,-5.3078,-5.3206,-5.3206,-5.3164,-5.3146,-5.2846,-5.2577,-5.2517,-5.237,-5.2364,-5.2167,-5.2415,-5.2626,-5.2753,-5.2824,-5.2955,-5.317,-5.3318,-5.3521,-5.3502,-5.3502,-5.36,-5.3658,-5.3697,-5.3774,-5.3794,-5.3813,-5.3813,-5.3754,-5.3716,-5.3734,-5.3695,-5.3637,-5.3539,-5.3481,-5.3381,-5.3359,-5.34,-5.3359,-5.3359,-5.3459,-5.3459,-5.3359,-5.3359,-5.3378,-5.3336,-5.3314,-5.3272,-5.3267,-5.3267,-5.323,-5.323,-5.329,-5.3254,-5.3277,-5.323,-5.3248,-5.3272,-5.3295,-5.3254,-5.3254,-5.323,-5.3206,-4.1029,-4.114,-4.114,-4.2102,-4.345,-4.3685,-4.4847,-4.6513,-4.6619,-4.6944,-4.7232,-4.7249,-4.7249,-4.732,-4.7302,-4.7302,-4.7363,-4.7407,-4.7407,-4.7407,-4.732,-4.7294,-4.7223,-4.7088,-4.6998,-4.6998,-4.7133,-4.7205,-4.7232,-4.7407,-4.7578,-4.787,-4.7992,-4.8072,-4.8247,-4.8324,-4.8378,-4.8563,-4.9058,-4.9389,-4.9389,-4.9389,-4.9481,-4.9921,-5.0582,-5.1022,-5.1059,-5.1022,-5.093,-5.082,-5.082,-5.1555,-5.2435,-5.2986,-5.2871,-5.2815,-5.2889,-5.2755,-5.2278,-5.2425,-5.2553,-5.1974,-5.2377,-5.2859,-5.2907,-5.2962,-5.3109,-5.3277,-5.34,-5.3539,-5.3774,-5.3756,-5.3717,-5.3774,-5.3793,-5.3774,-5.3737,-5.37,-5.3495,-5.3793,-5.3754,-5.3773,-5.3695,-5.3674,-5.3598,-5.3539,-5.3481,-5.3481,-5.344,-5.34,-5.3318,-5.3318,-5.3378,-5.3355,-5.3295,-5.3254,-5.3254,-5.3272,-5.3248,-5.3225,-5.3225,-5.3206,-5.323,-5.3295,-5.3336,-5.3277,-5.3235,-5.323,-5.3248,-5.3295,-5.3254,-5.3254,-5.323,-5.3212,-5.3188,-4.1335,-4.1335,-4.1335,-4.23,-4.3763,-4.4163,-4.5293,-4.6819,-4.7125,-4.7363,-4.7407,-4.7302,-4.7309,-4.7425,-4.7345,-4.7345,-4.7468,-4.7511,-4.7554,-4.7511,-4.7407,-4.732,-4.7249,-4.7133,-4.7043,-4.7043,-4.7133,-4.7178,-4.7205,-4.7338,-4.7681,-4.7824,-4.7929,-4.8111,-4.8267,-4.8324,-4.8324,-4.8324,-4.8563,-4.8655,-4.8655,-4.8673,-4.8912,-4.9426,-5.0141,-5.049,-5.0674,-5.0747,-5.082,-5.082,-5.0802,-5.0912,-5.1242,-5.1756,-5.1789,-5.1747,-5.2364,-5.2523,-5.2102,-5.1974,-5.2401,-5.2547,-5.2553,-5.2637,-5.2949,-5.3096,-5.3217,-5.3258,-5.344,-5.3619,-5.3774,-5.3813,-5.3754,-5.3734,-5.366,-5.3584,-5.3415,-5.3024,-5.286,-5.3213,-5.3475,-5.3754,-5.3656,-5.3595,-5.3539,-5.3481,-5.344,-5.34,-5.3418,-5.3378,-5.3295,-5.3254,-5.3254,-5.3272,-5.3248,-5.3248,-5.3206,-5.323,-5.3206,-5.3206,-5.3206,-5.3206,-5.3248,-5.3272,-5.3272,-5.323,-5.3206,-5.3206,-5.323,-5.3295,-5.3254,-5.3248,-5.323,-5.3254,-5.3188,-4.1515,-4.1515,-4.1515,-4.2437,-4.3902,-4.4271,-4.5383,-4.6847,-4.6855,-4.7065,-4.7295,-4.7071,-4.7089,-4.7464,-4.7554,-4.7554,-4.7554,-4.7615,-4.7615,-4.7572,-4.7468,-4.7338,-4.7249,-4.7133,-4.7223,-4.7249,-4.7356,-4.7338,-4.7399,-4.7747,-4.7911,-4.7992,-4.8111,-4.8229,-4.8267,-4.8324,-4.8324,-4.8324,-4.8324,-4.8324,-4.8324,-4.8324,-4.86,-4.893,-4.926,-4.9481,-4.9517,-4.9517,-4.9499,-4.9462,-4.9481,-4.9499,-4.9774,-5.023,-5.0886,-5.1206,-5.1895,-5.2425,-5.2377,-5.2517,-5.2803,-5.3125,-5.2931,-5.2991,-5.3289,-5.344,-5.3422,-5.3462,-5.3521,-5.3658,-5.3773,-5.3754,-5.3676,-5.3563,-5.3286,-5.2987,-5.2726,-5.2153,-5.2153,-5.2373,-5.2502,-5.2892,-5.3595,-5.3536,-5.3499,-5.344,-5.3363,-5.3304,-5.3285,-5.3185,-5.3088,-5.3254,-5.3254,-5.3254,-5.3248,-5.3206,-5.3206,-5.3206,-5.3206,-5.3206,-5.3206,-5.3206,-5.3206,-5.3206,-5.3206,-5.3206,-5.3206,-5.3206,-5.323,-5.3295,-5.323,-5.3248,-5.3272,-5.3272,-5.3206,-4.1648,-4.1648,-4.1648,-4.2519,-4.3772,-4.4236,-4.5276,-4.6472,-4.6327,-4.674,-4.7494,-4.6855,-4.6892,-4.7494,-4.7699,-4.7699,-4.7699,-4.7717,-4.7657,-4.7554,-4.745,-4.7338,-4.7267,-4.7196,-4.7223,-4.7363,-4.7536,-4.7578,-4.7705,-4.7992,-4.819,-4.819,-4.8229,-4.8324,-4.8324,-4.8324,-4.8324,-4.8324,-4.8324,-4.8324,-4.8324,-4.8324,-4.8324,-4.8324,-4.8324,-4.8398,-4.8508,-4.8526,-4.8526,-4.8508,-4.8453,-4.8341,-4.8414,-4.8849,-4.9907,-5.1201,-5.1554,-5.2072,-5.2547,-5.3096,-5.3143,-5.34,-5.3539,-5.3619,-5.3658,-5.3676,-5.3716,-5.3774,-5.3793,-5.3754,-5.3676,-5.3528,-5.336,-5.3096,-5.258,-5.2101,-5.1819,-5.1429,-5.1058,-5.1222,-5.144,-5.1808,-5.2404,-5.2998,-5.289,-5.261,-5.2533,-5.2784,-5.2766,-5.2776,-5.2808,-5.312,-5.323,-5.3254,-5.323,-5.3248,-5.3206,-5.3206,-5.3206,-5.3206,-5.3206,-5.3206,-5.3206,-5.3206,-5.3206,-5.3206,-5.3206,-5.3206,-5.323,-5.323,-5.3206,-5.3206,-5.323,-5.323,-5.3206,-4.1884,-4.1797,-4.1797,-4.2273,-4.3182,-4.4183,-4.5106,-4.5908,-4.6236,-4.6915,-4.7554,-4.6884,-4.6843,-4.7554,-4.7699,-4.7699,-4.7699,-4.7699,-4.7657,-4.7554,-4.745,-4.732,-4.7232,-4.707,-4.7249,-4.7407,-4.7645,-4.7752,-4.7893,-4.813,-4.8187,-4.813,-4.8229,-4.8324,-4.8324,-4.8324,-4.8324,-4.8324,-4.8324,-4.8324,-4.8324,-4.8324,-4.8324,-4.8324,-4.8324,-4.8324,-4.8324,-4.8324,-4.8324,-4.8324,-4.8306,-4.8286,-4.8245,-4.8341,-4.9273,-5.0378,-5.1183,-5.1606,-5.2078,-5.2742,-5.33,-5.3521,-5.3639,-5.3736,-5.3774,-5.3774,-5.3774,-5.3813,-5.3717,-5.3584,-5.336,-5.2915,-5.2617,-5.2209,-5.1765,-5.132,-5.1003,-5.0468,-5.0116,-5.0112,-5.0312,-5.0572,-5.0961,-5.1667,-5.2207,-5.1927,-5.1796,-5.2085,-5.2412,-5.2532,-5.2716,-5.3106,-5.323,-5.323,-5.3254,-5.323,-5.3206,-5.3206,-5.3206,-5.3206,-5.3206,-5.3206,-5.3206,-5.3206,-5.3206,-5.3206,-5.3206,-5.3206,-5.3188,-5.3188,-5.3206,-5.3206,-5.3206,-5.3206,-5.3206,-4.197,-4.1797,-4.1884,-4.2326,-4.3112,-4.4235,-4.4925,-4.5244,-4.5671,-4.6287,-4.6757,-4.6178,-4.6486,-4.7518,-4.7699,-4.7699,-4.7699,-4.7699,-4.7615,-4.7511,-4.7407,-4.732,-4.7143,-4.7116,-4.7249,-4.7536,-4.7705,-4.797,-4.813,-4.8247,-4.8304,-4.8208,-4.8229,-4.8324,-4.8324,-4.8324,-4.8324,-4.8324,-4.8324,-4.8324,-4.8324,-4.8324,-4.8324,-4.8324,-4.8324,-4.8324,-4.8324,-4.8324,-4.8324,-4.8324,-4.8363,-4.8401,-4.8381,-4.8529,-4.9097,-5.0603,-5.0918,-5.1559,-5.2569,-5.3038,-5.3385,-5.36,-5.3756,-5.3813,-5.3813,-5.3775,-5.3756,-5.3754,-5.3252,-5.2989,-5.2745,-5.204,-5.1667,-5.1259,-5.0839,-5.0466,-5.0059,-4.9452,-4.9064,-4.9136,-4.9205,-4.9501,-4.9981,-5.1017,-5.1501,-5.1167,-5.1369,-5.1882,-5.2298,-5.2697,-5.2899,-5.3203,-5.3254,-5.323,-5.323,-5.3272,-5.3206,-5.3206,-5.3206,-5.3206,-5.3206,-5.3206,-5.3206,-5.3206,-5.3206,-5.3206,-5.3206,-5.3206,-5.3206,-5.3206,-5.3206,-5.3206,-5.3206,-5.3206,-5.3188,-4.2019,-4.1823,-4.1902,-4.2324,-4.2951,-4.4171,-4.4603,-4.4612,-4.5134,-4.578,-4.625,-4.616,-4.6703,-4.7482,-4.7699,-4.7699,-4.7699,-4.7699,-4.7554,-4.745,-4.7363,-4.7294,-4.716,-4.716,-4.7425,-4.777,-4.7806,-4.801,-4.8286,-4.8401,-4.8363,-4.8324,-4.8286,-4.8324,-4.8324,-4.8324,-4.8324,-4.8324,-4.8324,-4.8324,-4.8324,-4.8324,-4.8324,-4.8324,-4.8324,-4.8324,-4.8324,-4.8324,-4.8324,-4.8324,-4.8363,-4.8401,-4.8419,-4.855,-4.9121,-5.0301,-5.0777,-5.1648,-5.265,-5.3299,-5.3563,-5.3717,-5.3757,-5.3701,-5.3441,-5.3515,-5.3459,-5.3269,-5.2841,-5.2412,-5.1999,-5.1461,-5.0943,-5.0483,-4.9894,-4.9597,-4.9283,-4.8917,-4.8659,-4.8675,-4.871,-4.8581,-4.9263,-5.0459,-5.0793,-5.0444,-5.0812,-5.147,-5.1926,-5.2362,-5.2808,-5.3019,-5.3162,-5.3138,-5.318,-5.3198,-5.3193,-5.3109,-5.3109,-5.3206,-5.3206,-5.3206,-5.3206,-5.3206,-5.3206,-5.3206,-5.3206,-5.3206,-5.3206,-5.3206,-5.3206,-5.3206,-5.3206,-5.3206,-5.3188,-4.2079,-4.1797,-4.1841,-4.1962,-4.2334,-4.3993,-4.442,-4.3976,-4.4903,-4.5707,-4.6413,-4.7083,-4.7337,-4.7681,-4.7699,-4.7699,-4.7699,-4.7699,-4.7615,-4.7468,-4.7363,-4.7294,-4.7205,-4.7249,-4.7425,-4.7681,-4.7806,-4.805,-4.8267,-4.8363,-4.8324,-4.8324,-4.8324,-4.8324,-4.8324,-4.8324,-4.8324,-4.8324,-4.8324,-4.8324,-4.8324,-4.8324,-4.8324,-4.8306,-4.8306,-4.8324,-4.8324,-4.8306,-4.8324,-4.8363,-4.8401,-4.8438,-4.8476,-4.855,-4.9178,-4.9991,-5.0713,-5.1547,-5.2381,-5.3174,-5.3526,-5.3717,-5.3664,-5.333,-5.2754,-5.2717,-5.2623,-5.2619,-5.2432,-5.2259,-5.1904,-5.1366,-5.0499,-4.9965,-4.9432,-4.9009,-4.8825,-4.8733,-4.8456,-4.8343,-4.8324,-4.8324,-4.8398,-4.9556,-4.9816,-4.9485,-4.9963,-5.0603,-5.1063,-5.1518,-5.2275,-5.2684,-5.2918,-5.301,-5.3051,-5.2978,-5.2637,-5.2724,-5.2852,-5.3017,-5.3206,-5.3206,-5.3206,-5.3206,-5.3206,-5.3206,-5.3206,-5.3206,-5.3206,-5.3206,-5.3206,-5.3206,-5.3206,-5.3206,-5.3206,-4.2103,-4.1977,-4.1977,-4.2019,-4.2228,-4.3982,-4.4098,-4.3556,-4.4668,-4.5454,-4.5816,-4.6595,-4.7246,-4.7572,-4.7699,-4.7699,-4.7699,-4.7699,-4.7615,-4.7511,-4.7363,-4.7232,-4.7205,-4.7205,-4.7294,-4.7657,-4.7824,-4.801,-4.8267,-4.8324,-4.8324,-4.8324,-4.8324,-4.8324,-4.8324,-4.8324,-4.8324,-4.8324,-4.8324,-4.8324,-4.8324,-4.8306,-4.8286,-4.8247,-4.8267,-4.8286,-4.8286,-4.842,-4.842,-4.8476,-4.8587,-4.8587,-4.8587,-4.8714,-4.9157,-4.9842,-5.0452,-5.1045,-5.1918,-5.2827,-5.3476,-5.3088,-5.3014,-5.2717,-5.1992,-5.2159,-5.2361,-5.2377,-5.217,-5.1922,-5.1912,-5.0919,-4.9908,-4.9504,-4.9062,-4.8604,-4.8401,-4.8401,-4.8401,-4.8324,-4.8324,-4.8324,-4.8416,-4.8636,-4.86,-4.8526,-4.9132,-4.9738,-5.0251,-5.071,-5.143,-5.1908,-5.2105,-5.2068,-5.2132,-5.2055,-5.1954,-5.2284,-5.2553,-5.2834,-5.3078,-5.3206,-5.3206,-5.3206,-5.3206,-5.3206,-5.3206,-5.3206,-5.3206,-5.3206,-5.3206,-5.3206,-5.3206,-5.3206,-5.3206,-4.2163,-4.2103,-4.2086,-4.2145,-4.2365,-4.3817,-4.3827,-4.3201,-4.4292,-4.4928,-4.5019,-4.5997,-4.6776,-4.7283,-4.7627,-4.7699,-4.7699,-4.7699,-4.7615,-4.7511,-4.7363,-4.7276,-4.7249,-4.7312,-4.7486,-4.7741,-4.7907,-4.809,-4.8267,-4.8324,-4.8324,-4.8324,-4.8324,-4.8324,-4.8324,-4.8324,-4.8324,-4.8324,-4.8324,-4.8286,-4.8286,-4.8267,-4.8229,-4.8169,-4.8208,-4.8286,-4.8286,-4.8382,-4.8495,-4.855,-4.866,-4.8768,-4.8804,-4.8932,-4.9227,-4.9633,-5.006,-5.0395,-5.1175,-5.2085,-5.2791,-5.2327,-5.2252,-5.1806,-5.138,-5.1454,-5.1417,-5.1394,-5.1372,-5.1495,-5.1503,-5.0493,-4.9795,-4.9465,-4.8822,-4.8363,-4.8363,-4.8363,-4.8324,-4.8324,-4.8324,-4.8324,-4.8361,-4.8434,-4.8416,-4.8343,-4.8618,-4.9224,-4.9774,-5.0178,-5.0545,-5.0912,-5.1151,-5.1041,-5.0894,-5.1114,-5.1426,-5.205,-5.232,-5.265,-5.2894,-5.3059,-5.3206,-5.3206,-5.3206,-5.3206,-5.3206,-5.3206,-5.3206,-5.3206,-5.317,-5.3115,-5.3206,-5.3206,-5.3206,-4.2187,-4.2086,-4.2103,-4.2228,-4.2481,-4.3391,-4.3502,-4.2989,-4.3751,-4.4168,-4.4403,-4.5689,-4.645,-4.6739,-4.7283,-4.7512,-4.7699,-4.7717,-4.7657,-4.7511,-4.7363,-4.7363,-4.7468,-4.7572,-4.7639,-4.7951,-4.8072,-4.8151,-4.8324,-4.8324,-4.8324,-4.8324,-4.8324,-4.8324,-4.8324,-4.8324,-4.8324,-4.8324,-4.8324,-4.8265,-4.8265,-4.8286,-4.819,-4.813,-4.8208,-4.8324,-4.8324,-4.842,-4.8532,-4.8605,-4.8697,-4.8768,-4.8822,-4.8822,-4.895,-4.9057,-4.9689,-5.0023,-5.0228,-5.1008,-5.1305,-5.1416,-5.1398,-5.0971,-5.0376,-5.0248,-5.0343,-5.0451,-5.0321,-5.0483,-5.0368,-5.0141,-4.9756,-4.937,-4.8746,-4.8324,-4.8324,-4.8324,-4.8324,-4.8324,-4.8324,-4.8324,-4.8324,-4.8324,-4.8343,-4.8324,-4.8324,-4.8691,-4.926,-4.9517,-4.9756,-4.9866,-5.0068,-5.0086,-5.005,-5.0435,-5.0857,-5.1555,-5.2013,-5.2234,-5.2632,-5.2999,-5.3109,-5.3188,-5.3206,-5.3206,-5.3206,-5.3206,-5.3206,-5.3188,-5.3041,-5.3004,-5.3115,-5.2986,-5.2692,-4.2145,-4.2103,-4.2228,-4.2351,-4.2539,-4.3297,-4.339,-4.2971,-4.3208,-4.3588,-4.4095,-4.4722,-4.5594,-4.6282,-4.6657,-4.7072,-4.7548,-4.7699,-4.7657,-4.7597,-4.7353,-4.745,-4.7554,-4.7597,-4.7663,-4.7911,-4.8111,-4.8229,-4.8324,-4.8324,-4.8324,-4.8324,-4.8324,-4.8324,-4.8324,-4.8324,-4.8324,-4.8267,-4.8247,-4.8226,-4.8206,-4.8247,-4.8229,-4.813,-4.8306,-4.842,-4.8438,-4.8532,-4.8642,-4.8732,-4.8804,-4.8892,-4.8892,-4.8857,-4.8874,-4.8909,-4.9299,-4.928,-4.9336,-4.9707,-5.0005,-5.0285,-5.047,-5.0119,-4.9414,-4.9677,-4.9713,-4.9841,-4.9967,-5.0312,-5.0618,-5.0013,-4.9609,-4.9426,-4.893,-4.8471,-4.8324,-4.8324,-4.8324,-4.8324,-4.8324,-4.8324,-4.8324,-4.8324,-4.8324,-4.8324,-4.8324,-4.8324,-4.8746,-4.8728,-4.882,-4.882,-4.893,-4.9022,-4.9187,-4.9536,-5.0052,-5.0756,-5.121,-5.1513,-5.2045,-5.2889,-5.3091,-5.3206,-5.3206,-5.3206,-5.3206,-5.3206,-5.3206,-5.3151,-5.2747,-5.2546,-5.2546,-5.2105,-5.1481,-4.2163,-4.2205,-4.2269,-4.2351,-4.2544,-4.3091,-4.318,-4.2936,-4.29,-4.3208,-4.3661,-4.387,-4.452,-4.5445,-4.5851,-4.6044,-4.6741,-4.6741,-4.7066,-4.7102,-4.7035,-4.7265,-4.7512,-4.7567,-4.787,-4.8032,-4.8111,-4.819,-4.8324,-4.8324,-4.8324,-4.8324,-4.8324,-4.8324,-4.8324,-4.8324,-4.8286,-4.8247,-4.8226,-4.8148,-4.8166,-4.8187,-4.8229,-4.8247,-4.8363,-4.855,-4.8606,-4.8697,-4.8839,-4.8857,-4.8927,-4.8996,-4.8909,-4.8874,-4.8874,-4.8855,-4.889,-4.8909,-4.8964,-4.8967,-4.9338,-4.9633,-4.9601,-4.9324,-4.8935,-4.9141,-4.9196,-4.9397,-4.9834,-5.0089,-5.016,-4.9575,-4.9297,-4.9114,-4.893,-4.8453,-4.8324,-4.8324,-4.8324,-4.8324,-4.8324,-4.8324,-4.8324,-4.8324,-4.8324,-4.8324,-4.8324,-4.8343,-4.8343,-4.8324,-4.8324,-4.8361,-4.8379,-4.8563,-4.8618,-4.8636,-4.9228,-4.9894,-5.0551,-5.1224,-5.2137,-5.3072,-5.3127,-5.3206,-5.3206,-5.3206,-5.3206,-5.3206,-5.3096,-5.2656,-5.2013,-5.1903,-5.1958,-5.1371,-5.0618,-4.2287,-4.2287,-4.2145,-4.231,-4.2591,-4.2858,-4.2936,-4.29,-4.29,-4.2918,-4.2973,-4.3635,-4.4065,-4.4209,-4.47,-4.5072,-4.5312,-4.5276,-4.5696,-4.6074,-4.6224,-4.6789,-4.7261,-4.7529,-4.7612,-4.7988,-4.8157,-4.7988,-4.8231,-4.8286,-4.8286,-4.8286,-4.8306,-4.8286,-4.8286,-4.8286,-4.8247,-4.8226,-4.8187,-4.8068,-4.8046,-4.8187,-4.819,-4.8229,-4.8401,-4.8569,-4.866,-4.8678,-4.875,-4.882,-4.8909,-4.8909,-4.8874,-4.8822,-4.8839,-4.8874,-4.889,-4.889,-4.889,-4.8839,-4.8857,-4.9097,-4.8987,-4.8841,-4.8788,-4.8753,-4.8734,-4.8696,-4.8915,-4.9171,-4.9299,-4.9022,-4.8765,-4.8691,-4.8655,-4.8453,-4.8343,-4.8324,-4.8324,-4.8324,-4.8324,-4.8324,-4.8324,-4.8324,-4.8398,-4.8324,-4.8361,-4.8545,-4.8526,-4.8343,-4.8324,-4.8324,-4.8343,-4.8324,-4.8343,-4.8489,-4.8989,-4.9857,-5.0738,-5.1444,-5.2399,-5.3072,-5.3188,-5.3206,-5.3206,-5.3206,-5.3206,-5.3078,-5.2876,-5.2307,-5.1646,-5.1169,-5.1187,-5.0655,-5.0105,-4.2187,-4.2287,-4.231,-4.2432,-4.2609,-4.2824,-4.29,-4.29,-4.29,-4.29,-4.2918,-4.2961,-4.3412,-4.3992,-4.4047,-4.4402,-4.4785,-4.5078,-4.5233,-4.5418,-4.5495,-4.5802,-4.6124,-4.646,-4.6777,-4.7181,-4.7439,-4.7714,-4.8098,-4.819,-4.8226,-4.8226,-4.8229,-4.8247,-4.8247,-4.8208,-4.8226,-4.8187,-4.8108,-4.8028,-4.8046,-4.8226,-4.8229,-4.8344,-4.855,-4.8732,-4.8785,-4.8785,-4.8839,-4.8804,-4.8822,-4.8822,-4.8822,-4.8822,-4.8804,-4.8855,-4.889,-4.889,-4.8909,-4.8874,-4.8874,-4.8874,-4.8822,-4.8732,-4.866,-4.8532,-4.842,-4.8401,-4.8401,-4.8712,-4.882,-4.8636,-4.8489,-4.8471,-4.8453,-4.8416,-4.8324,-4.8324,-4.8324,-4.8324,-4.8324,-4.8324,-4.8324,-4.8489,-4.8526,-4.8398,-4.8471,-4.8783,-4.882,-4.8691,-4.8728,-4.8765,-4.8746,-4.8875,-4.8802,-4.8893,-4.932,-4.9855,-5.0809,-5.165,-5.2265,-5.2834,-5.3054,-5.3206,-5.3206,-5.3206,-5.3206,-5.3059,-5.2913,-5.2123,-5.1444,-5.0857,-5.0306,-4.9811,-4.9407,-4.1961,-4.2387,-4.2351,-4.245,-4.2631,-4.2824,-4.2882,-4.2862,-4.2882,-4.29,-4.29,-4.2783,-4.3015,-4.3358,-4.3328,-4.3504,-4.3922,-4.3904,-4.4165,-4.4664,-4.4762,-4.5189,-4.5381,-4.5605,-4.6064,-4.6468,-4.6832,-4.7273,-4.773,-4.8096,-4.8206,-4.8148,-4.8169,-4.8169,-4.813,-4.809,-4.809,-4.8068,-4.8068,-4.8068,-4.813,-4.8286,-4.8382,-4.8458,-4.8768,-4.8839,-4.8909,-4.8874,-4.8857,-4.8787,-4.8787,-4.8768,-4.8732,-4.8714,-4.8715,-4.8768,-4.8804,-4.8839,-4.8839,-4.8857,-4.8874,-4.8874,-4.8804,-4.8678,-4.8624,-4.8513,-4.8438,-4.8401,-4.8363,-4.8343,-4.8343,-4.8324,-4.8324,-4.8324,-4.8324,-4.8324,-4.8324,-4.8324,-4.8324,-4.8324,-4.8324,-4.8324,-4.8416,-4.86,-4.8857,-4.9022,-4.9352,-4.9756,-4.9646,-4.9352,-4.9517,-4.9682,-4.9609,-4.9572,-4.9499,-4.9554,-5.011,-5.0606,-5.1268,-5.1958,-5.2352,-5.2682,-5.3072,-5.3206,-5.3206,-5.3206,-5.3206,-5.3133,-5.2913,-5.2068,-5.1169,-5.0472,-4.9756,-4.9022,-4.8673,-4.1631,-4.2486,-4.2387,-4.249,-4.2667,-4.2824,-4.2862,-4.2822,-4.2862,-4.29,-4.2862,-4.2804,-4.282,-4.2964,-4.2847,-4.2731,-4.2987,-4.3023,-4.3394,-4.387,-4.4082,-4.4451,-4.4909,-4.5442,-4.537,-4.5772,-4.6229,-4.6537,-4.7126,-4.7565,-4.7853,-4.7974,-4.8032,-4.8072,-4.8072,-4.809,-4.8108,-4.8068,-4.813,-4.8169,-4.8267,-4.8439,-4.8587,-4.8605,-4.8732,-4.8857,-4.8892,-4.8857,-4.8822,-4.8787,-4.8787,-4.8732,-4.866,-4.8642,-4.8624,-4.8606,-4.8715,-4.8732,-4.8768,-4.8768,-4.8822,-4.8804,-4.8714,-4.8678,-4.8624,-4.8513,-4.8438,-4.8401,-4.8363,-4.8363,-4.8363,-4.8324,-4.8306,-4.8324,-4.8324,-4.8363,-4.8363,-4.8363,-4.8363,-4.8363,-4.8363,-4.8363,-4.8361,-4.8526,-4.8636,-4.9279,-4.9793,-5.0215,-5.0453,-5.0068,-5.016,-5.0435,-5.0288,-5.0215,-5.038,-5.0527,-5.1063,-5.1599,-5.1963,-5.2325,-5.276,-5.2981,-5.3188,-5.3206,-5.3206,-5.3206,-5.3188,-5.3133,-5.2747,-5.1793,-5.093,-5.0105,-4.9315,-4.86,-4.8343,-4.1614,-4.257,-4.2727,-4.2824,-4.2956,-4.29,-4.2882,-4.2862,-4.29,-4.2862,-4.2804,-4.2804,-4.2783,-4.2783,-4.2706,-4.2609,-4.2606,-4.2745,-4.2912,-4.3208,-4.3469,-4.378,-4.3926,-4.4254,-4.4454,-4.4766,-4.5205,-4.5787,-4.6588,-4.7062,-4.7503,-4.7919,-4.8032,-4.813,-4.813,-4.8148,-4.8148,-4.8148,-4.8229,-4.8229,-4.819,-4.8402,-4.8587,-4.8678,-4.8768,-4.8839,-4.8874,-4.8874,-4.8857,-4.8841,-4.8787,-4.8732,-4.8623,-4.8697,-4.8697,-4.8605,-4.8624,-4.866,-4.866,-4.8678,-4.8714,-4.8787,-4.8787,-4.8787,-4.8715,-4.8569,-4.8494,-4.8457,-4.8419,-4.8419,-4.8401,-4.8363,-4.8306,-4.8363,-4.8363,-4.8419,-4.8419,-4.8419,-4.8419,-4.8419,-4.8401,-4.8381,-4.8361,-4.8489,-4.8545,-4.8912,-4.9407,-4.9958,-5.0747,-5.0784,-5.0729,-5.0912,-5.0802,-5.0784,-5.1077,-5.1389,-5.1871,-5.2146,-5.2459,-5.2803,-5.3151,-5.3188,-5.3206,-5.3206,-5.3206,-5.3059,-5.2986,-5.3115,-5.2582,-5.1426,-5.0765,-4.9976,-4.937,-4.8691,-4.8471,-4.1389,-4.2555,-4.2824,-4.2938,-4.2994,-4.2938,-4.29,-4.288,-4.29,-4.2824,-4.2745,-4.2804,-4.2822,-4.2822,-4.2822,-4.2727,-4.2706,-4.2899,-4.3085,-4.316,-4.3214,-4.3341,-4.3411,-4.3446,-4.3686,-4.4053,-4.4565,-4.5241,-4.6012,-4.6749,-4.7268,-4.7518,-4.7779,-4.8151,-4.8151,-4.8208,-4.8286,-4.8324,-4.8364,-4.8326,-4.8267,-4.8532,-4.8714,-4.8768,-4.8804,-4.8874,-4.8874,-4.8874,-4.8822,-4.8787,-4.8751,-4.866,-4.8587,-4.8606,-4.8587,-4.8495,-4.8495,-4.8532,-4.8587,-4.8605,-4.8623,-4.8732,-4.8787,-4.8787,-4.8787,-4.8679,-4.8587,-4.855,-4.8494,-4.8457,-4.8419,-4.8401,-4.8306,-4.8324,-4.8324,-4.8363,-4.8363,-4.8363,-4.8363,-4.8363,-4.8363,-4.8363,-4.8471,-4.893,-4.904,-4.926,-4.9664,-4.9994,-5.071,-5.1169,-5.1224,-5.1298,-5.1151,-5.1591,-5.216,-5.2344,-5.2527,-5.2766,-5.2734,-5.2931,-5.3059,-5.3151,-5.3206,-5.2986,-5.2784,-5.2601,-5.2601,-5.2564,-5.1811,-5.0582,-5.0178,-4.9866,-4.9315,-4.8783,-4.8508,-4.0894,-4.2397,-4.277,-4.2938,-4.2938,-4.29,-4.2862,-4.2842,-4.2862,-4.2768,-4.267,-4.2824,-4.2842,-4.2842,-4.2936,-4.2918,-4.2938,-4.3049,-4.3215,-4.3305,-4.3376,-4.3411,-4.3411,-4.3429,-4.3521,-4.3686,-4.4089,-4.46,-4.5207,-4.5854,-4.6332,-4.6691,-4.7375,-4.8023,-4.808,-4.8249,-4.8382,-4.842,-4.8476,-4.8587,-4.8642,-4.8732,-4.8804,-4.8839,-4.8857,-4.8857,-4.8839,-4.8839,-4.8822,-4.8787,-4.8732,-4.866,-4.8587,-4.8569,-4.8438,-4.842,-4.842,-4.8438,-4.8494,-4.8495,-4.8605,-4.8697,-4.8751,-4.8751,-4.8751,-4.8732,-4.8697,-4.8624,-4.8532,-4.8494,-4.8457,-4.8401,-4.8363,-4.8363,-4.8324,-4.8324,-4.8324,-4.8306,-4.8324,-4.8324,-4.8324,-4.8306,-4.86,-4.9095,-4.9315,-4.9591,-4.9939,-5.0362,-5.0692,-5.0894,-5.1041,-5.1261,-5.1371,-5.2013,-5.2711,-5.2692,-5.2546,-5.2252,-5.2123,-5.2582,-5.2803,-5.2454,-5.2325,-5.2491,-5.2289,-5.1958,-5.1701,-5.1573,-5.0655,-4.9958,-4.9829,-4.9701,-4.9279,-4.8802,-4.8489,-4.005,-4.1902,-4.2611,-4.2938,-4.3049,-4.2938,-4.2882,-4.2882,-4.29,-4.2842,-4.2783,-4.2783,-4.2765,-4.2649,-4.2649,-4.2727,-4.288,-4.3049,-4.3142,-4.3214,-4.3393,-4.3463,-4.3481,-4.3463,-4.3446,-4.3539,-4.3687,-4.3962,-4.4411,-4.4796,-4.5199,-4.576,-4.6738,-4.7294,-4.7518,-4.785,-4.8421,-4.8495,-4.8605,-4.8678,-4.8768,-4.8804,-4.8855,-4.8909,-4.8909,-4.8909,-4.889,-4.8909,-4.8874,-4.8874,-4.8839,-4.8714,-4.8642,-4.8587,-4.8458,-4.8363,-4.8363,-4.8363,-4.8401,-4.8382,-4.8476,-4.8569,-4.8606,-4.8606,-4.8587,-4.8642,-4.8624,-4.8569,-4.8494,-4.8532,-4.8476,-4.8401,-4.8306,-4.8401,-4.8419,-4.8363,-4.8324,-4.8363,-4.8401,-4.8363,-4.8363,-4.8363,-4.8379,-4.8618,-4.8636,-4.8948,-4.9334,-4.9719,-4.9866,-5.0288,-5.0729,-5.1004,-5.1261,-5.1665,-5.2013,-5.2087,-5.1958,-5.1605,-5.1422,-5.1738,-5.172,-5.1298,-5.1261,-5.1665,-5.1463,-5.1077,-5.0857,-5.0637,-5.049,-4.9958,-4.9738,-4.9517,-4.9114,-4.8822,-4.8491]}]]